<?xml version="1.0" encoding="UTF-8" standalone="yes"?>
<gpx
 xmlns="http://www.topografix.com/GPX/1/1"
 creator="OziExplorer Version 3956f - http://www.oziexplorer.com"
 version="1.1"
 xmlns:xsi="http://www.w3.org/2001/XMLSchema-instance"
 xsi:schemaLocation="http://www.topografix.com/GPX/1/1 http://www.topografix.com/GPX/1/1/gpx.xsd">
<metadata>
 <time>2023-03-08T10:19:34Z</time>
 <bounds minlat="30.907990" minlon="35.204980" maxlat="30.957190" maxlon="35.368590"/>
</metadata>
<wpt lat="30.9252700" lon="35.2101300">
 <time>2023-03-08T12:16:00.834Z</time>
 <name>GEVEY-SHAISH</name>
 <sym>Flag, Red</sym>
</wpt>
<wpt lat="30.9418900" lon="35.3683100">
 <time>2023-03-08T12:16:00.858Z</time>
 <name>Start\Fin</name>
 <sym>Bike Trail</sym>
</wpt>
<wpt lat="30.9205700" lon="35.2790000">
 <time>2023-03-08T12:16:00.859Z</time>
 <name>Trassa90</name>
 <sym>Flag, Red</sym>
</wpt>
<wpt lat="30.9265400" lon="35.2631800">
 <time>2023-03-08T12:16:00.860Z</time>
 <name>Marpeset</name>
 <sym>Flag, Red</sym>
</wpt>
<wpt lat="30.9332000" lon="35.2427500">
 <time>2023-03-08T12:16:00.861Z</time>
 <name>Mapal</name>
 <sym>Flag, Red</sym>
</wpt>
<wpt lat="30.9270200" lon="35.2094300">
 <time>2023-03-08T12:16:00.862Z</time>
 <name>Tatspit</name>
 <sym>Flag, Red</sym>
</wpt>
<trk>
 <name>EinTamar-GevShaish-Harits,56km,650m</name>
 <desc>EinTamar-GevShaish-Harits,56km,650m</desc>
<trkseg>
<trkpt lat="30.9419700" lon="35.3682300">
<ele>-355.370026</ele>
<time>2023-03-08T12:16:00.862Z</time>
</trkpt>
<trkpt lat="30.9418700" lon="35.3680300">
<ele>-355.460022</ele>
<time>2023-03-08T12:16:00.862Z</time>
</trkpt>
<trkpt lat="30.9417400" lon="35.3678600">
<ele>-354.529999</ele>
<time>2023-03-08T12:16:00.862Z</time>
</trkpt>
<trkpt lat="30.9417400" lon="35.3678700">
<ele>-354.529999</ele>
<time>2023-03-08T12:16:00.862Z</time>
</trkpt>
<trkpt lat="30.9415500" lon="35.3676400">
<ele>-353.500000</ele>
<time>2023-03-08T12:16:00.862Z</time>
</trkpt>
<trkpt lat="30.9412400" lon="35.3672400">
<ele>-353.100006</ele>
<time>2023-03-08T12:16:00.862Z</time>
</trkpt>
<trkpt lat="30.9409200" lon="35.3668500">
<ele>-350.209991</ele>
<time>2023-03-08T12:16:00.862Z</time>
</trkpt>
<trkpt lat="30.9406100" lon="35.3664500">
<ele>-348.570007</ele>
<time>2023-03-08T12:16:00.862Z</time>
</trkpt>
<trkpt lat="30.9402900" lon="35.3660600">
<ele>-346.399994</ele>
<time>2023-03-08T12:16:00.862Z</time>
</trkpt>
<trkpt lat="30.9399100" lon="35.3657500">
<ele>-345.100006</ele>
<time>2023-03-08T12:16:00.862Z</time>
</trkpt>
<trkpt lat="30.9395200" lon="35.3655900">
<ele>-343.709991</ele>
<time>2023-03-08T12:16:00.862Z</time>
</trkpt>
<trkpt lat="30.9389100" lon="35.3654400">
<ele>-336.500031</ele>
<time>2023-03-08T12:16:00.862Z</time>
</trkpt>
<trkpt lat="30.9382900" lon="35.3652900">
<ele>-336.070007</ele>
<time>2023-03-08T12:16:00.862Z</time>
</trkpt>
<trkpt lat="30.9378100" lon="35.3649900">
<ele>-341.700012</ele>
<time>2023-03-08T12:16:00.862Z</time>
</trkpt>
<trkpt lat="30.9374200" lon="35.3646600">
<ele>-348.910004</ele>
<time>2023-03-08T12:16:00.862Z</time>
</trkpt>
<trkpt lat="30.9370200" lon="35.3643300">
<ele>-344.169983</ele>
<time>2023-03-08T12:16:00.862Z</time>
</trkpt>
<trkpt lat="30.9366300" lon="35.3639100">
<ele>-342.209991</ele>
<time>2023-03-08T12:16:00.862Z</time>
</trkpt>
<trkpt lat="30.9362400" lon="35.3634800">
<ele>-337.119995</ele>
<time>2023-03-08T12:16:00.862Z</time>
</trkpt>
<trkpt lat="30.9358800" lon="35.3629100">
<ele>-333.820007</ele>
<time>2023-03-08T12:16:00.862Z</time>
</trkpt>
<trkpt lat="30.9356800" lon="35.3624100">
<ele>-338.179993</ele>
<time>2023-03-08T12:16:00.862Z</time>
</trkpt>
<trkpt lat="30.9354700" lon="35.3619200">
<ele>-336.240021</ele>
<time>2023-03-08T12:16:00.862Z</time>
</trkpt>
<trkpt lat="30.9352700" lon="35.3614200">
<ele>-336.700012</ele>
<time>2023-03-08T12:16:00.862Z</time>
</trkpt>
<trkpt lat="30.9352100" lon="35.3606600">
<ele>-339.399994</ele>
<time>2023-03-08T12:16:00.862Z</time>
</trkpt>
<trkpt lat="30.9351500" lon="35.3599000">
<ele>-337.089996</ele>
<time>2023-03-08T12:16:00.862Z</time>
</trkpt>
<trkpt lat="30.9350600" lon="35.3593600">
<ele>-340.919983</ele>
<time>2023-03-08T12:16:00.862Z</time>
</trkpt>
<trkpt lat="30.9349800" lon="35.3588200">
<ele>-340.260010</ele>
<time>2023-03-08T12:16:00.862Z</time>
</trkpt>
<trkpt lat="30.9348900" lon="35.3582800">
<ele>-341.220001</ele>
<time>2023-03-08T12:16:00.862Z</time>
</trkpt>
<trkpt lat="30.9346800" lon="35.3577700">
<ele>-341.269989</ele>
<time>2023-03-08T12:16:00.862Z</time>
</trkpt>
<trkpt lat="30.9344600" lon="35.3572600">
<ele>-340.640015</ele>
<time>2023-03-08T12:16:00.862Z</time>
</trkpt>
<trkpt lat="30.9340800" lon="35.3567400">
<ele>-342.419983</ele>
<time>2023-03-08T12:16:00.862Z</time>
</trkpt>
<trkpt lat="30.9337000" lon="35.3562300">
<ele>-335.940002</ele>
<time>2023-03-08T12:16:00.862Z</time>
</trkpt>
<trkpt lat="30.9332000" lon="35.3560000">
<ele>-336.750000</ele>
<time>2023-03-08T12:16:00.862Z</time>
</trkpt>
<trkpt lat="30.9327000" lon="35.3557700">
<ele>-338.380005</ele>
<time>2023-03-08T12:16:00.862Z</time>
</trkpt>
<trkpt lat="30.9322500" lon="35.3556700">
<ele>-333.809998</ele>
<time>2023-03-08T12:16:00.862Z</time>
</trkpt>
<trkpt lat="30.9317900" lon="35.3555700">
<ele>-329.339996</ele>
<time>2023-03-08T12:16:00.862Z</time>
</trkpt>
<trkpt lat="30.9314800" lon="35.3556300">
<ele>-329.579987</ele>
<time>2023-03-08T12:16:00.862Z</time>
</trkpt>
<trkpt lat="30.9309900" lon="35.3556300">
<ele>-326.950012</ele>
<time>2023-03-08T12:16:00.862Z</time>
</trkpt>
<trkpt lat="30.9305000" lon="35.3556200">
<ele>-332.560028</ele>
<time>2023-03-08T12:16:00.862Z</time>
</trkpt>
<trkpt lat="30.9300100" lon="35.3556200">
<ele>-333.639984</ele>
<time>2023-03-08T12:16:00.862Z</time>
</trkpt>
<trkpt lat="30.9295200" lon="35.3556200">
<ele>-331.940002</ele>
<time>2023-03-08T12:16:00.862Z</time>
</trkpt>
<trkpt lat="30.9290300" lon="35.3556100">
<ele>-330.100006</ele>
<time>2023-03-08T12:16:00.862Z</time>
</trkpt>
<trkpt lat="30.9285400" lon="35.3556100">
<ele>-329.550018</ele>
<time>2023-03-08T12:16:00.862Z</time>
</trkpt>
<trkpt lat="30.9281800" lon="35.3554800">
<ele>-329.679993</ele>
<time>2023-03-08T12:16:00.862Z</time>
</trkpt>
<trkpt lat="30.9277900" lon="35.3551400">
<ele>-329.850006</ele>
<time>2023-03-08T12:16:00.862Z</time>
</trkpt>
<trkpt lat="30.9273400" lon="35.3544900">
<ele>-330.679993</ele>
<time>2023-03-08T12:16:00.862Z</time>
</trkpt>
<trkpt lat="30.9270500" lon="35.3539300">
<ele>-329.560028</ele>
<time>2023-03-08T12:16:00.862Z</time>
</trkpt>
<trkpt lat="30.9267500" lon="35.3533600">
<ele>-328.299988</ele>
<time>2023-03-08T12:16:00.862Z</time>
</trkpt>
<trkpt lat="30.9263600" lon="35.3530400">
<ele>-326.799988</ele>
<time>2023-03-08T12:16:00.862Z</time>
</trkpt>
<trkpt lat="30.9259700" lon="35.3527100">
<ele>-324.179993</ele>
<time>2023-03-08T12:16:00.862Z</time>
</trkpt>
<trkpt lat="30.9255100" lon="35.3523900">
<ele>-318.529999</ele>
<time>2023-03-08T12:16:00.862Z</time>
</trkpt>
<trkpt lat="30.9250400" lon="35.3520800">
<ele>-315.809998</ele>
<time>2023-03-08T12:16:00.862Z</time>
</trkpt>
<trkpt lat="30.9245800" lon="35.3517600">
<ele>-317.289978</ele>
<time>2023-03-08T12:16:00.862Z</time>
</trkpt>
<trkpt lat="30.9241200" lon="35.3514400">
<ele>-319.660004</ele>
<time>2023-03-08T12:16:00.862Z</time>
</trkpt>
<trkpt lat="30.9237400" lon="35.3510500">
<ele>-319.100006</ele>
<time>2023-03-08T12:16:00.862Z</time>
</trkpt>
<trkpt lat="30.9233600" lon="35.3506700">
<ele>-323.650024</ele>
<time>2023-03-08T12:16:00.862Z</time>
</trkpt>
<trkpt lat="30.9229700" lon="35.3502900">
<ele>-321.909973</ele>
<time>2023-03-08T12:16:00.862Z</time>
</trkpt>
<trkpt lat="30.9225900" lon="35.3499000">
<ele>-322.049988</ele>
<time>2023-03-08T12:16:00.862Z</time>
</trkpt>
<trkpt lat="30.9223200" lon="35.3493500">
<ele>-323.019989</ele>
<time>2023-03-08T12:16:00.862Z</time>
</trkpt>
<trkpt lat="30.9220600" lon="35.3487900">
<ele>-324.790009</ele>
<time>2023-03-08T12:16:00.862Z</time>
</trkpt>
<trkpt lat="30.9217900" lon="35.3482400">
<ele>-324.959991</ele>
<time>2023-03-08T12:16:00.862Z</time>
</trkpt>
<trkpt lat="30.9217000" lon="35.3473900">
<ele>-321.949982</ele>
<time>2023-03-08T12:16:00.862Z</time>
</trkpt>
<trkpt lat="30.9215200" lon="35.3466800">
<ele>-322.529999</ele>
<time>2023-03-08T12:16:00.862Z</time>
</trkpt>
<trkpt lat="30.9213900" lon="35.3457900">
<ele>-319.000000</ele>
<time>2023-03-08T12:16:00.862Z</time>
</trkpt>
<trkpt lat="30.9211300" lon="35.3450000">
<ele>-317.069977</ele>
<time>2023-03-08T12:16:00.862Z</time>
</trkpt>
<trkpt lat="30.9208200" lon="35.3444600">
<ele>-321.790009</ele>
<time>2023-03-08T12:16:00.862Z</time>
</trkpt>
<trkpt lat="30.9205000" lon="35.3439200">
<ele>-316.420013</ele>
<time>2023-03-08T12:16:00.862Z</time>
</trkpt>
<trkpt lat="30.9201100" lon="35.3435300">
<ele>-310.869995</ele>
<time>2023-03-08T12:16:00.862Z</time>
</trkpt>
<trkpt lat="30.9196200" lon="35.3432400">
<ele>-313.320007</ele>
<time>2023-03-08T12:16:00.862Z</time>
</trkpt>
<trkpt lat="30.9191300" lon="35.3429500">
<ele>-314.929993</ele>
<time>2023-03-08T12:16:00.862Z</time>
</trkpt>
<trkpt lat="30.9186400" lon="35.3426600">
<ele>-312.980011</ele>
<time>2023-03-08T12:16:00.862Z</time>
</trkpt>
<trkpt lat="30.9182300" lon="35.3422400">
<ele>-314.059998</ele>
<time>2023-03-08T12:16:00.862Z</time>
</trkpt>
<trkpt lat="30.9178100" lon="35.3418200">
<ele>-310.720001</ele>
<time>2023-03-08T12:16:00.862Z</time>
</trkpt>
<trkpt lat="30.9175600" lon="35.3410700">
<ele>-310.179993</ele>
<time>2023-03-08T12:16:00.862Z</time>
</trkpt>
<trkpt lat="30.9175700" lon="35.3406700">
<ele>-309.410004</ele>
<time>2023-03-08T12:16:00.862Z</time>
</trkpt>
<trkpt lat="30.9177100" lon="35.3401400">
<ele>-304.350006</ele>
<time>2023-03-08T12:16:00.862Z</time>
</trkpt>
<trkpt lat="30.9178500" lon="35.3396100">
<ele>-303.540009</ele>
<time>2023-03-08T12:16:00.862Z</time>
</trkpt>
<trkpt lat="30.9178300" lon="35.3390100">
<ele>-312.480011</ele>
<time>2023-03-08T12:16:00.862Z</time>
</trkpt>
<trkpt lat="30.9178100" lon="35.3384100">
<ele>-311.880005</ele>
<time>2023-03-08T12:16:00.862Z</time>
</trkpt>
<trkpt lat="30.9177900" lon="35.3378000">
<ele>-311.880005</ele>
<time>2023-03-08T12:16:00.862Z</time>
</trkpt>
<trkpt lat="30.9177700" lon="35.3372000">
<ele>-312.000000</ele>
<time>2023-03-08T12:16:00.862Z</time>
</trkpt>
<trkpt lat="30.9176200" lon="35.3366800">
<ele>-310.480011</ele>
<time>2023-03-08T12:16:00.862Z</time>
</trkpt>
<trkpt lat="30.9174600" lon="35.3361700">
<ele>-310.569977</ele>
<time>2023-03-08T12:16:00.862Z</time>
</trkpt>
<trkpt lat="30.9173100" lon="35.3356500">
<ele>-310.110016</ele>
<time>2023-03-08T12:16:00.862Z</time>
</trkpt>
<trkpt lat="30.9171600" lon="35.3351400">
<ele>-307.610016</ele>
<time>2023-03-08T12:16:00.862Z</time>
</trkpt>
<trkpt lat="30.9170000" lon="35.3346200">
<ele>-305.850006</ele>
<time>2023-03-08T12:16:00.862Z</time>
</trkpt>
<trkpt lat="30.9168500" lon="35.3341000">
<ele>-304.380005</ele>
<time>2023-03-08T12:16:00.862Z</time>
</trkpt>
<trkpt lat="30.9166900" lon="35.3335900">
<ele>-302.640015</ele>
<time>2023-03-08T12:16:00.862Z</time>
</trkpt>
<trkpt lat="30.9165400" lon="35.3330700">
<ele>-305.450012</ele>
<time>2023-03-08T12:16:00.862Z</time>
</trkpt>
<trkpt lat="30.9161300" lon="35.3323200">
<ele>-303.600006</ele>
<time>2023-03-08T12:16:00.862Z</time>
</trkpt>
<trkpt lat="30.9157900" lon="35.3318300">
<ele>-302.260010</ele>
<time>2023-03-08T12:16:00.862Z</time>
</trkpt>
<trkpt lat="30.9154400" lon="35.3313400">
<ele>-301.589996</ele>
<time>2023-03-08T12:16:00.862Z</time>
</trkpt>
<trkpt lat="30.9150500" lon="35.3309400">
<ele>-299.399994</ele>
<time>2023-03-08T12:16:00.862Z</time>
</trkpt>
<trkpt lat="30.9146100" lon="35.3308000">
<ele>-297.399994</ele>
<time>2023-03-08T12:16:00.862Z</time>
</trkpt>
<trkpt lat="30.9141600" lon="35.3306600">
<ele>-302.000000</ele>
<time>2023-03-08T12:16:00.862Z</time>
</trkpt>
<trkpt lat="30.9137200" lon="35.3305100">
<ele>-300.660004</ele>
<time>2023-03-08T12:16:00.862Z</time>
</trkpt>
<trkpt lat="30.9132700" lon="35.3303700">
<ele>-296.140015</ele>
<time>2023-03-08T12:16:00.862Z</time>
</trkpt>
<trkpt lat="30.9128300" lon="35.3302300">
<ele>-294.609985</ele>
<time>2023-03-08T12:16:00.862Z</time>
</trkpt>
<trkpt lat="30.9122200" lon="35.3299600">
<ele>-295.609985</ele>
<time>2023-03-08T12:16:00.862Z</time>
</trkpt>
<trkpt lat="30.9116000" lon="35.3296800">
<ele>-300.089996</ele>
<time>2023-03-08T12:16:00.862Z</time>
</trkpt>
<trkpt lat="30.9111700" lon="35.3292900">
<ele>-296.750000</ele>
<time>2023-03-08T12:16:00.862Z</time>
</trkpt>
<trkpt lat="30.9108600" lon="35.3285300">
<ele>-296.000000</ele>
<time>2023-03-08T12:16:00.862Z</time>
</trkpt>
<trkpt lat="30.9107000" lon="35.3277600">
<ele>-291.279999</ele>
<time>2023-03-08T12:16:00.862Z</time>
</trkpt>
<trkpt lat="30.9106400" lon="35.3271700">
<ele>-289.839996</ele>
<time>2023-03-08T12:16:00.862Z</time>
</trkpt>
<trkpt lat="30.9105800" lon="35.3265800">
<ele>-285.179993</ele>
<time>2023-03-08T12:16:00.862Z</time>
</trkpt>
<trkpt lat="30.9103100" lon="35.3257400">
<ele>-289.250000</ele>
<time>2023-03-08T12:16:00.862Z</time>
</trkpt>
<trkpt lat="30.9099900" lon="35.3251500">
<ele>-293.449982</ele>
<time>2023-03-08T12:16:00.862Z</time>
</trkpt>
<trkpt lat="30.9096700" lon="35.3245600">
<ele>-289.740021</ele>
<time>2023-03-08T12:16:00.862Z</time>
</trkpt>
<trkpt lat="30.9094600" lon="35.3240900">
<ele>-290.020020</ele>
<time>2023-03-08T12:16:00.862Z</time>
</trkpt>
<trkpt lat="30.9092500" lon="35.3236300">
<ele>-293.440002</ele>
<time>2023-03-08T12:16:00.862Z</time>
</trkpt>
<trkpt lat="30.9090400" lon="35.3231600">
<ele>-290.859985</ele>
<time>2023-03-08T12:16:00.862Z</time>
</trkpt>
<trkpt lat="30.9088300" lon="35.3227000">
<ele>-292.940002</ele>
<time>2023-03-08T12:16:00.862Z</time>
</trkpt>
<trkpt lat="30.9086200" lon="35.3222300">
<ele>-290.119995</ele>
<time>2023-03-08T12:16:00.862Z</time>
</trkpt>
<trkpt lat="30.9082600" lon="35.3216900">
<ele>-288.260010</ele>
<time>2023-03-08T12:16:00.862Z</time>
</trkpt>
<trkpt lat="30.9082600" lon="35.3214400">
<ele>-288.860016</ele>
<time>2023-03-08T12:16:00.862Z</time>
</trkpt>
<trkpt lat="30.9085000" lon="35.3209900">
<ele>-285.709991</ele>
<time>2023-03-08T12:16:00.862Z</time>
</trkpt>
<trkpt lat="30.9085600" lon="35.3204500">
<ele>-283.980011</ele>
<time>2023-03-08T12:16:00.862Z</time>
</trkpt>
<trkpt lat="30.9085500" lon="35.3195100">
<ele>-280.830017</ele>
<time>2023-03-08T12:16:00.862Z</time>
</trkpt>
<trkpt lat="30.9084800" lon="35.3189100">
<ele>-280.510010</ele>
<time>2023-03-08T12:16:00.862Z</time>
</trkpt>
<trkpt lat="30.9084000" lon="35.3183100">
<ele>-283.020020</ele>
<time>2023-03-08T12:16:00.862Z</time>
</trkpt>
<trkpt lat="30.9083700" lon="35.3176400">
<ele>-282.140015</ele>
<time>2023-03-08T12:16:00.862Z</time>
</trkpt>
<trkpt lat="30.9084400" lon="35.3170300">
<ele>-280.350006</ele>
<time>2023-03-08T12:16:00.862Z</time>
</trkpt>
<trkpt lat="30.9085100" lon="35.3164100">
<ele>-273.859985</ele>
<time>2023-03-08T12:16:00.862Z</time>
</trkpt>
<trkpt lat="30.9085100" lon="35.3158500">
<ele>-269.130005</ele>
<time>2023-03-08T12:16:00.862Z</time>
</trkpt>
<trkpt lat="30.9085100" lon="35.3152900">
<ele>-272.980011</ele>
<time>2023-03-08T12:16:00.862Z</time>
</trkpt>
<trkpt lat="30.9085600" lon="35.3151500">
<ele>-273.079987</ele>
<time>2023-03-08T12:16:00.862Z</time>
</trkpt>
<trkpt lat="30.9092400" lon="35.3146400">
<ele>-273.049988</ele>
<time>2023-03-08T12:16:00.862Z</time>
</trkpt>
<trkpt lat="30.9097900" lon="35.3140200">
<ele>-264.979980</ele>
<time>2023-03-08T12:16:00.862Z</time>
</trkpt>
<trkpt lat="30.9103600" lon="35.3137400">
<ele>-269.910004</ele>
<time>2023-03-08T12:16:00.862Z</time>
</trkpt>
<trkpt lat="30.9105000" lon="35.3136000">
<ele>-271.579987</ele>
<time>2023-03-08T12:16:00.862Z</time>
</trkpt>
<trkpt lat="30.9105600" lon="35.3132800">
<ele>-270.929993</ele>
<time>2023-03-08T12:16:00.862Z</time>
</trkpt>
<trkpt lat="30.9104500" lon="35.3131200">
<ele>-268.389984</ele>
<time>2023-03-08T12:16:00.862Z</time>
</trkpt>
<trkpt lat="30.9099700" lon="35.3128000">
<ele>-258.269989</ele>
<time>2023-03-08T12:16:00.862Z</time>
</trkpt>
<trkpt lat="30.9099400" lon="35.3122500">
<ele>-259.350006</ele>
<time>2023-03-08T12:16:00.862Z</time>
</trkpt>
<trkpt lat="30.9101800" lon="35.3118500">
<ele>-256.369995</ele>
<time>2023-03-08T12:16:00.862Z</time>
</trkpt>
<trkpt lat="30.9108600" lon="35.3113500">
<ele>-264.140015</ele>
<time>2023-03-08T12:16:00.862Z</time>
</trkpt>
<trkpt lat="30.9110000" lon="35.3111500">
<ele>-265.220001</ele>
<time>2023-03-08T12:16:00.862Z</time>
</trkpt>
<trkpt lat="30.9110300" lon="35.3109700">
<ele>-263.429993</ele>
<time>2023-03-08T12:16:00.862Z</time>
</trkpt>
<trkpt lat="30.9109600" lon="35.3106500">
<ele>-260.139984</ele>
<time>2023-03-08T12:16:00.862Z</time>
</trkpt>
<trkpt lat="30.9105700" lon="35.3102600">
<ele>-256.750000</ele>
<time>2023-03-08T12:16:00.862Z</time>
</trkpt>
<trkpt lat="30.9104000" lon="35.3098300">
<ele>-256.869995</ele>
<time>2023-03-08T12:16:00.862Z</time>
</trkpt>
<trkpt lat="30.9100600" lon="35.3093100">
<ele>-252.990005</ele>
<time>2023-03-08T12:16:00.862Z</time>
</trkpt>
<trkpt lat="30.9098800" lon="35.3091800">
<ele>-254.700012</ele>
<time>2023-03-08T12:16:00.862Z</time>
</trkpt>
<trkpt lat="30.9091100" lon="35.3089600">
<ele>-256.209991</ele>
<time>2023-03-08T12:16:00.862Z</time>
</trkpt>
<trkpt lat="30.9090100" lon="35.3087200">
<ele>-257.260010</ele>
<time>2023-03-08T12:16:00.862Z</time>
</trkpt>
<trkpt lat="30.9090900" lon="35.3080100">
<ele>-250.959991</ele>
<time>2023-03-08T12:16:00.862Z</time>
</trkpt>
<trkpt lat="30.9092500" lon="35.3077500">
<ele>-250.130005</ele>
<time>2023-03-08T12:16:00.862Z</time>
</trkpt>
<trkpt lat="30.9094800" lon="35.3076800">
<ele>-252.799988</ele>
<time>2023-03-08T12:16:00.862Z</time>
</trkpt>
<trkpt lat="30.9100000" lon="35.3077900">
<ele>-246.780014</ele>
<time>2023-03-08T12:16:00.862Z</time>
</trkpt>
<trkpt lat="30.9100800" lon="35.3077200">
<ele>-244.929993</ele>
<time>2023-03-08T12:16:00.862Z</time>
</trkpt>
<trkpt lat="30.9100800" lon="35.3075600">
<ele>-245.589996</ele>
<time>2023-03-08T12:16:00.862Z</time>
</trkpt>
<trkpt lat="30.9099900" lon="35.3073900">
<ele>-249.580002</ele>
<time>2023-03-08T12:16:00.862Z</time>
</trkpt>
<trkpt lat="30.9095200" lon="35.3072000">
<ele>-254.330002</ele>
<time>2023-03-08T12:16:00.862Z</time>
</trkpt>
<trkpt lat="30.9094600" lon="35.3069700">
<ele>-254.910004</ele>
<time>2023-03-08T12:16:00.862Z</time>
</trkpt>
<trkpt lat="30.9097100" lon="35.3065400">
<ele>-254.350006</ele>
<time>2023-03-08T12:16:00.862Z</time>
</trkpt>
<trkpt lat="30.9102300" lon="35.3063900">
<ele>-250.019989</ele>
<time>2023-03-08T12:16:00.862Z</time>
</trkpt>
<trkpt lat="30.9103900" lon="35.3061900">
<ele>-249.840012</ele>
<time>2023-03-08T12:16:00.862Z</time>
</trkpt>
<trkpt lat="30.9104900" lon="35.3059100">
<ele>-249.559998</ele>
<time>2023-03-08T12:16:00.862Z</time>
</trkpt>
<trkpt lat="30.9105000" lon="35.3054500">
<ele>-247.570007</ele>
<time>2023-03-08T12:16:00.862Z</time>
</trkpt>
<trkpt lat="30.9103400" lon="35.3048300">
<ele>-247.850006</ele>
<time>2023-03-08T12:16:00.862Z</time>
</trkpt>
<trkpt lat="30.9101700" lon="35.3042200">
<ele>-248.349991</ele>
<time>2023-03-08T12:16:00.862Z</time>
</trkpt>
<trkpt lat="30.9100500" lon="35.3033700">
<ele>-256.059998</ele>
<time>2023-03-08T12:16:00.862Z</time>
</trkpt>
<trkpt lat="30.9101400" lon="35.3030500">
<ele>-255.979996</ele>
<time>2023-03-08T12:16:00.862Z</time>
</trkpt>
<trkpt lat="30.9104600" lon="35.3024300">
<ele>-253.800003</ele>
<time>2023-03-08T12:16:00.862Z</time>
</trkpt>
<trkpt lat="30.9104000" lon="35.3015800">
<ele>-249.909988</ele>
<time>2023-03-08T12:16:00.862Z</time>
</trkpt>
<trkpt lat="30.9102000" lon="35.3012700">
<ele>-251.660004</ele>
<time>2023-03-08T12:16:00.862Z</time>
</trkpt>
<trkpt lat="30.9098100" lon="35.3009900">
<ele>-252.499985</ele>
<time>2023-03-08T12:16:00.862Z</time>
</trkpt>
<trkpt lat="30.9095800" lon="35.3010600">
<ele>-253.020004</ele>
<time>2023-03-08T12:16:00.862Z</time>
</trkpt>
<trkpt lat="30.9089400" lon="35.3015300">
<ele>-243.570007</ele>
<time>2023-03-08T12:16:00.862Z</time>
</trkpt>
<trkpt lat="30.9087800" lon="35.3015200">
<ele>-242.470001</ele>
<time>2023-03-08T12:16:00.862Z</time>
</trkpt>
<trkpt lat="30.9085600" lon="35.3013300">
<ele>-245.099991</ele>
<time>2023-03-08T12:16:00.862Z</time>
</trkpt>
<trkpt lat="30.9083400" lon="35.3009500">
<ele>-245.840012</ele>
<time>2023-03-08T12:16:00.862Z</time>
</trkpt>
<trkpt lat="30.9082300" lon="35.3005400">
<ele>-246.149994</ele>
<time>2023-03-08T12:16:00.862Z</time>
</trkpt>
<trkpt lat="30.9081000" lon="35.2997500">
<ele>-242.699997</ele>
<time>2023-03-08T12:16:00.862Z</time>
</trkpt>
<trkpt lat="30.9080500" lon="35.2990000">
<ele>-242.070007</ele>
<time>2023-03-08T12:16:00.862Z</time>
</trkpt>
<trkpt lat="30.9079900" lon="35.2982500">
<ele>-245.869995</ele>
<time>2023-03-08T12:16:00.862Z</time>
</trkpt>
<trkpt lat="30.9082600" lon="35.2973200">
<ele>-247.000000</ele>
<time>2023-03-08T12:16:00.862Z</time>
</trkpt>
<trkpt lat="30.9089600" lon="35.2969500">
<ele>-244.910004</ele>
<time>2023-03-08T12:16:00.862Z</time>
</trkpt>
<trkpt lat="30.9093700" lon="35.2966400">
<ele>-240.139999</ele>
<time>2023-03-08T12:16:00.862Z</time>
</trkpt>
<trkpt lat="30.9095400" lon="35.2963700">
<ele>-242.710007</ele>
<time>2023-03-08T12:16:00.862Z</time>
</trkpt>
<trkpt lat="30.9098100" lon="35.2956500">
<ele>-246.710007</ele>
<time>2023-03-08T12:16:00.862Z</time>
</trkpt>
<trkpt lat="30.9098700" lon="35.2949100">
<ele>-244.210007</ele>
<time>2023-03-08T12:16:00.862Z</time>
</trkpt>
<trkpt lat="30.9097900" lon="35.2940400">
<ele>-239.800003</ele>
<time>2023-03-08T12:16:00.862Z</time>
</trkpt>
<trkpt lat="30.9094900" lon="35.2933000">
<ele>-238.529999</ele>
<time>2023-03-08T12:16:00.862Z</time>
</trkpt>
<trkpt lat="30.9092900" lon="35.2923800">
<ele>-235.569992</ele>
<time>2023-03-08T12:16:00.862Z</time>
</trkpt>
<trkpt lat="30.9094800" lon="35.2915800">
<ele>-235.509995</ele>
<time>2023-03-08T12:16:00.862Z</time>
</trkpt>
<trkpt lat="30.9096800" lon="35.2913100">
<ele>-235.000000</ele>
<time>2023-03-08T12:16:00.862Z</time>
</trkpt>
<trkpt lat="30.9099500" lon="35.2911500">
<ele>-234.069992</ele>
<time>2023-03-08T12:16:00.862Z</time>
</trkpt>
<trkpt lat="30.9105000" lon="35.2910000">
<ele>-234.159988</ele>
<time>2023-03-08T12:16:00.862Z</time>
</trkpt>
<trkpt lat="30.9110500" lon="35.2908400">
<ele>-236.010010</ele>
<time>2023-03-08T12:16:00.862Z</time>
</trkpt>
<trkpt lat="30.9112400" lon="35.2907000">
<ele>-232.860001</ele>
<time>2023-03-08T12:16:00.862Z</time>
</trkpt>
<trkpt lat="30.9114700" lon="35.2903700">
<ele>-231.490005</ele>
<time>2023-03-08T12:16:00.862Z</time>
</trkpt>
<trkpt lat="30.9115000" lon="35.2900400">
<ele>-231.799988</ele>
<time>2023-03-08T12:16:00.862Z</time>
</trkpt>
<trkpt lat="30.9112300" lon="35.2894500">
<ele>-230.570007</ele>
<time>2023-03-08T12:16:00.862Z</time>
</trkpt>
<trkpt lat="30.9110900" lon="35.2888300">
<ele>-229.210007</ele>
<time>2023-03-08T12:16:00.862Z</time>
</trkpt>
<trkpt lat="30.9110700" lon="35.2882400">
<ele>-229.809998</ele>
<time>2023-03-08T12:16:00.862Z</time>
</trkpt>
<trkpt lat="30.9111300" lon="35.2877700">
<ele>-227.799988</ele>
<time>2023-03-08T12:16:00.862Z</time>
</trkpt>
<trkpt lat="30.9114800" lon="35.2869800">
<ele>-226.129990</ele>
<time>2023-03-08T12:16:00.862Z</time>
</trkpt>
<trkpt lat="30.9116400" lon="35.2864300">
<ele>-224.439987</ele>
<time>2023-03-08T12:16:00.862Z</time>
</trkpt>
<trkpt lat="30.9117900" lon="35.2858700">
<ele>-221.220001</ele>
<time>2023-03-08T12:16:00.862Z</time>
</trkpt>
<trkpt lat="30.9120700" lon="35.2854000">
<ele>-219.960007</ele>
<time>2023-03-08T12:16:00.862Z</time>
</trkpt>
<trkpt lat="30.9123600" lon="35.2849300">
<ele>-218.400009</ele>
<time>2023-03-08T12:16:00.862Z</time>
</trkpt>
<trkpt lat="30.9126400" lon="35.2844600">
<ele>-220.260010</ele>
<time>2023-03-08T12:16:00.862Z</time>
</trkpt>
<trkpt lat="30.9129200" lon="35.2839900">
<ele>-218.400009</ele>
<time>2023-03-08T12:16:00.862Z</time>
</trkpt>
<trkpt lat="30.9131600" lon="35.2833700">
<ele>-219.400009</ele>
<time>2023-03-08T12:16:00.862Z</time>
</trkpt>
<trkpt lat="30.9134000" lon="35.2827600">
<ele>-220.119995</ele>
<time>2023-03-08T12:16:00.862Z</time>
</trkpt>
<trkpt lat="30.9136400" lon="35.2821400">
<ele>-217.900009</ele>
<time>2023-03-08T12:16:00.862Z</time>
</trkpt>
<trkpt lat="30.9137900" lon="35.2819600">
<ele>-217.360001</ele>
<time>2023-03-08T12:16:00.862Z</time>
</trkpt>
<trkpt lat="30.9142200" lon="35.2816700">
<ele>-217.200012</ele>
<time>2023-03-08T12:16:00.862Z</time>
</trkpt>
<trkpt lat="30.9146400" lon="35.2813700">
<ele>-217.869995</ele>
<time>2023-03-08T12:16:00.862Z</time>
</trkpt>
<trkpt lat="30.9152500" lon="35.2808300">
<ele>-208.270004</ele>
<time>2023-03-08T12:16:00.862Z</time>
</trkpt>
<trkpt lat="30.9157700" lon="35.2805100">
<ele>-202.689987</ele>
<time>2023-03-08T12:16:00.862Z</time>
</trkpt>
<trkpt lat="30.9162600" lon="35.2800800">
<ele>-204.750000</ele>
<time>2023-03-08T12:16:00.862Z</time>
</trkpt>
<trkpt lat="30.9167200" lon="35.2798400">
<ele>-202.649994</ele>
<time>2023-03-08T12:16:00.862Z</time>
</trkpt>
<trkpt lat="30.9174400" lon="35.2799100">
<ele>-201.110001</ele>
<time>2023-03-08T12:16:00.862Z</time>
</trkpt>
<trkpt lat="30.9183000" lon="35.2796400">
<ele>-199.470001</ele>
<time>2023-03-08T12:16:00.862Z</time>
</trkpt>
<trkpt lat="30.9188100" lon="35.2797200">
<ele>-200.979996</ele>
<time>2023-03-08T12:16:00.862Z</time>
</trkpt>
<trkpt lat="30.9193100" lon="35.2798000">
<ele>-195.169998</ele>
<time>2023-03-08T12:16:00.862Z</time>
</trkpt>
<trkpt lat="30.9195300" lon="35.2796900">
<ele>-194.889999</ele>
<time>2023-03-08T12:16:00.862Z</time>
</trkpt>
<trkpt lat="30.9202200" lon="35.2796200">
<ele>-194.870010</ele>
<time>2023-03-08T12:16:00.862Z</time>
</trkpt>
<trkpt lat="30.9203000" lon="35.2795000">
<ele>-196.149994</ele>
<time>2023-03-08T12:16:00.862Z</time>
</trkpt>
<trkpt lat="30.9203500" lon="35.2791100">
<ele>-196.639999</ele>
<time>2023-03-08T12:16:00.862Z</time>
</trkpt>
<trkpt lat="30.9207700" lon="35.2788500">
<ele>-195.250000</ele>
<time>2023-03-08T12:16:00.862Z</time>
</trkpt>
<trkpt lat="30.9207800" lon="35.2784100">
<ele>-193.279999</ele>
<time>2023-03-08T12:16:00.862Z</time>
</trkpt>
<trkpt lat="30.9209600" lon="35.2774800">
<ele>-191.510010</ele>
<time>2023-03-08T12:16:00.862Z</time>
</trkpt>
<trkpt lat="30.9209800" lon="35.2767600">
<ele>-187.620010</ele>
<time>2023-03-08T12:16:00.862Z</time>
</trkpt>
<trkpt lat="30.9210600" lon="35.2764300">
<ele>-185.520004</ele>
<time>2023-03-08T12:16:00.862Z</time>
</trkpt>
<trkpt lat="30.9211100" lon="35.2758400">
<ele>-184.029999</ele>
<time>2023-03-08T12:16:00.862Z</time>
</trkpt>
<trkpt lat="30.9211600" lon="35.2752400">
<ele>-183.759995</ele>
<time>2023-03-08T12:16:00.862Z</time>
</trkpt>
<trkpt lat="30.9215500" lon="35.2747800">
<ele>-180.380005</ele>
<time>2023-03-08T12:16:00.862Z</time>
</trkpt>
<trkpt lat="30.9219500" lon="35.2743200">
<ele>-177.110001</ele>
<time>2023-03-08T12:16:00.862Z</time>
</trkpt>
<trkpt lat="30.9223400" lon="35.2738600">
<ele>-173.660004</ele>
<time>2023-03-08T12:16:00.862Z</time>
</trkpt>
<trkpt lat="30.9227800" lon="35.2735800">
<ele>-170.750000</ele>
<time>2023-03-08T12:16:00.862Z</time>
</trkpt>
<trkpt lat="30.9232200" lon="35.2731700">
<ele>-166.960007</ele>
<time>2023-03-08T12:16:00.862Z</time>
</trkpt>
<trkpt lat="30.9236000" lon="35.2727100">
<ele>-163.459991</ele>
<time>2023-03-08T12:16:00.862Z</time>
</trkpt>
<trkpt lat="30.9239700" lon="35.2722400">
<ele>-156.059998</ele>
<time>2023-03-08T12:16:00.862Z</time>
</trkpt>
<trkpt lat="30.9242000" lon="35.2720900">
<ele>-149.709991</ele>
<time>2023-03-08T12:16:00.862Z</time>
</trkpt>
<trkpt lat="30.9246100" lon="35.2719800">
<ele>-150.009995</ele>
<time>2023-03-08T12:16:00.862Z</time>
</trkpt>
<trkpt lat="30.9250700" lon="35.2720000">
<ele>-152.410004</ele>
<time>2023-03-08T12:16:00.862Z</time>
</trkpt>
<trkpt lat="30.9255200" lon="35.2720100">
<ele>-162.699997</ele>
<time>2023-03-08T12:16:00.862Z</time>
</trkpt>
<trkpt lat="30.9260200" lon="35.2719500">
<ele>-168.029999</ele>
<time>2023-03-08T12:16:00.862Z</time>
</trkpt>
<trkpt lat="30.9265200" lon="35.2719000">
<ele>-170.100006</ele>
<time>2023-03-08T12:16:00.862Z</time>
</trkpt>
<trkpt lat="30.9270100" lon="35.2718400">
<ele>-179.659988</ele>
<time>2023-03-08T12:16:00.862Z</time>
</trkpt>
<trkpt lat="30.9275100" lon="35.2717800">
<ele>-179.959991</ele>
<time>2023-03-08T12:16:00.862Z</time>
</trkpt>
<trkpt lat="30.9282500" lon="35.2717500">
<ele>-172.690002</ele>
<time>2023-03-08T12:16:00.862Z</time>
</trkpt>
<trkpt lat="30.9284700" lon="35.2718400">
<ele>-172.290009</ele>
<time>2023-03-08T12:16:00.862Z</time>
</trkpt>
<trkpt lat="30.9287800" lon="35.2715900">
<ele>-190.039993</ele>
<time>2023-03-08T12:16:00.862Z</time>
</trkpt>
<trkpt lat="30.9287900" lon="35.2712500">
<ele>-195.339996</ele>
<time>2023-03-08T12:16:00.862Z</time>
</trkpt>
<trkpt lat="30.9287100" lon="35.2709400">
<ele>-193.710007</ele>
<time>2023-03-08T12:16:00.862Z</time>
</trkpt>
<trkpt lat="30.9287700" lon="35.2706600">
<ele>-199.360001</ele>
<time>2023-03-08T12:16:00.862Z</time>
</trkpt>
<trkpt lat="30.9287400" lon="35.2702200">
<ele>-197.360016</ele>
<time>2023-03-08T12:16:00.862Z</time>
</trkpt>
<trkpt lat="30.9288600" lon="35.2698800">
<ele>-201.860001</ele>
<time>2023-03-08T12:16:00.862Z</time>
</trkpt>
<trkpt lat="30.9289500" lon="35.2691800">
<ele>-205.850006</ele>
<time>2023-03-08T12:16:00.862Z</time>
</trkpt>
<trkpt lat="30.9288700" lon="35.2686500">
<ele>-200.590012</ele>
<time>2023-03-08T12:16:00.862Z</time>
</trkpt>
<trkpt lat="30.9286400" lon="35.2682200">
<ele>-199.410004</ele>
<time>2023-03-08T12:16:00.862Z</time>
</trkpt>
<trkpt lat="30.9283800" lon="35.2679400">
<ele>-196.529999</ele>
<time>2023-03-08T12:16:00.862Z</time>
</trkpt>
<trkpt lat="30.9280200" lon="35.2673800">
<ele>-193.270004</ele>
<time>2023-03-08T12:16:00.862Z</time>
</trkpt>
<trkpt lat="30.9277900" lon="35.2668800">
<ele>-198.790009</ele>
<time>2023-03-08T12:16:00.862Z</time>
</trkpt>
<trkpt lat="30.9275500" lon="35.2663700">
<ele>-199.779999</ele>
<time>2023-03-08T12:16:00.862Z</time>
</trkpt>
<trkpt lat="30.9274400" lon="35.2659000">
<ele>-199.300003</ele>
<time>2023-03-08T12:16:00.862Z</time>
</trkpt>
<trkpt lat="30.9274400" lon="35.2656000">
<ele>-199.670013</ele>
<time>2023-03-08T12:16:00.862Z</time>
</trkpt>
<trkpt lat="30.9272200" lon="35.2650100">
<ele>-198.819992</ele>
<time>2023-03-08T12:16:00.862Z</time>
</trkpt>
<trkpt lat="30.9272900" lon="35.2647700">
<ele>-200.979996</ele>
<time>2023-03-08T12:16:00.862Z</time>
</trkpt>
<trkpt lat="30.9272700" lon="35.2645900">
<ele>-201.250000</ele>
<time>2023-03-08T12:16:00.862Z</time>
</trkpt>
<trkpt lat="30.9269800" lon="35.2640000">
<ele>-191.639999</ele>
<time>2023-03-08T12:16:00.862Z</time>
</trkpt>
<trkpt lat="30.9266800" lon="35.2634000">
<ele>-186.410004</ele>
<time>2023-03-08T12:16:00.862Z</time>
</trkpt>
<trkpt lat="30.9263900" lon="35.2628100">
<ele>-187.550003</ele>
<time>2023-03-08T12:16:00.862Z</time>
</trkpt>
<trkpt lat="30.9266700" lon="35.2626000">
<ele>-193.259995</ele>
<time>2023-03-08T12:16:00.862Z</time>
</trkpt>
<trkpt lat="30.9267200" lon="35.2624800">
<ele>-193.480011</ele>
<time>2023-03-08T12:16:00.862Z</time>
</trkpt>
<trkpt lat="30.9268400" lon="35.2619500">
<ele>-192.500015</ele>
<time>2023-03-08T12:16:00.862Z</time>
</trkpt>
<trkpt lat="30.9268000" lon="35.2612000">
<ele>-191.250000</ele>
<time>2023-03-08T12:16:00.862Z</time>
</trkpt>
<trkpt lat="30.9269100" lon="35.2604900">
<ele>-190.539993</ele>
<time>2023-03-08T12:16:00.862Z</time>
</trkpt>
<trkpt lat="30.9271200" lon="35.2599800">
<ele>-188.380005</ele>
<time>2023-03-08T12:16:00.862Z</time>
</trkpt>
<trkpt lat="30.9273300" lon="35.2594700">
<ele>-183.559998</ele>
<time>2023-03-08T12:16:00.862Z</time>
</trkpt>
<trkpt lat="30.9274000" lon="35.2589300">
<ele>-187.539993</ele>
<time>2023-03-08T12:16:00.862Z</time>
</trkpt>
<trkpt lat="30.9277200" lon="35.2581400">
<ele>-194.810013</ele>
<time>2023-03-08T12:16:00.862Z</time>
</trkpt>
<trkpt lat="30.9280800" lon="35.2578100">
<ele>-193.310013</ele>
<time>2023-03-08T12:16:00.862Z</time>
</trkpt>
<trkpt lat="30.9284400" lon="35.2574800">
<ele>-191.020004</ele>
<time>2023-03-08T12:16:00.862Z</time>
</trkpt>
<trkpt lat="30.9290000" lon="35.2570600">
<ele>-190.469986</ele>
<time>2023-03-08T12:16:00.862Z</time>
</trkpt>
<trkpt lat="30.9295700" lon="35.2566400">
<ele>-183.889999</ele>
<time>2023-03-08T12:16:00.862Z</time>
</trkpt>
<trkpt lat="30.9302700" lon="35.2567800">
<ele>-188.349991</ele>
<time>2023-03-08T12:16:00.862Z</time>
</trkpt>
<trkpt lat="30.9307300" lon="35.2566800">
<ele>-182.659988</ele>
<time>2023-03-08T12:16:00.862Z</time>
</trkpt>
<trkpt lat="30.9313100" lon="35.2560100">
<ele>-188.520004</ele>
<time>2023-03-08T12:16:00.862Z</time>
</trkpt>
<trkpt lat="30.9315700" lon="35.2551500">
<ele>-187.529999</ele>
<time>2023-03-08T12:16:00.862Z</time>
</trkpt>
<trkpt lat="30.9316000" lon="35.2545300">
<ele>-188.479996</ele>
<time>2023-03-08T12:16:00.862Z</time>
</trkpt>
<trkpt lat="30.9314200" lon="35.2540300">
<ele>-189.000000</ele>
<time>2023-03-08T12:16:00.862Z</time>
</trkpt>
<trkpt lat="30.9312500" lon="35.2535200">
<ele>-186.509995</ele>
<time>2023-03-08T12:16:00.862Z</time>
</trkpt>
<trkpt lat="30.9310700" lon="35.2530200">
<ele>-184.020004</ele>
<time>2023-03-08T12:16:00.862Z</time>
</trkpt>
<trkpt lat="30.9310400" lon="35.2526600">
<ele>-180.680008</ele>
<time>2023-03-08T12:16:00.862Z</time>
</trkpt>
<trkpt lat="30.9308200" lon="35.2523800">
<ele>-181.190002</ele>
<time>2023-03-08T12:16:00.862Z</time>
</trkpt>
<trkpt lat="30.9304000" lon="35.2520600">
<ele>-177.550003</ele>
<time>2023-03-08T12:16:00.862Z</time>
</trkpt>
<trkpt lat="30.9299800" lon="35.2517400">
<ele>-174.159988</ele>
<time>2023-03-08T12:16:00.862Z</time>
</trkpt>
<trkpt lat="30.9295700" lon="35.2514200">
<ele>-169.989990</ele>
<time>2023-03-08T12:16:00.862Z</time>
</trkpt>
<trkpt lat="30.9291500" lon="35.2511000">
<ele>-168.910004</ele>
<time>2023-03-08T12:16:00.862Z</time>
</trkpt>
<trkpt lat="30.9287300" lon="35.2507800">
<ele>-172.919998</ele>
<time>2023-03-08T12:16:00.862Z</time>
</trkpt>
<trkpt lat="30.9283100" lon="35.2504600">
<ele>-176.860001</ele>
<time>2023-03-08T12:16:00.862Z</time>
</trkpt>
<trkpt lat="30.9279200" lon="35.2500900">
<ele>-176.479996</ele>
<time>2023-03-08T12:16:00.862Z</time>
</trkpt>
<trkpt lat="30.9275400" lon="35.2497200">
<ele>-178.410004</ele>
<time>2023-03-08T12:16:00.862Z</time>
</trkpt>
<trkpt lat="30.9271500" lon="35.2493400">
<ele>-173.220001</ele>
<time>2023-03-08T12:16:00.862Z</time>
</trkpt>
<trkpt lat="30.9267700" lon="35.2489700">
<ele>-172.259995</ele>
<time>2023-03-08T12:16:00.862Z</time>
</trkpt>
<trkpt lat="30.9263800" lon="35.2486000">
<ele>-176.839996</ele>
<time>2023-03-08T12:16:00.862Z</time>
</trkpt>
<trkpt lat="30.9260900" lon="35.2479500">
<ele>-178.849991</ele>
<time>2023-03-08T12:16:00.862Z</time>
</trkpt>
<trkpt lat="30.9260600" lon="35.2474800">
<ele>-175.669998</ele>
<time>2023-03-08T12:16:00.862Z</time>
</trkpt>
<trkpt lat="30.9261200" lon="35.2470700">
<ele>-173.309998</ele>
<time>2023-03-08T12:16:00.862Z</time>
</trkpt>
<trkpt lat="30.9262800" lon="35.2465400">
<ele>-169.660004</ele>
<time>2023-03-08T12:16:00.862Z</time>
</trkpt>
<trkpt lat="30.9264400" lon="35.2460200">
<ele>-171.840012</ele>
<time>2023-03-08T12:16:00.862Z</time>
</trkpt>
<trkpt lat="30.9264000" lon="35.2454400">
<ele>-174.660004</ele>
<time>2023-03-08T12:16:00.862Z</time>
</trkpt>
<trkpt lat="30.9263600" lon="35.2448500">
<ele>-173.270004</ele>
<time>2023-03-08T12:16:00.862Z</time>
</trkpt>
<trkpt lat="30.9262200" lon="35.2442200">
<ele>-171.750000</ele>
<time>2023-03-08T12:16:00.862Z</time>
</trkpt>
<trkpt lat="30.9263100" lon="35.2441200">
<ele>-171.520004</ele>
<time>2023-03-08T12:16:00.862Z</time>
</trkpt>
<trkpt lat="30.9263900" lon="35.2441500">
<ele>-170.989990</ele>
<time>2023-03-08T12:16:00.862Z</time>
</trkpt>
<trkpt lat="30.9265900" lon="35.2445200">
<ele>-168.509995</ele>
<time>2023-03-08T12:16:00.862Z</time>
</trkpt>
<trkpt lat="30.9267700" lon="35.2445700">
<ele>-163.210007</ele>
<time>2023-03-08T12:16:00.862Z</time>
</trkpt>
<trkpt lat="30.9271900" lon="35.2442100">
<ele>-152.300003</ele>
<time>2023-03-08T12:16:00.862Z</time>
</trkpt>
<trkpt lat="30.9276100" lon="35.2438500">
<ele>-146.279999</ele>
<time>2023-03-08T12:16:00.862Z</time>
</trkpt>
<trkpt lat="30.9280300" lon="35.2434900">
<ele>-142.720001</ele>
<time>2023-03-08T12:16:00.862Z</time>
</trkpt>
<trkpt lat="30.9286300" lon="35.2434000">
<ele>-119.820000</ele>
<time>2023-03-08T12:16:00.862Z</time>
</trkpt>
<trkpt lat="30.9286500" lon="35.2429000">
<ele>-121.279999</ele>
<time>2023-03-08T12:16:00.862Z</time>
</trkpt>
<trkpt lat="30.9292200" lon="35.2428600">
<ele>-112.539993</ele>
<time>2023-03-08T12:16:00.862Z</time>
</trkpt>
<trkpt lat="30.9297300" lon="35.2431700">
<ele>-111.609993</ele>
<time>2023-03-08T12:16:00.862Z</time>
</trkpt>
<trkpt lat="30.9299600" lon="35.2431300">
<ele>-116.700005</ele>
<time>2023-03-08T12:16:00.862Z</time>
</trkpt>
<trkpt lat="30.9301200" lon="35.2429600">
<ele>-116.260002</ele>
<time>2023-03-08T12:16:00.862Z</time>
</trkpt>
<trkpt lat="30.9302600" lon="35.2426000">
<ele>-115.450005</ele>
<time>2023-03-08T12:16:00.862Z</time>
</trkpt>
<trkpt lat="30.9302900" lon="35.2419700">
<ele>-113.190002</ele>
<time>2023-03-08T12:16:00.862Z</time>
</trkpt>
<trkpt lat="30.9303100" lon="35.2413500">
<ele>-106.250000</ele>
<time>2023-03-08T12:16:00.862Z</time>
</trkpt>
<trkpt lat="30.9304500" lon="35.2413300">
<ele>-104.340004</ele>
<time>2023-03-08T12:16:00.862Z</time>
</trkpt>
<trkpt lat="30.9309100" lon="35.2416300">
<ele>-105.940002</ele>
<time>2023-03-08T12:16:00.862Z</time>
</trkpt>
<trkpt lat="30.9312200" lon="35.2416300">
<ele>-108.059998</ele>
<time>2023-03-08T12:16:00.862Z</time>
</trkpt>
<trkpt lat="30.9313300" lon="35.2415600">
<ele>-108.779999</ele>
<time>2023-03-08T12:16:00.862Z</time>
</trkpt>
<trkpt lat="30.9315300" lon="35.2412300">
<ele>-107.619995</ele>
<time>2023-03-08T12:16:00.862Z</time>
</trkpt>
<trkpt lat="30.9321600" lon="35.2408100">
<ele>-109.220001</ele>
<time>2023-03-08T12:16:00.862Z</time>
</trkpt>
<trkpt lat="30.9329500" lon="35.2405800">
<ele>-108.010002</ele>
<time>2023-03-08T12:16:00.862Z</time>
</trkpt>
<trkpt lat="30.9333600" lon="35.2405500">
<ele>-104.269997</ele>
<time>2023-03-08T12:16:00.862Z</time>
</trkpt>
<trkpt lat="30.9339100" lon="35.2407600">
<ele>-100.000000</ele>
<time>2023-03-08T12:16:00.862Z</time>
</trkpt>
<trkpt lat="30.9343500" lon="35.2404800">
<ele>-108.170006</ele>
<time>2023-03-08T12:16:00.862Z</time>
</trkpt>
<trkpt lat="30.9345000" lon="35.2405100">
<ele>-112.940002</ele>
<time>2023-03-08T12:16:00.862Z</time>
</trkpt>
<trkpt lat="30.9348100" lon="35.2408600">
<ele>-121.130005</ele>
<time>2023-03-08T12:16:00.862Z</time>
</trkpt>
<trkpt lat="30.9348600" lon="35.2416200">
<ele>-127.070000</ele>
<time>2023-03-08T12:16:00.862Z</time>
</trkpt>
<trkpt lat="30.9349000" lon="35.2423800">
<ele>-128.430008</ele>
<time>2023-03-08T12:16:00.862Z</time>
</trkpt>
<trkpt lat="30.9356100" lon="35.2422500">
<ele>-128.860001</ele>
<time>2023-03-08T12:16:00.862Z</time>
</trkpt>
<trkpt lat="30.9360800" lon="35.2420800">
<ele>-128.080002</ele>
<time>2023-03-08T12:16:00.862Z</time>
</trkpt>
<trkpt lat="30.9365400" lon="35.2419100">
<ele>-131.809998</ele>
<time>2023-03-08T12:16:00.862Z</time>
</trkpt>
<trkpt lat="30.9372500" lon="35.2415000">
<ele>-127.940002</ele>
<time>2023-03-08T12:16:00.862Z</time>
</trkpt>
<trkpt lat="30.9377300" lon="35.2412900">
<ele>-124.529999</ele>
<time>2023-03-08T12:16:00.862Z</time>
</trkpt>
<trkpt lat="30.9382000" lon="35.2410800">
<ele>-121.240005</ele>
<time>2023-03-08T12:16:00.862Z</time>
</trkpt>
<trkpt lat="30.9386700" lon="35.2409800">
<ele>-121.799995</ele>
<time>2023-03-08T12:16:00.862Z</time>
</trkpt>
<trkpt lat="30.9391500" lon="35.2409700">
<ele>-122.520004</ele>
<time>2023-03-08T12:16:00.862Z</time>
</trkpt>
<trkpt lat="30.9396200" lon="35.2409500">
<ele>-117.730003</ele>
<time>2023-03-08T12:16:00.862Z</time>
</trkpt>
<trkpt lat="30.9401000" lon="35.2409400">
<ele>-117.160004</ele>
<time>2023-03-08T12:16:00.862Z</time>
</trkpt>
<trkpt lat="30.9405700" lon="35.2409200">
<ele>-115.340004</ele>
<time>2023-03-08T12:16:00.862Z</time>
</trkpt>
<trkpt lat="30.9410500" lon="35.2409100">
<ele>-111.500000</ele>
<time>2023-03-08T12:16:00.862Z</time>
</trkpt>
<trkpt lat="30.9414600" lon="35.2411300">
<ele>-108.020004</ele>
<time>2023-03-08T12:16:00.862Z</time>
</trkpt>
<trkpt lat="30.9420600" lon="35.2415900">
<ele>-111.779999</ele>
<time>2023-03-08T12:16:00.862Z</time>
</trkpt>
<trkpt lat="30.9425100" lon="35.2417200">
<ele>-112.219994</ele>
<time>2023-03-08T12:16:00.862Z</time>
</trkpt>
<trkpt lat="30.9429500" lon="35.2418500">
<ele>-103.659996</ele>
<time>2023-03-08T12:16:00.862Z</time>
</trkpt>
<trkpt lat="30.9434500" lon="35.2417600">
<ele>-100.270004</ele>
<time>2023-03-08T12:16:00.862Z</time>
</trkpt>
<trkpt lat="30.9439400" lon="35.2416700">
<ele>-102.540001</ele>
<time>2023-03-08T12:16:00.862Z</time>
</trkpt>
<trkpt lat="30.9444400" lon="35.2415800">
<ele>-107.309998</ele>
<time>2023-03-08T12:16:00.862Z</time>
</trkpt>
<trkpt lat="30.9450600" lon="35.2413400">
<ele>-103.450005</ele>
<time>2023-03-08T12:16:00.862Z</time>
</trkpt>
<trkpt lat="30.9456800" lon="35.2411000">
<ele>-100.129997</ele>
<time>2023-03-08T12:16:00.862Z</time>
</trkpt>
<trkpt lat="30.9461600" lon="35.2408700">
<ele>-99.690002</ele>
<time>2023-03-08T12:16:00.862Z</time>
</trkpt>
<trkpt lat="30.9466300" lon="35.2406400">
<ele>-102.479996</ele>
<time>2023-03-08T12:16:00.862Z</time>
</trkpt>
<trkpt lat="30.9471100" lon="35.2404100">
<ele>-98.850006</ele>
<time>2023-03-08T12:16:00.862Z</time>
</trkpt>
<trkpt lat="30.9473800" lon="35.2399700">
<ele>-100.760002</ele>
<time>2023-03-08T12:16:00.862Z</time>
</trkpt>
<trkpt lat="30.9475700" lon="35.2392400">
<ele>-104.129997</ele>
<time>2023-03-08T12:16:00.862Z</time>
</trkpt>
<trkpt lat="30.9478800" lon="35.2388000">
<ele>-104.230003</ele>
<time>2023-03-08T12:16:00.862Z</time>
</trkpt>
<trkpt lat="30.9479600" lon="35.2384500">
<ele>-100.540001</ele>
<time>2023-03-08T12:16:00.862Z</time>
</trkpt>
<trkpt lat="30.9479800" lon="35.2384600">
<ele>-100.700005</ele>
<time>2023-03-08T12:16:00.862Z</time>
</trkpt>
<trkpt lat="30.9480100" lon="35.2383100">
<ele>-98.870003</ele>
<time>2023-03-08T12:16:00.862Z</time>
</trkpt>
<trkpt lat="30.9480500" lon="35.2380500">
<ele>-97.059998</ele>
<time>2023-03-08T12:16:00.862Z</time>
</trkpt>
<trkpt lat="30.9480500" lon="35.2377700">
<ele>-97.030006</ele>
<time>2023-03-08T12:16:00.862Z</time>
</trkpt>
<trkpt lat="30.9481300" lon="35.2376000">
<ele>-96.610001</ele>
<time>2023-03-08T12:16:00.862Z</time>
</trkpt>
<trkpt lat="30.9483500" lon="35.2373400">
<ele>-99.310005</ele>
<time>2023-03-08T12:16:00.862Z</time>
</trkpt>
<trkpt lat="30.9481100" lon="35.2368100">
<ele>-97.889999</ele>
<time>2023-03-08T12:16:00.862Z</time>
</trkpt>
<trkpt lat="30.9479600" lon="35.2362700">
<ele>-92.669998</ele>
<time>2023-03-08T12:16:00.862Z</time>
</trkpt>
<trkpt lat="30.9479300" lon="35.2361300">
<ele>-91.589996</ele>
<time>2023-03-08T12:16:00.862Z</time>
</trkpt>
<trkpt lat="30.9477500" lon="35.2355700">
<ele>-88.400002</ele>
<time>2023-03-08T12:16:00.862Z</time>
</trkpt>
<trkpt lat="30.9475200" lon="35.2349100">
<ele>-87.070000</ele>
<time>2023-03-08T12:16:00.862Z</time>
</trkpt>
<trkpt lat="30.9471600" lon="35.2339800">
<ele>-85.549995</ele>
<time>2023-03-08T12:16:00.862Z</time>
</trkpt>
<trkpt lat="30.9470700" lon="35.2337000">
<ele>-85.180000</ele>
<time>2023-03-08T12:16:00.862Z</time>
</trkpt>
<trkpt lat="30.9467200" lon="35.2321000">
<ele>-82.449997</ele>
<time>2023-03-08T12:16:00.862Z</time>
</trkpt>
<trkpt lat="30.9466300" lon="35.2314900">
<ele>-85.109993</ele>
<time>2023-03-08T12:16:00.862Z</time>
</trkpt>
<trkpt lat="30.9466000" lon="35.2310600">
<ele>-89.019997</ele>
<time>2023-03-08T12:16:00.862Z</time>
</trkpt>
<trkpt lat="30.9466200" lon="35.2308300">
<ele>-87.820000</ele>
<time>2023-03-08T12:16:00.862Z</time>
</trkpt>
<trkpt lat="30.9467600" lon="35.2304500">
<ele>-83.070000</ele>
<time>2023-03-08T12:16:00.862Z</time>
</trkpt>
<trkpt lat="30.9467600" lon="35.2304500">
<ele>-83.070000</ele>
<time>2023-03-08T12:16:00.862Z</time>
</trkpt>
<trkpt lat="30.9468100" lon="35.2303300">
<ele>-82.029999</ele>
<time>2023-03-08T12:16:00.862Z</time>
</trkpt>
<trkpt lat="30.9468800" lon="35.2300500">
<ele>-82.570000</ele>
<time>2023-03-08T12:16:00.862Z</time>
</trkpt>
<trkpt lat="30.9469200" lon="35.2298600">
<ele>-82.900002</ele>
<time>2023-03-08T12:16:00.862Z</time>
</trkpt>
<trkpt lat="30.9469500" lon="35.2295100">
<ele>-84.470001</ele>
<time>2023-03-08T12:16:00.862Z</time>
</trkpt>
<trkpt lat="30.9468800" lon="35.2293400">
<ele>-86.419998</ele>
<time>2023-03-08T12:16:00.862Z</time>
</trkpt>
<trkpt lat="30.9468300" lon="35.2292200">
<ele>-87.270004</ele>
<time>2023-03-08T12:16:00.862Z</time>
</trkpt>
<trkpt lat="30.9467300" lon="35.2288200">
<ele>-87.070000</ele>
<time>2023-03-08T12:16:00.862Z</time>
</trkpt>
<trkpt lat="30.9467500" lon="35.2281800">
<ele>-77.290001</ele>
<time>2023-03-08T12:16:00.862Z</time>
</trkpt>
<trkpt lat="30.9467700" lon="35.2280100">
<ele>-75.820000</ele>
<time>2023-03-08T12:16:00.862Z</time>
</trkpt>
<trkpt lat="30.9468900" lon="35.2277700">
<ele>-72.889999</ele>
<time>2023-03-08T12:16:00.862Z</time>
</trkpt>
<trkpt lat="30.9469800" lon="35.2274700">
<ele>-69.040001</ele>
<time>2023-03-08T12:16:00.862Z</time>
</trkpt>
<trkpt lat="30.9470800" lon="35.2272800">
<ele>-68.389999</ele>
<time>2023-03-08T12:16:00.862Z</time>
</trkpt>
<trkpt lat="30.9472200" lon="35.2270800">
<ele>-66.939995</ele>
<time>2023-03-08T12:16:00.862Z</time>
</trkpt>
<trkpt lat="30.9475700" lon="35.2267600">
<ele>-67.870003</ele>
<time>2023-03-08T12:16:00.862Z</time>
</trkpt>
<trkpt lat="30.9477500" lon="35.2265400">
<ele>-65.900002</ele>
<time>2023-03-08T12:16:00.862Z</time>
</trkpt>
<trkpt lat="30.9478200" lon="35.2264300">
<ele>-62.860001</ele>
<time>2023-03-08T12:16:00.862Z</time>
</trkpt>
<trkpt lat="30.9480100" lon="35.2260200">
<ele>-58.130001</ele>
<time>2023-03-08T12:16:00.862Z</time>
</trkpt>
<trkpt lat="30.9482700" lon="35.2256700">
<ele>-61.090000</ele>
<time>2023-03-08T12:16:00.862Z</time>
</trkpt>
<trkpt lat="30.9484400" lon="35.2252600">
<ele>-58.680000</ele>
<time>2023-03-08T12:16:00.862Z</time>
</trkpt>
<trkpt lat="30.9487900" lon="35.2246000">
<ele>-52.040001</ele>
<time>2023-03-08T12:16:00.862Z</time>
</trkpt>
<trkpt lat="30.9488300" lon="35.2244100">
<ele>-49.939999</ele>
<time>2023-03-08T12:16:00.862Z</time>
</trkpt>
<trkpt lat="30.9488200" lon="35.2242100">
<ele>-48.350002</ele>
<time>2023-03-08T12:16:00.862Z</time>
</trkpt>
<trkpt lat="30.9487700" lon="35.2239700">
<ele>-45.770000</ele>
<time>2023-03-08T12:16:00.862Z</time>
</trkpt>
<trkpt lat="30.9487300" lon="35.2238500">
<ele>-44.759998</ele>
<time>2023-03-08T12:16:00.862Z</time>
</trkpt>
<trkpt lat="30.9485700" lon="35.2233600">
<ele>-44.049999</ele>
<time>2023-03-08T12:16:00.862Z</time>
</trkpt>
<trkpt lat="30.9484500" lon="35.2228100">
<ele>-39.809998</ele>
<time>2023-03-08T12:16:00.862Z</time>
</trkpt>
<trkpt lat="30.9483700" lon="35.2225300">
<ele>-37.220001</ele>
<time>2023-03-08T12:16:00.862Z</time>
</trkpt>
<trkpt lat="30.9482600" lon="35.2222700">
<ele>-34.079998</ele>
<time>2023-03-08T12:16:00.862Z</time>
</trkpt>
<trkpt lat="30.9480200" lon="35.2218000">
<ele>-30.059999</ele>
<time>2023-03-08T12:16:00.862Z</time>
</trkpt>
<trkpt lat="30.9479400" lon="35.2215500">
<ele>-26.449999</ele>
<time>2023-03-08T12:16:00.862Z</time>
</trkpt>
<trkpt lat="30.9478400" lon="35.2211100">
<ele>-16.320000</ele>
<time>2023-03-08T12:16:00.862Z</time>
</trkpt>
<trkpt lat="30.9477800" lon="35.2209700">
<ele>-12.000000</ele>
<time>2023-03-08T12:16:00.862Z</time>
</trkpt>
<trkpt lat="30.9477300" lon="35.2209200">
<ele>-11.230000</ele>
<time>2023-03-08T12:16:00.862Z</time>
</trkpt>
<trkpt lat="30.9476800" lon="35.2208900">
<ele>-11.060000</ele>
<time>2023-03-08T12:16:00.862Z</time>
</trkpt>
<trkpt lat="30.9474500" lon="35.2208200">
<ele>-12.630000</ele>
<time>2023-03-08T12:16:00.862Z</time>
</trkpt>
<trkpt lat="30.9472000" lon="35.2207000">
<ele>-15.719999</ele>
<time>2023-03-08T12:16:00.862Z</time>
</trkpt>
<trkpt lat="30.9469000" lon="35.2206000">
<ele>-17.910000</ele>
<time>2023-03-08T12:16:00.862Z</time>
</trkpt>
<trkpt lat="30.9464100" lon="35.2204000">
<ele>-14.400001</ele>
<time>2023-03-08T12:16:00.862Z</time>
</trkpt>
<trkpt lat="30.9463800" lon="35.2203800">
<ele>-14.170000</ele>
<time>2023-03-08T12:16:00.862Z</time>
</trkpt>
<trkpt lat="30.9463800" lon="35.2203800">
<ele>-14.170000</ele>
<time>2023-03-08T12:16:00.862Z</time>
</trkpt>
<trkpt lat="30.9462500" lon="35.2202800">
<ele>-14.020000</ele>
<time>2023-03-08T12:16:00.862Z</time>
</trkpt>
<trkpt lat="30.9458000" lon="35.2198400">
<ele>-17.629999</ele>
<time>2023-03-08T12:16:00.862Z</time>
</trkpt>
<trkpt lat="30.9456000" lon="35.2196800">
<ele>-17.940001</ele>
<time>2023-03-08T12:16:00.862Z</time>
</trkpt>
<trkpt lat="30.9449900" lon="35.2194800">
<ele>-17.350000</ele>
<time>2023-03-08T12:16:00.862Z</time>
</trkpt>
<trkpt lat="30.9448900" lon="35.2194800">
<ele>-18.340000</ele>
<time>2023-03-08T12:16:00.862Z</time>
</trkpt>
<trkpt lat="30.9446300" lon="35.2195200">
<ele>-20.000000</ele>
<time>2023-03-08T12:16:00.862Z</time>
</trkpt>
<trkpt lat="30.9445500" lon="35.2195200">
<ele>-20.000000</ele>
<time>2023-03-08T12:16:00.862Z</time>
</trkpt>
<trkpt lat="30.9444600" lon="35.2194700">
<ele>-20.000000</ele>
<time>2023-03-08T12:16:00.862Z</time>
</trkpt>
<trkpt lat="30.9443600" lon="35.2193700">
<ele>-20.570000</ele>
<time>2023-03-08T12:16:00.862Z</time>
</trkpt>
<trkpt lat="30.9443400" lon="35.2193100">
<ele>-20.860001</ele>
<time>2023-03-08T12:16:00.862Z</time>
</trkpt>
<trkpt lat="30.9443200" lon="35.2192200">
<ele>-21.260000</ele>
<time>2023-03-08T12:16:00.862Z</time>
</trkpt>
<trkpt lat="30.9443300" lon="35.2191500">
<ele>-21.349998</ele>
<time>2023-03-08T12:16:00.862Z</time>
</trkpt>
<trkpt lat="30.9444500" lon="35.2189100">
<ele>-20.040001</ele>
<time>2023-03-08T12:16:00.862Z</time>
</trkpt>
<trkpt lat="30.9445100" lon="35.2187500">
<ele>-19.410000</ele>
<time>2023-03-08T12:16:00.862Z</time>
</trkpt>
<trkpt lat="30.9445300" lon="35.2185600">
<ele>-18.709999</ele>
<time>2023-03-08T12:16:00.862Z</time>
</trkpt>
<trkpt lat="30.9445100" lon="35.2184500">
<ele>-18.130001</ele>
<time>2023-03-08T12:16:00.862Z</time>
</trkpt>
<trkpt lat="30.9444200" lon="35.2182800">
<ele>-17.660000</ele>
<time>2023-03-08T12:16:00.862Z</time>
</trkpt>
<trkpt lat="30.9442200" lon="35.2180100">
<ele>-20.660000</ele>
<time>2023-03-08T12:16:00.862Z</time>
</trkpt>
<trkpt lat="30.9441000" lon="35.2177200">
<ele>-24.710001</ele>
<time>2023-03-08T12:16:00.862Z</time>
</trkpt>
<trkpt lat="30.9440400" lon="35.2176200">
<ele>-25.840000</ele>
<time>2023-03-08T12:16:00.862Z</time>
</trkpt>
<trkpt lat="30.9440000" lon="35.2175800">
<ele>-26.799999</ele>
<time>2023-03-08T12:16:00.862Z</time>
</trkpt>
<trkpt lat="30.9439500" lon="35.2175800">
<ele>-27.850000</ele>
<time>2023-03-08T12:16:00.862Z</time>
</trkpt>
<trkpt lat="30.9439100" lon="35.2176000">
<ele>-28.500000</ele>
<time>2023-03-08T12:16:00.862Z</time>
</trkpt>
<trkpt lat="30.9437200" lon="35.2176100">
<ele>-32.220001</ele>
<time>2023-03-08T12:16:00.862Z</time>
</trkpt>
<trkpt lat="30.9435600" lon="35.2175600">
<ele>-35.029999</ele>
<time>2023-03-08T12:16:00.862Z</time>
</trkpt>
<trkpt lat="30.9435100" lon="35.2175400">
<ele>-35.160000</ele>
<time>2023-03-08T12:16:00.862Z</time>
</trkpt>
<trkpt lat="30.9433900" lon="35.2175300">
<ele>-34.939999</ele>
<time>2023-03-08T12:16:00.862Z</time>
</trkpt>
<trkpt lat="30.9431700" lon="35.2174600">
<ele>-37.630001</ele>
<time>2023-03-08T12:16:00.862Z</time>
</trkpt>
<trkpt lat="30.9430300" lon="35.2173600">
<ele>-39.039997</ele>
<time>2023-03-08T12:16:00.862Z</time>
</trkpt>
<trkpt lat="30.9428800" lon="35.2173400">
<ele>-42.060001</ele>
<time>2023-03-08T12:16:00.862Z</time>
</trkpt>
<trkpt lat="30.9426900" lon="35.2173500">
<ele>-45.620003</ele>
<time>2023-03-08T12:16:00.862Z</time>
</trkpt>
<trkpt lat="30.9424200" lon="35.2172700">
<ele>-48.339996</ele>
<time>2023-03-08T12:16:00.862Z</time>
</trkpt>
<trkpt lat="30.9422500" lon="35.2172600">
<ele>-51.469997</ele>
<time>2023-03-08T12:16:00.862Z</time>
</trkpt>
<trkpt lat="30.9419900" lon="35.2173000">
<ele>-61.330002</ele>
<time>2023-03-08T12:16:00.862Z</time>
</trkpt>
<trkpt lat="30.9418800" lon="35.2172900">
<ele>-65.360001</ele>
<time>2023-03-08T12:16:00.862Z</time>
</trkpt>
<trkpt lat="30.9416800" lon="35.2172100">
<ele>-72.349998</ele>
<time>2023-03-08T12:16:00.862Z</time>
</trkpt>
<trkpt lat="30.9416100" lon="35.2171900">
<ele>-73.029999</ele>
<time>2023-03-08T12:16:00.862Z</time>
</trkpt>
<trkpt lat="30.9414500" lon="35.2172400">
<ele>-75.250000</ele>
<time>2023-03-08T12:16:00.862Z</time>
</trkpt>
<trkpt lat="30.9412400" lon="35.2173800">
<ele>-74.970001</ele>
<time>2023-03-08T12:16:00.862Z</time>
</trkpt>
<trkpt lat="30.9411900" lon="35.2174000">
<ele>-74.839996</ele>
<time>2023-03-08T12:16:00.862Z</time>
</trkpt>
<trkpt lat="30.9410500" lon="35.2173200">
<ele>-73.989998</ele>
<time>2023-03-08T12:16:00.862Z</time>
</trkpt>
<trkpt lat="30.9409300" lon="35.2173300">
<ele>-73.339996</ele>
<time>2023-03-08T12:16:00.862Z</time>
</trkpt>
<trkpt lat="30.9408000" lon="35.2172800">
<ele>-72.400002</ele>
<time>2023-03-08T12:16:00.862Z</time>
</trkpt>
<trkpt lat="30.9406600" lon="35.2173100">
<ele>-72.799995</ele>
<time>2023-03-08T12:16:00.862Z</time>
</trkpt>
<trkpt lat="30.9406100" lon="35.2173500">
<ele>-73.599998</ele>
<time>2023-03-08T12:16:00.862Z</time>
</trkpt>
<trkpt lat="30.9405600" lon="35.2173700">
<ele>-74.169998</ele>
<time>2023-03-08T12:16:00.862Z</time>
</trkpt>
<trkpt lat="30.9405000" lon="35.2173800">
<ele>-75.519997</ele>
<time>2023-03-08T12:16:00.862Z</time>
</trkpt>
<trkpt lat="30.9402900" lon="35.2173400">
<ele>-78.730003</ele>
<time>2023-03-08T12:16:00.862Z</time>
</trkpt>
<trkpt lat="30.9402100" lon="35.2173600">
<ele>-81.430000</ele>
<time>2023-03-08T12:16:00.862Z</time>
</trkpt>
<trkpt lat="30.9401300" lon="35.2173900">
<ele>-84.260002</ele>
<time>2023-03-08T12:16:00.862Z</time>
</trkpt>
<trkpt lat="30.9400100" lon="35.2175000">
<ele>-88.780006</ele>
<time>2023-03-08T12:16:00.862Z</time>
</trkpt>
<trkpt lat="30.9399700" lon="35.2175800">
<ele>-89.529999</ele>
<time>2023-03-08T12:16:00.862Z</time>
</trkpt>
<trkpt lat="30.9399300" lon="35.2177500">
<ele>-91.000000</ele>
<time>2023-03-08T12:16:00.862Z</time>
</trkpt>
<trkpt lat="30.9399400" lon="35.2180400">
<ele>-96.010002</ele>
<time>2023-03-08T12:16:00.862Z</time>
</trkpt>
<trkpt lat="30.9399000" lon="35.2182300">
<ele>-96.529999</ele>
<time>2023-03-08T12:16:00.862Z</time>
</trkpt>
<trkpt lat="30.9398400" lon="35.2184100">
<ele>-96.120003</ele>
<time>2023-03-08T12:16:00.862Z</time>
</trkpt>
<trkpt lat="30.9397400" lon="35.2185600">
<ele>-96.250008</ele>
<time>2023-03-08T12:16:00.862Z</time>
</trkpt>
<trkpt lat="30.9397100" lon="35.2185800">
<ele>-96.620003</ele>
<time>2023-03-08T12:16:00.862Z</time>
</trkpt>
<trkpt lat="30.9396500" lon="35.2186500">
<ele>-95.989998</ele>
<time>2023-03-08T12:16:00.862Z</time>
</trkpt>
<trkpt lat="30.9394900" lon="35.2187200">
<ele>-96.860001</ele>
<time>2023-03-08T12:16:00.862Z</time>
</trkpt>
<trkpt lat="30.9392900" lon="35.2187300">
<ele>-99.889999</ele>
<time>2023-03-08T12:16:00.862Z</time>
</trkpt>
<trkpt lat="30.9392900" lon="35.2187300">
<ele>-99.889999</ele>
<time>2023-03-08T12:16:00.862Z</time>
</trkpt>
<trkpt lat="30.9391400" lon="35.2187400">
<ele>-101.910004</ele>
<time>2023-03-08T12:16:00.862Z</time>
</trkpt>
<trkpt lat="30.9389100" lon="35.2188000">
<ele>-103.410004</ele>
<time>2023-03-08T12:16:00.862Z</time>
</trkpt>
<trkpt lat="30.9387600" lon="35.2187900">
<ele>-105.839996</ele>
<time>2023-03-08T12:16:00.862Z</time>
</trkpt>
<trkpt lat="30.9386700" lon="35.2188100">
<ele>-107.400002</ele>
<time>2023-03-08T12:16:00.862Z</time>
</trkpt>
<trkpt lat="30.9386000" lon="35.2188700">
<ele>-108.950005</ele>
<time>2023-03-08T12:16:00.862Z</time>
</trkpt>
<trkpt lat="30.9384700" lon="35.2190400">
<ele>-108.950005</ele>
<time>2023-03-08T12:16:00.862Z</time>
</trkpt>
<trkpt lat="30.9384100" lon="35.2191400">
<ele>-109.449997</ele>
<time>2023-03-08T12:16:00.862Z</time>
</trkpt>
<trkpt lat="30.9383600" lon="35.2192900">
<ele>-108.650002</ele>
<time>2023-03-08T12:16:00.862Z</time>
</trkpt>
<trkpt lat="30.9383100" lon="35.2193600">
<ele>-108.500000</ele>
<time>2023-03-08T12:16:00.862Z</time>
</trkpt>
<trkpt lat="30.9381800" lon="35.2194600">
<ele>-109.050003</ele>
<time>2023-03-08T12:16:00.862Z</time>
</trkpt>
<trkpt lat="30.9380100" lon="35.2194700">
<ele>-112.160004</ele>
<time>2023-03-08T12:16:00.862Z</time>
</trkpt>
<trkpt lat="30.9377700" lon="35.2194000">
<ele>-118.619995</ele>
<time>2023-03-08T12:16:00.862Z</time>
</trkpt>
<trkpt lat="30.9373900" lon="35.2193600">
<ele>-113.289993</ele>
<time>2023-03-08T12:16:00.862Z</time>
</trkpt>
<trkpt lat="30.9370900" lon="35.2193800">
<ele>-109.580002</ele>
<time>2023-03-08T12:16:00.862Z</time>
</trkpt>
<trkpt lat="30.9369000" lon="35.2194300">
<ele>-110.809998</ele>
<time>2023-03-08T12:16:00.862Z</time>
</trkpt>
<trkpt lat="30.9368100" lon="35.2194200">
<ele>-112.680000</ele>
<time>2023-03-08T12:16:00.862Z</time>
</trkpt>
<trkpt lat="30.9366800" lon="35.2193600">
<ele>-115.089996</ele>
<time>2023-03-08T12:16:00.862Z</time>
</trkpt>
<trkpt lat="30.9364800" lon="35.2192300">
<ele>-116.629997</ele>
<time>2023-03-08T12:16:00.862Z</time>
</trkpt>
<trkpt lat="30.9364100" lon="35.2192000">
<ele>-117.120003</ele>
<time>2023-03-08T12:16:00.862Z</time>
</trkpt>
<trkpt lat="30.9361600" lon="35.2192100">
<ele>-118.729996</ele>
<time>2023-03-08T12:16:00.862Z</time>
</trkpt>
<trkpt lat="30.9359700" lon="35.2191900">
<ele>-119.040001</ele>
<time>2023-03-08T12:16:00.862Z</time>
</trkpt>
<trkpt lat="30.9358800" lon="35.2191600">
<ele>-118.980003</ele>
<time>2023-03-08T12:16:00.862Z</time>
</trkpt>
<trkpt lat="30.9356800" lon="35.2190500">
<ele>-117.809998</ele>
<time>2023-03-08T12:16:00.862Z</time>
</trkpt>
<trkpt lat="30.9356000" lon="35.2190500">
<ele>-117.190002</ele>
<time>2023-03-08T12:16:00.862Z</time>
</trkpt>
<trkpt lat="30.9354900" lon="35.2191100">
<ele>-115.510002</ele>
<time>2023-03-08T12:16:00.862Z</time>
</trkpt>
<trkpt lat="30.9353400" lon="35.2192500">
<ele>-113.439995</ele>
<time>2023-03-08T12:16:00.862Z</time>
</trkpt>
<trkpt lat="30.9351700" lon="35.2195300">
<ele>-111.989998</ele>
<time>2023-03-08T12:16:00.862Z</time>
</trkpt>
<trkpt lat="30.9350600" lon="35.2198000">
<ele>-112.590004</ele>
<time>2023-03-08T12:16:00.862Z</time>
</trkpt>
<trkpt lat="30.9349100" lon="35.2200100">
<ele>-114.479996</ele>
<time>2023-03-08T12:16:00.862Z</time>
</trkpt>
<trkpt lat="30.9348400" lon="35.2200500">
<ele>-114.459999</ele>
<time>2023-03-08T12:16:00.862Z</time>
</trkpt>
<trkpt lat="30.9347800" lon="35.2200500">
<ele>-113.989998</ele>
<time>2023-03-08T12:16:00.862Z</time>
</trkpt>
<trkpt lat="30.9347000" lon="35.2200400">
<ele>-113.639999</ele>
<time>2023-03-08T12:16:00.862Z</time>
</trkpt>
<trkpt lat="30.9346600" lon="35.2200100">
<ele>-113.589996</ele>
<time>2023-03-08T12:16:00.862Z</time>
</trkpt>
<trkpt lat="30.9344300" lon="35.2196100">
<ele>-110.859993</ele>
<time>2023-03-08T12:16:00.862Z</time>
</trkpt>
<trkpt lat="30.9343300" lon="35.2192800">
<ele>-110.730003</ele>
<time>2023-03-08T12:16:00.862Z</time>
</trkpt>
<trkpt lat="30.9341000" lon="35.2191600">
<ele>-110.910004</ele>
<time>2023-03-08T12:16:00.862Z</time>
</trkpt>
<trkpt lat="30.9339400" lon="35.2190100">
<ele>-111.680000</ele>
<time>2023-03-08T12:16:00.862Z</time>
</trkpt>
<trkpt lat="30.9338700" lon="35.2189200">
<ele>-111.479996</ele>
<time>2023-03-08T12:16:00.862Z</time>
</trkpt>
<trkpt lat="30.9338100" lon="35.2187500">
<ele>-110.139999</ele>
<time>2023-03-08T12:16:00.862Z</time>
</trkpt>
<trkpt lat="30.9337700" lon="35.2186900">
<ele>-109.500008</ele>
<time>2023-03-08T12:16:00.862Z</time>
</trkpt>
<trkpt lat="30.9334000" lon="35.2183900">
<ele>-107.099998</ele>
<time>2023-03-08T12:16:00.862Z</time>
</trkpt>
<trkpt lat="30.9332400" lon="35.2182200">
<ele>-105.779999</ele>
<time>2023-03-08T12:16:00.862Z</time>
</trkpt>
<trkpt lat="30.9331800" lon="35.2180600">
<ele>-104.050003</ele>
<time>2023-03-08T12:16:00.862Z</time>
</trkpt>
<trkpt lat="30.9331400" lon="35.2178800">
<ele>-103.369995</ele>
<time>2023-03-08T12:16:00.862Z</time>
</trkpt>
<trkpt lat="30.9330900" lon="35.2177900">
<ele>-103.040001</ele>
<time>2023-03-08T12:16:00.862Z</time>
</trkpt>
<trkpt lat="30.9328800" lon="35.2174400">
<ele>-102.589996</ele>
<time>2023-03-08T12:16:00.862Z</time>
</trkpt>
<trkpt lat="30.9327100" lon="35.2172300">
<ele>-100.329994</ele>
<time>2023-03-08T12:16:00.862Z</time>
</trkpt>
<trkpt lat="30.9326900" lon="35.2171700">
<ele>-99.750008</ele>
<time>2023-03-08T12:16:00.862Z</time>
</trkpt>
<trkpt lat="30.9327100" lon="35.2169700">
<ele>-97.520004</ele>
<time>2023-03-08T12:16:00.862Z</time>
</trkpt>
<trkpt lat="30.9326900" lon="35.2168900">
<ele>-97.050003</ele>
<time>2023-03-08T12:16:00.862Z</time>
</trkpt>
<trkpt lat="30.9326500" lon="35.2168400">
<ele>-97.050003</ele>
<time>2023-03-08T12:16:00.862Z</time>
</trkpt>
<trkpt lat="30.9326000" lon="35.2168100">
<ele>-97.289993</ele>
<time>2023-03-08T12:16:00.862Z</time>
</trkpt>
<trkpt lat="30.9322800" lon="35.2167300">
<ele>-102.750000</ele>
<time>2023-03-08T12:16:00.862Z</time>
</trkpt>
<trkpt lat="30.9322000" lon="35.2167300">
<ele>-103.919998</ele>
<time>2023-03-08T12:16:00.862Z</time>
</trkpt>
<trkpt lat="30.9320300" lon="35.2167800">
<ele>-103.309998</ele>
<time>2023-03-08T12:16:00.862Z</time>
</trkpt>
<trkpt lat="30.9317500" lon="35.2169500">
<ele>-102.410004</ele>
<time>2023-03-08T12:16:00.862Z</time>
</trkpt>
<trkpt lat="30.9316300" lon="35.2169500">
<ele>-102.490005</ele>
<time>2023-03-08T12:16:00.862Z</time>
</trkpt>
<trkpt lat="30.9315800" lon="35.2169000">
<ele>-102.849998</ele>
<time>2023-03-08T12:16:00.862Z</time>
</trkpt>
<trkpt lat="30.9315200" lon="35.2166600">
<ele>-101.880005</ele>
<time>2023-03-08T12:16:00.862Z</time>
</trkpt>
<trkpt lat="30.9314400" lon="35.2165600">
<ele>-100.290001</ele>
<time>2023-03-08T12:16:00.862Z</time>
</trkpt>
<trkpt lat="30.9313400" lon="35.2164900">
<ele>-99.379997</ele>
<time>2023-03-08T12:16:00.862Z</time>
</trkpt>
<trkpt lat="30.9311600" lon="35.2164100">
<ele>-99.809998</ele>
<time>2023-03-08T12:16:00.862Z</time>
</trkpt>
<trkpt lat="30.9311100" lon="35.2164000">
<ele>-100.080002</ele>
<time>2023-03-08T12:16:00.862Z</time>
</trkpt>
<trkpt lat="30.9310500" lon="35.2164000">
<ele>-100.080002</ele>
<time>2023-03-08T12:16:00.862Z</time>
</trkpt>
<trkpt lat="30.9308800" lon="35.2164600">
<ele>-100.510002</ele>
<time>2023-03-08T12:16:00.862Z</time>
</trkpt>
<trkpt lat="30.9307600" lon="35.2164500">
<ele>-100.440002</ele>
<time>2023-03-08T12:16:00.862Z</time>
</trkpt>
<trkpt lat="30.9306400" lon="35.2163900">
<ele>-100.009995</ele>
<time>2023-03-08T12:16:00.862Z</time>
</trkpt>
<trkpt lat="30.9305200" lon="35.2162700">
<ele>-99.320000</ele>
<time>2023-03-08T12:16:00.862Z</time>
</trkpt>
<trkpt lat="30.9304000" lon="35.2160800">
<ele>-97.770004</ele>
<time>2023-03-08T12:16:00.862Z</time>
</trkpt>
<trkpt lat="30.9303700" lon="35.2160000">
<ele>-97.259995</ele>
<time>2023-03-08T12:16:00.862Z</time>
</trkpt>
<trkpt lat="30.9303300" lon="35.2158400">
<ele>-96.400002</ele>
<time>2023-03-08T12:16:00.862Z</time>
</trkpt>
<trkpt lat="30.9302600" lon="35.2156800">
<ele>-95.580002</ele>
<time>2023-03-08T12:16:00.862Z</time>
</trkpt>
<trkpt lat="30.9301200" lon="35.2155000">
<ele>-96.019997</ele>
<time>2023-03-08T12:16:00.862Z</time>
</trkpt>
<trkpt lat="30.9300700" lon="35.2154200">
<ele>-96.130005</ele>
<time>2023-03-08T12:16:00.862Z</time>
</trkpt>
<trkpt lat="30.9299500" lon="35.2153000">
<ele>-95.909996</ele>
<time>2023-03-08T12:16:00.862Z</time>
</trkpt>
<trkpt lat="30.9298800" lon="35.2152000">
<ele>-94.730003</ele>
<time>2023-03-08T12:16:00.862Z</time>
</trkpt>
<trkpt lat="30.9298100" lon="35.2150600">
<ele>-92.959999</ele>
<time>2023-03-08T12:16:00.862Z</time>
</trkpt>
<trkpt lat="30.9297400" lon="35.2148300">
<ele>-92.059998</ele>
<time>2023-03-08T12:16:00.862Z</time>
</trkpt>
<trkpt lat="30.9295500" lon="35.2146600">
<ele>-90.879997</ele>
<time>2023-03-08T12:16:00.862Z</time>
</trkpt>
<trkpt lat="30.9294200" lon="35.2144700">
<ele>-88.269997</ele>
<time>2023-03-08T12:16:00.862Z</time>
</trkpt>
<trkpt lat="30.9292800" lon="35.2141200">
<ele>-86.550003</ele>
<time>2023-03-08T12:16:00.862Z</time>
</trkpt>
<trkpt lat="30.9292200" lon="35.2140900">
<ele>-86.929993</ele>
<time>2023-03-08T12:16:00.862Z</time>
</trkpt>
<trkpt lat="30.9291100" lon="35.2141100">
<ele>-87.820000</ele>
<time>2023-03-08T12:16:00.862Z</time>
</trkpt>
<trkpt lat="30.9289600" lon="35.2141100">
<ele>-89.440002</ele>
<time>2023-03-08T12:16:00.862Z</time>
</trkpt>
<trkpt lat="30.9288400" lon="35.2140600">
<ele>-90.780006</ele>
<time>2023-03-08T12:16:00.862Z</time>
</trkpt>
<trkpt lat="30.9287600" lon="35.2139700">
<ele>-91.440002</ele>
<time>2023-03-08T12:16:00.862Z</time>
</trkpt>
<trkpt lat="30.9287300" lon="35.2139100">
<ele>-91.580002</ele>
<time>2023-03-08T12:16:00.862Z</time>
</trkpt>
<trkpt lat="30.9287000" lon="35.2137700">
<ele>-91.099998</ele>
<time>2023-03-08T12:16:00.862Z</time>
</trkpt>
<trkpt lat="30.9286600" lon="35.2137000">
<ele>-90.699997</ele>
<time>2023-03-08T12:16:00.862Z</time>
</trkpt>
<trkpt lat="30.9285800" lon="35.2136300">
<ele>-90.150002</ele>
<time>2023-03-08T12:16:00.862Z</time>
</trkpt>
<trkpt lat="30.9284600" lon="35.2135800">
<ele>-89.939995</ele>
<time>2023-03-08T12:16:00.862Z</time>
</trkpt>
<trkpt lat="30.9284100" lon="35.2135300">
<ele>-89.790001</ele>
<time>2023-03-08T12:16:00.862Z</time>
</trkpt>
<trkpt lat="30.9283600" lon="35.2134500">
<ele>-89.479996</ele>
<time>2023-03-08T12:16:00.862Z</time>
</trkpt>
<trkpt lat="30.9283100" lon="35.2133300">
<ele>-89.229996</ele>
<time>2023-03-08T12:16:00.862Z</time>
</trkpt>
<trkpt lat="30.9283000" lon="35.2133200">
<ele>-89.260002</ele>
<time>2023-03-08T12:16:00.862Z</time>
</trkpt>
<trkpt lat="30.9283000" lon="35.2133200">
<ele>-89.260002</ele>
<time>2023-03-08T12:16:00.862Z</time>
</trkpt>
<trkpt lat="30.9283100" lon="35.2133300">
<ele>-89.229996</ele>
<time>2023-03-08T12:16:00.862Z</time>
</trkpt>
<trkpt lat="30.9282500" lon="35.2131800">
<ele>-88.630005</ele>
<time>2023-03-08T12:16:00.862Z</time>
</trkpt>
<trkpt lat="30.9281800" lon="35.2128600">
<ele>-87.399994</ele>
<time>2023-03-08T12:16:00.862Z</time>
</trkpt>
<trkpt lat="30.9281700" lon="35.2127400">
<ele>-87.389999</ele>
<time>2023-03-08T12:16:00.862Z</time>
</trkpt>
<trkpt lat="30.9281200" lon="35.2126400">
<ele>-88.409996</ele>
<time>2023-03-08T12:16:00.862Z</time>
</trkpt>
<trkpt lat="30.9281700" lon="35.2123000">
<ele>-89.059998</ele>
<time>2023-03-08T12:16:00.862Z</time>
</trkpt>
<trkpt lat="30.9281500" lon="35.2122000">
<ele>-89.320000</ele>
<time>2023-03-08T12:16:00.862Z</time>
</trkpt>
<trkpt lat="30.9281100" lon="35.2121000">
<ele>-89.610001</ele>
<time>2023-03-08T12:16:00.862Z</time>
</trkpt>
<trkpt lat="30.9278200" lon="35.2118600">
<ele>-89.440002</ele>
<time>2023-03-08T12:16:00.862Z</time>
</trkpt>
<trkpt lat="30.9277200" lon="35.2117300">
<ele>-88.459999</ele>
<time>2023-03-08T12:16:00.862Z</time>
</trkpt>
<trkpt lat="30.9276700" lon="35.2116000">
<ele>-87.669998</ele>
<time>2023-03-08T12:16:00.862Z</time>
</trkpt>
<trkpt lat="30.9276600" lon="35.2114200">
<ele>-86.739998</ele>
<time>2023-03-08T12:16:00.862Z</time>
</trkpt>
<trkpt lat="30.9276100" lon="35.2113000">
<ele>-85.559998</ele>
<time>2023-03-08T12:16:00.862Z</time>
</trkpt>
<trkpt lat="30.9276000" lon="35.2112200">
<ele>-84.750000</ele>
<time>2023-03-08T12:16:00.862Z</time>
</trkpt>
<trkpt lat="30.9275300" lon="35.2106000">
<ele>-77.800003</ele>
<time>2023-03-08T12:16:00.862Z</time>
</trkpt>
<trkpt lat="30.9274300" lon="35.2100600">
<ele>-76.010002</ele>
<time>2023-03-08T12:16:00.862Z</time>
</trkpt>
<trkpt lat="30.9274300" lon="35.2099400">
<ele>-76.500000</ele>
<time>2023-03-08T12:16:00.862Z</time>
</trkpt>
<trkpt lat="30.9273900" lon="35.2098900">
<ele>-78.120003</ele>
<time>2023-03-08T12:16:00.862Z</time>
</trkpt>
<trkpt lat="30.9272000" lon="35.2098900">
<ele>-83.790001</ele>
<time>2023-03-08T12:16:00.862Z</time>
</trkpt>
<trkpt lat="30.9272000" lon="35.2098900">
<ele>-83.790001</ele>
<time>2023-03-08T12:16:00.862Z</time>
</trkpt>
<trkpt lat="30.9271600" lon="35.2098800">
<ele>-85.029999</ele>
<time>2023-03-08T12:16:00.862Z</time>
</trkpt>
<trkpt lat="30.9271100" lon="35.2098700">
<ele>-86.580002</ele>
<time>2023-03-08T12:16:00.862Z</time>
</trkpt>
<trkpt lat="30.9270600" lon="35.2098400">
<ele>-88.579994</ele>
<time>2023-03-08T12:16:00.862Z</time>
</trkpt>
<trkpt lat="30.9270400" lon="35.2097900">
<ele>-90.190002</ele>
<time>2023-03-08T12:16:00.862Z</time>
</trkpt>
<trkpt lat="30.9270600" lon="35.2096000">
<ele>-94.180000</ele>
<time>2023-03-08T12:16:00.862Z</time>
</trkpt>
<trkpt lat="30.9270800" lon="35.2094900">
<ele>-96.400002</ele>
<time>2023-03-08T12:16:00.862Z</time>
</trkpt>
<trkpt lat="30.9271000" lon="35.2094100">
<ele>-97.449997</ele>
<time>2023-03-08T12:16:00.862Z</time>
</trkpt>
<trkpt lat="30.9271400" lon="35.2093700">
<ele>-96.839996</ele>
<time>2023-03-08T12:16:00.862Z</time>
</trkpt>
<trkpt lat="30.9272600" lon="35.2093200">
<ele>-93.889999</ele>
<time>2023-03-08T12:16:00.862Z</time>
</trkpt>
<trkpt lat="30.9273700" lon="35.2093000">
<ele>-89.500000</ele>
<time>2023-03-08T12:16:00.862Z</time>
</trkpt>
<trkpt lat="30.9274400" lon="35.2092200">
<ele>-88.419998</ele>
<time>2023-03-08T12:16:00.862Z</time>
</trkpt>
<trkpt lat="30.9276000" lon="35.2091000">
<ele>-85.320000</ele>
<time>2023-03-08T12:16:00.862Z</time>
</trkpt>
<trkpt lat="30.9277700" lon="35.2088800">
<ele>-85.500000</ele>
<time>2023-03-08T12:16:00.862Z</time>
</trkpt>
<trkpt lat="30.9278200" lon="35.2087500">
<ele>-86.750000</ele>
<time>2023-03-08T12:16:00.862Z</time>
</trkpt>
<trkpt lat="30.9278600" lon="35.2087000">
<ele>-86.410004</ele>
<time>2023-03-08T12:16:00.862Z</time>
</trkpt>
<trkpt lat="30.9283900" lon="35.2083600">
<ele>-73.570000</ele>
<time>2023-03-08T12:16:00.862Z</time>
</trkpt>
<trkpt lat="30.9285700" lon="35.2082000">
<ele>-75.459999</ele>
<time>2023-03-08T12:16:00.862Z</time>
</trkpt>
<trkpt lat="30.9286000" lon="35.2081500">
<ele>-76.589996</ele>
<time>2023-03-08T12:16:00.862Z</time>
</trkpt>
<trkpt lat="30.9286200" lon="35.2080300">
<ele>-79.899994</ele>
<time>2023-03-08T12:16:00.862Z</time>
</trkpt>
<trkpt lat="30.9286000" lon="35.2077000">
<ele>-84.980003</ele>
<time>2023-03-08T12:16:00.862Z</time>
</trkpt>
<trkpt lat="30.9285300" lon="35.2074200">
<ele>-87.699997</ele>
<time>2023-03-08T12:16:00.862Z</time>
</trkpt>
<trkpt lat="30.9284600" lon="35.2072300">
<ele>-91.830002</ele>
<time>2023-03-08T12:16:00.862Z</time>
</trkpt>
<trkpt lat="30.9285400" lon="35.2069000">
<ele>-92.979996</ele>
<time>2023-03-08T12:16:00.862Z</time>
</trkpt>
<trkpt lat="30.9285400" lon="35.2066100">
<ele>-96.450005</ele>
<time>2023-03-08T12:16:00.862Z</time>
</trkpt>
<trkpt lat="30.9285200" lon="35.2065500">
<ele>-98.019997</ele>
<time>2023-03-08T12:16:00.862Z</time>
</trkpt>
<trkpt lat="30.9284700" lon="35.2065300">
<ele>-99.239998</ele>
<time>2023-03-08T12:16:00.862Z</time>
</trkpt>
<trkpt lat="30.9284300" lon="35.2065600">
<ele>-99.310005</ele>
<time>2023-03-08T12:16:00.862Z</time>
</trkpt>
<trkpt lat="30.9283800" lon="35.2065800">
<ele>-99.770004</ele>
<time>2023-03-08T12:16:00.862Z</time>
</trkpt>
<trkpt lat="30.9283200" lon="35.2065700">
<ele>-100.919998</ele>
<time>2023-03-08T12:16:00.862Z</time>
</trkpt>
<trkpt lat="30.9281400" lon="35.2064800">
<ele>-104.680000</ele>
<time>2023-03-08T12:16:00.862Z</time>
</trkpt>
<trkpt lat="30.9280800" lon="35.2064200">
<ele>-106.279999</ele>
<time>2023-03-08T12:16:00.862Z</time>
</trkpt>
<trkpt lat="30.9280800" lon="35.2064200">
<ele>-106.279999</ele>
<time>2023-03-08T12:16:00.862Z</time>
</trkpt>
<trkpt lat="30.9280800" lon="35.2064200">
<ele>-106.279999</ele>
<time>2023-03-08T12:16:00.862Z</time>
</trkpt>
<trkpt lat="30.9280800" lon="35.2064200">
<ele>-106.279999</ele>
<time>2023-03-08T12:16:00.862Z</time>
</trkpt>
<trkpt lat="30.9280200" lon="35.2063200">
<ele>-107.570000</ele>
<time>2023-03-08T12:16:00.862Z</time>
</trkpt>
<trkpt lat="30.9279700" lon="35.2059400">
<ele>-107.690002</ele>
<time>2023-03-08T12:16:00.862Z</time>
</trkpt>
<trkpt lat="30.9279000" lon="35.2056100">
<ele>-107.300003</ele>
<time>2023-03-08T12:16:00.862Z</time>
</trkpt>
<trkpt lat="30.9278800" lon="35.2055500">
<ele>-107.479996</ele>
<time>2023-03-08T12:16:00.862Z</time>
</trkpt>
<trkpt lat="30.9278400" lon="35.2054900">
<ele>-107.580002</ele>
<time>2023-03-08T12:16:00.862Z</time>
</trkpt>
<trkpt lat="30.9277700" lon="35.2054400">
<ele>-108.259995</ele>
<time>2023-03-08T12:16:00.862Z</time>
</trkpt>
<trkpt lat="30.9276000" lon="35.2053600">
<ele>-110.220001</ele>
<time>2023-03-08T12:16:00.862Z</time>
</trkpt>
<trkpt lat="30.9274000" lon="35.2052300">
<ele>-112.440002</ele>
<time>2023-03-08T12:16:00.862Z</time>
</trkpt>
<trkpt lat="30.9273700" lon="35.2051700">
<ele>-112.339996</ele>
<time>2023-03-08T12:16:00.862Z</time>
</trkpt>
<trkpt lat="30.9273600" lon="35.2050500">
<ele>-111.779999</ele>
<time>2023-03-08T12:16:00.862Z</time>
</trkpt>
<trkpt lat="30.9273300" lon="35.2050100">
<ele>-111.889999</ele>
<time>2023-03-08T12:16:00.862Z</time>
</trkpt>
<trkpt lat="30.9272700" lon="35.2050000">
<ele>-112.479996</ele>
<time>2023-03-08T12:16:00.862Z</time>
</trkpt>
<trkpt lat="30.9272300" lon="35.2050500">
<ele>-113.099998</ele>
<time>2023-03-08T12:16:00.862Z</time>
</trkpt>
<trkpt lat="30.9272000" lon="35.2051000">
<ele>-113.570000</ele>
<time>2023-03-08T12:16:00.862Z</time>
</trkpt>
<trkpt lat="30.9271600" lon="35.2051200">
<ele>-114.010002</ele>
<time>2023-03-08T12:16:00.862Z</time>
</trkpt>
<trkpt lat="30.9271100" lon="35.2051300">
<ele>-114.489998</ele>
<time>2023-03-08T12:16:00.862Z</time>
</trkpt>
<trkpt lat="30.9270600" lon="35.2051100">
<ele>-114.919998</ele>
<time>2023-03-08T12:16:00.862Z</time>
</trkpt>
<trkpt lat="30.9269800" lon="35.2051800">
<ele>-115.699997</ele>
<time>2023-03-08T12:16:00.862Z</time>
</trkpt>
<trkpt lat="30.9269100" lon="35.2051600">
<ele>-116.120003</ele>
<time>2023-03-08T12:16:00.862Z</time>
</trkpt>
<trkpt lat="30.9269700" lon="35.2057300">
<ele>-113.680000</ele>
<time>2023-03-08T12:16:00.862Z</time>
</trkpt>
<trkpt lat="30.9270300" lon="35.2058900">
<ele>-112.860001</ele>
<time>2023-03-08T12:16:00.862Z</time>
</trkpt>
<trkpt lat="30.9270300" lon="35.2058900">
<ele>-112.860001</ele>
<time>2023-03-08T12:16:00.862Z</time>
</trkpt>
<trkpt lat="30.9270900" lon="35.2060400">
<ele>-112.650002</ele>
<time>2023-03-08T12:16:00.862Z</time>
</trkpt>
<trkpt lat="30.9272400" lon="35.2062200">
<ele>-112.989998</ele>
<time>2023-03-08T12:16:00.862Z</time>
</trkpt>
<trkpt lat="30.9275100" lon="35.2067000">
<ele>-114.779999</ele>
<time>2023-03-08T12:16:00.862Z</time>
</trkpt>
<trkpt lat="30.9275500" lon="35.2069400">
<ele>-113.739998</ele>
<time>2023-03-08T12:16:00.862Z</time>
</trkpt>
<trkpt lat="30.9275200" lon="35.2073700">
<ele>-112.430000</ele>
<time>2023-03-08T12:16:00.862Z</time>
</trkpt>
<trkpt lat="30.9273500" lon="35.2073700">
<ele>-115.129997</ele>
<time>2023-03-08T12:16:00.862Z</time>
</trkpt>
<trkpt lat="30.9273300" lon="35.2074400">
<ele>-115.229996</ele>
<time>2023-03-08T12:16:00.862Z</time>
</trkpt>
<trkpt lat="30.9273300" lon="35.2075500">
<ele>-114.739998</ele>
<time>2023-03-08T12:16:00.862Z</time>
</trkpt>
<trkpt lat="30.9274500" lon="35.2079000">
<ele>-110.259995</ele>
<time>2023-03-08T12:16:00.862Z</time>
</trkpt>
<trkpt lat="30.9273500" lon="35.2082100">
<ele>-111.970001</ele>
<time>2023-03-08T12:16:00.862Z</time>
</trkpt>
<trkpt lat="30.9271300" lon="35.2085300">
<ele>-113.020004</ele>
<time>2023-03-08T12:16:00.862Z</time>
</trkpt>
<trkpt lat="30.9265100" lon="35.2090800">
<ele>-113.330002</ele>
<time>2023-03-08T12:16:00.862Z</time>
</trkpt>
<trkpt lat="30.9265100" lon="35.2091300">
<ele>-112.710007</ele>
<time>2023-03-08T12:16:00.862Z</time>
</trkpt>
<trkpt lat="30.9264400" lon="35.2092400">
<ele>-113.330002</ele>
<time>2023-03-08T12:16:00.862Z</time>
</trkpt>
<trkpt lat="30.9264100" lon="35.2094400">
<ele>-114.380005</ele>
<time>2023-03-08T12:16:00.862Z</time>
</trkpt>
<trkpt lat="30.9263200" lon="35.2095100">
<ele>-116.789993</ele>
<time>2023-03-08T12:16:00.862Z</time>
</trkpt>
<trkpt lat="30.9263200" lon="35.2095500">
<ele>-116.830002</ele>
<time>2023-03-08T12:16:00.862Z</time>
</trkpt>
<trkpt lat="30.9262800" lon="35.2095800">
<ele>-118.210007</ele>
<time>2023-03-08T12:16:00.862Z</time>
</trkpt>
<trkpt lat="30.9261600" lon="35.2096700">
<ele>-123.300003</ele>
<time>2023-03-08T12:16:00.862Z</time>
</trkpt>
<trkpt lat="30.9261500" lon="35.2097100">
<ele>-124.170006</ele>
<time>2023-03-08T12:16:00.862Z</time>
</trkpt>
<trkpt lat="30.9261500" lon="35.2097100">
<ele>-124.170006</ele>
<time>2023-03-08T12:16:00.862Z</time>
</trkpt>
<trkpt lat="30.9261500" lon="35.2097100">
<ele>-124.170006</ele>
<time>2023-03-08T12:16:00.862Z</time>
</trkpt>
<trkpt lat="30.9260000" lon="35.2098900">
<ele>-123.720001</ele>
<time>2023-03-08T12:16:00.862Z</time>
</trkpt>
<trkpt lat="30.9259500" lon="35.2099900">
<ele>-123.230003</ele>
<time>2023-03-08T12:16:00.862Z</time>
</trkpt>
<trkpt lat="30.9259100" lon="35.2100300">
<ele>-122.430000</ele>
<time>2023-03-08T12:16:00.862Z</time>
</trkpt>
<trkpt lat="30.9258300" lon="35.2100100">
<ele>-121.930000</ele>
<time>2023-03-08T12:16:00.862Z</time>
</trkpt>
<trkpt lat="30.9257200" lon="35.2100400">
<ele>-121.829994</ele>
<time>2023-03-08T12:16:00.862Z</time>
</trkpt>
<trkpt lat="30.9257000" lon="35.2100500">
<ele>-121.809998</ele>
<time>2023-03-08T12:16:00.862Z</time>
</trkpt>
<trkpt lat="30.9256700" lon="35.2101000">
<ele>-121.700005</ele>
<time>2023-03-08T12:16:00.862Z</time>
</trkpt>
<trkpt lat="30.9256000" lon="35.2101100">
<ele>-121.870003</ele>
<time>2023-03-08T12:16:00.862Z</time>
</trkpt>
<trkpt lat="30.9255300" lon="35.2101400">
<ele>-122.230003</ele>
<time>2023-03-08T12:16:00.862Z</time>
</trkpt>
<trkpt lat="30.9254900" lon="35.2102000">
<ele>-122.749992</ele>
<time>2023-03-08T12:16:00.862Z</time>
</trkpt>
<trkpt lat="30.9254600" lon="35.2102100">
<ele>-123.120003</ele>
<time>2023-03-08T12:16:00.862Z</time>
</trkpt>
<trkpt lat="30.9253900" lon="35.2101900">
<ele>-123.819992</ele>
<time>2023-03-08T12:16:00.862Z</time>
</trkpt>
<trkpt lat="30.9252800" lon="35.2101300">
<ele>-124.379997</ele>
<time>2023-03-08T12:16:00.862Z</time>
</trkpt>
<trkpt lat="30.9252900" lon="35.2101400">
<ele>-124.399994</ele>
<time>2023-03-08T12:16:00.862Z</time>
</trkpt>
<trkpt lat="30.9252900" lon="35.2101400">
<ele>-124.399994</ele>
<time>2023-03-08T12:16:00.862Z</time>
</trkpt>
<trkpt lat="30.9253900" lon="35.2101900">
<ele>-123.819992</ele>
<time>2023-03-08T12:16:00.862Z</time>
</trkpt>
<trkpt lat="30.9254600" lon="35.2102100">
<ele>-123.120003</ele>
<time>2023-03-08T12:16:00.862Z</time>
</trkpt>
<trkpt lat="30.9254900" lon="35.2102000">
<ele>-122.749992</ele>
<time>2023-03-08T12:16:00.862Z</time>
</trkpt>
<trkpt lat="30.9255300" lon="35.2101400">
<ele>-122.230003</ele>
<time>2023-03-08T12:16:00.862Z</time>
</trkpt>
<trkpt lat="30.9256000" lon="35.2101100">
<ele>-121.870003</ele>
<time>2023-03-08T12:16:00.862Z</time>
</trkpt>
<trkpt lat="30.9256700" lon="35.2101000">
<ele>-121.700005</ele>
<time>2023-03-08T12:16:00.862Z</time>
</trkpt>
<trkpt lat="30.9257000" lon="35.2100500">
<ele>-121.809998</ele>
<time>2023-03-08T12:16:00.862Z</time>
</trkpt>
<trkpt lat="30.9257200" lon="35.2100400">
<ele>-121.829994</ele>
<time>2023-03-08T12:16:00.862Z</time>
</trkpt>
<trkpt lat="30.9258300" lon="35.2100100">
<ele>-121.930000</ele>
<time>2023-03-08T12:16:00.862Z</time>
</trkpt>
<trkpt lat="30.9259100" lon="35.2100300">
<ele>-122.430000</ele>
<time>2023-03-08T12:16:00.862Z</time>
</trkpt>
<trkpt lat="30.9259500" lon="35.2099900">
<ele>-123.230003</ele>
<time>2023-03-08T12:16:00.862Z</time>
</trkpt>
<trkpt lat="30.9260000" lon="35.2098900">
<ele>-123.720001</ele>
<time>2023-03-08T12:16:00.862Z</time>
</trkpt>
<trkpt lat="30.9260300" lon="35.2098600">
<ele>-124.190002</ele>
<time>2023-03-08T12:16:00.862Z</time>
</trkpt>
<trkpt lat="30.9260300" lon="35.2098600">
<ele>-124.190002</ele>
<time>2023-03-08T12:16:00.862Z</time>
</trkpt>
<trkpt lat="30.9261300" lon="35.2097200">
<ele>-125.150002</ele>
<time>2023-03-08T12:16:00.862Z</time>
</trkpt>
<trkpt lat="30.9261300" lon="35.2097200">
<ele>-125.150002</ele>
<time>2023-03-08T12:16:00.862Z</time>
</trkpt>
<trkpt lat="30.9261600" lon="35.2096700">
<ele>-123.300003</ele>
<time>2023-03-08T12:16:00.862Z</time>
</trkpt>
<trkpt lat="30.9264100" lon="35.2094400">
<ele>-114.380005</ele>
<time>2023-03-08T12:16:00.862Z</time>
</trkpt>
<trkpt lat="30.9265100" lon="35.2090800">
<ele>-113.330002</ele>
<time>2023-03-08T12:16:00.862Z</time>
</trkpt>
<trkpt lat="30.9271300" lon="35.2085300">
<ele>-113.020004</ele>
<time>2023-03-08T12:16:00.862Z</time>
</trkpt>
<trkpt lat="30.9273500" lon="35.2082100">
<ele>-111.970001</ele>
<time>2023-03-08T12:16:00.862Z</time>
</trkpt>
<trkpt lat="30.9274500" lon="35.2079000">
<ele>-110.259995</ele>
<time>2023-03-08T12:16:00.862Z</time>
</trkpt>
<trkpt lat="30.9273300" lon="35.2074400">
<ele>-115.229996</ele>
<time>2023-03-08T12:16:00.862Z</time>
</trkpt>
<trkpt lat="30.9273500" lon="35.2073700">
<ele>-115.129997</ele>
<time>2023-03-08T12:16:00.862Z</time>
</trkpt>
<trkpt lat="30.9275200" lon="35.2073700">
<ele>-112.430000</ele>
<time>2023-03-08T12:16:00.862Z</time>
</trkpt>
<trkpt lat="30.9275500" lon="35.2069400">
<ele>-113.739998</ele>
<time>2023-03-08T12:16:00.862Z</time>
</trkpt>
<trkpt lat="30.9275100" lon="35.2067000">
<ele>-114.779999</ele>
<time>2023-03-08T12:16:00.862Z</time>
</trkpt>
<trkpt lat="30.9270900" lon="35.2060400">
<ele>-112.650002</ele>
<time>2023-03-08T12:16:00.862Z</time>
</trkpt>
<trkpt lat="30.9269700" lon="35.2057300">
<ele>-113.680000</ele>
<time>2023-03-08T12:16:00.862Z</time>
</trkpt>
<trkpt lat="30.9270100" lon="35.2051400">
<ele>-115.409996</ele>
<time>2023-03-08T12:16:00.862Z</time>
</trkpt>
<trkpt lat="30.9271600" lon="35.2051300">
<ele>-114.040001</ele>
<time>2023-03-08T12:16:00.862Z</time>
</trkpt>
<trkpt lat="30.9272500" lon="35.2049800">
<ele>-112.689995</ele>
<time>2023-03-08T12:16:00.862Z</time>
</trkpt>
<trkpt lat="30.9273200" lon="35.2050000">
<ele>-111.940002</ele>
<time>2023-03-08T12:16:00.862Z</time>
</trkpt>
<trkpt lat="30.9273700" lon="35.2051400">
<ele>-112.180000</ele>
<time>2023-03-08T12:16:00.862Z</time>
</trkpt>
<trkpt lat="30.9277600" lon="35.2054300">
<ele>-108.310005</ele>
<time>2023-03-08T12:16:00.862Z</time>
</trkpt>
<trkpt lat="30.9279100" lon="35.2056800">
<ele>-107.290001</ele>
<time>2023-03-08T12:16:00.862Z</time>
</trkpt>
<trkpt lat="30.9280000" lon="35.2061900">
<ele>-108.029999</ele>
<time>2023-03-08T12:16:00.862Z</time>
</trkpt>
<trkpt lat="30.9281500" lon="35.2064700">
<ele>-104.709999</ele>
<time>2023-03-08T12:16:00.862Z</time>
</trkpt>
<trkpt lat="30.9283100" lon="35.2065700">
<ele>-101.050003</ele>
<time>2023-03-08T12:16:00.862Z</time>
</trkpt>
<trkpt lat="30.9285000" lon="35.2065200">
<ele>-98.959999</ele>
<time>2023-03-08T12:16:00.862Z</time>
</trkpt>
<trkpt lat="30.9285400" lon="35.2067300">
<ele>-94.650002</ele>
<time>2023-03-08T12:16:00.862Z</time>
</trkpt>
<trkpt lat="30.9284600" lon="35.2071700">
<ele>-92.340004</ele>
<time>2023-03-08T12:16:00.862Z</time>
</trkpt>
<trkpt lat="30.9286100" lon="35.2076800">
<ele>-84.680000</ele>
<time>2023-03-08T12:16:00.862Z</time>
</trkpt>
<trkpt lat="30.9286300" lon="35.2079400">
<ele>-80.969994</ele>
<time>2023-03-08T12:16:00.862Z</time>
</trkpt>
<trkpt lat="30.9285700" lon="35.2081800">
<ele>-76.269997</ele>
<time>2023-03-08T12:16:00.862Z</time>
</trkpt>
<trkpt lat="30.9278500" lon="35.2086900">
<ele>-87.079994</ele>
<time>2023-03-08T12:16:00.862Z</time>
</trkpt>
<trkpt lat="30.9275900" lon="35.2091100">
<ele>-85.389999</ele>
<time>2023-03-08T12:16:00.862Z</time>
</trkpt>
<trkpt lat="30.9269700" lon="35.2094300">
<ele>-102.070000</ele>
<time>2023-03-08T12:16:00.862Z</time>
</trkpt>
<trkpt lat="30.9270200" lon="35.2096000">
<ele>-95.680000</ele>
<time>2023-03-08T12:16:00.862Z</time>
</trkpt>
<trkpt lat="30.9271100" lon="35.2098900">
<ele>-86.250000</ele>
<time>2023-03-08T12:16:00.862Z</time>
</trkpt>
<trkpt lat="30.9273600" lon="35.2098900">
<ele>-79.020004</ele>
<time>2023-03-08T12:16:00.862Z</time>
</trkpt>
<trkpt lat="30.9274300" lon="35.2099900">
<ele>-76.099998</ele>
<time>2023-03-08T12:16:00.862Z</time>
</trkpt>
<trkpt lat="30.9275000" lon="35.2105300">
<ele>-76.820000</ele>
<time>2023-03-08T12:16:00.862Z</time>
</trkpt>
<trkpt lat="30.9275600" lon="35.2110700">
<ele>-83.020004</ele>
<time>2023-03-08T12:16:00.862Z</time>
</trkpt>
<trkpt lat="30.9277200" lon="35.2117000">
<ele>-88.239998</ele>
<time>2023-03-08T12:16:00.862Z</time>
</trkpt>
<trkpt lat="30.9281000" lon="35.2121000">
<ele>-89.679993</ele>
<time>2023-03-08T12:16:00.862Z</time>
</trkpt>
<trkpt lat="30.9282200" lon="35.2123300">
<ele>-88.589996</ele>
<time>2023-03-08T12:16:00.862Z</time>
</trkpt>
<trkpt lat="30.9282100" lon="35.2131200">
<ele>-88.459999</ele>
<time>2023-03-08T12:16:00.862Z</time>
</trkpt>
<trkpt lat="30.9282700" lon="35.2133300">
<ele>-89.659996</ele>
<time>2023-03-08T12:16:00.862Z</time>
</trkpt>
<trkpt lat="30.9286800" lon="35.2137700">
<ele>-91.110001</ele>
<time>2023-03-08T12:16:00.862Z</time>
</trkpt>
<trkpt lat="30.9288100" lon="35.2140200">
<ele>-91.080002</ele>
<time>2023-03-08T12:16:00.862Z</time>
</trkpt>
<trkpt lat="30.9292600" lon="35.2141400">
<ele>-86.660004</ele>
<time>2023-03-08T12:16:00.862Z</time>
</trkpt>
<trkpt lat="30.9294000" lon="35.2144600">
<ele>-88.159996</ele>
<time>2023-03-08T12:16:00.862Z</time>
</trkpt>
<trkpt lat="30.9297100" lon="35.2148100">
<ele>-91.969994</ele>
<time>2023-03-08T12:16:00.862Z</time>
</trkpt>
<trkpt lat="30.9299000" lon="35.2152400">
<ele>-95.230003</ele>
<time>2023-03-08T12:16:00.862Z</time>
</trkpt>
<trkpt lat="30.9303100" lon="35.2158500">
<ele>-96.290001</ele>
<time>2023-03-08T12:16:00.862Z</time>
</trkpt>
<trkpt lat="30.9307200" lon="35.2164500">
<ele>-100.440002</ele>
<time>2023-03-08T12:16:00.862Z</time>
</trkpt>
<trkpt lat="30.9310100" lon="35.2164000">
<ele>-100.080002</ele>
<time>2023-03-08T12:16:00.862Z</time>
</trkpt>
<trkpt lat="30.9312500" lon="35.2164600">
<ele>-99.639999</ele>
<time>2023-03-08T12:16:00.862Z</time>
</trkpt>
<trkpt lat="30.9314000" lon="35.2165600">
<ele>-99.940002</ele>
<time>2023-03-08T12:16:00.862Z</time>
</trkpt>
<trkpt lat="30.9316600" lon="35.2169600">
<ele>-102.350006</ele>
<time>2023-03-08T12:16:00.862Z</time>
</trkpt>
<trkpt lat="30.9321400" lon="35.2167400">
<ele>-103.699997</ele>
<time>2023-03-08T12:16:00.862Z</time>
</trkpt>
<trkpt lat="30.9323400" lon="35.2167600">
<ele>-101.459999</ele>
<time>2023-03-08T12:16:00.862Z</time>
</trkpt>
<trkpt lat="30.9324800" lon="35.2166200">
<ele>-98.419998</ele>
<time>2023-03-08T12:16:00.862Z</time>
</trkpt>
<trkpt lat="30.9326200" lon="35.2167200">
<ele>-96.870003</ele>
<time>2023-03-08T12:16:00.862Z</time>
</trkpt>
<trkpt lat="30.9327300" lon="35.2172200">
<ele>-100.150002</ele>
<time>2023-03-08T12:16:00.862Z</time>
</trkpt>
<trkpt lat="30.9329700" lon="35.2175600">
<ele>-103.199997</ele>
<time>2023-03-08T12:16:00.862Z</time>
</trkpt>
<trkpt lat="30.9331500" lon="35.2180100">
<ele>-103.839996</ele>
<time>2023-03-08T12:16:00.862Z</time>
</trkpt>
<trkpt lat="30.9334200" lon="35.2184300">
<ele>-107.459999</ele>
<time>2023-03-08T12:16:00.862Z</time>
</trkpt>
<trkpt lat="30.9337300" lon="35.2186800">
<ele>-109.350006</ele>
<time>2023-03-08T12:16:00.862Z</time>
</trkpt>
<trkpt lat="30.9340500" lon="35.2190600">
<ele>-110.750000</ele>
<time>2023-03-08T12:16:00.862Z</time>
</trkpt>
<trkpt lat="30.9343600" lon="35.2194400">
<ele>-112.169998</ele>
<time>2023-03-08T12:16:00.862Z</time>
</trkpt>
<trkpt lat="30.9345600" lon="35.2198500">
<ele>-112.139999</ele>
<time>2023-03-08T12:16:00.862Z</time>
</trkpt>
<trkpt lat="30.9348000" lon="35.2200500">
<ele>-114.150002</ele>
<time>2023-03-08T12:16:00.862Z</time>
</trkpt>
<trkpt lat="30.9349600" lon="35.2199900">
<ele>-114.580002</ele>
<time>2023-03-08T12:16:00.862Z</time>
</trkpt>
<trkpt lat="30.9354300" lon="35.2191600">
<ele>-114.649994</ele>
<time>2023-03-08T12:16:00.862Z</time>
</trkpt>
<trkpt lat="30.9357300" lon="35.2190700">
<ele>-118.139999</ele>
<time>2023-03-08T12:16:00.862Z</time>
</trkpt>
<trkpt lat="30.9363400" lon="35.2192200">
<ele>-117.830002</ele>
<time>2023-03-08T12:16:00.862Z</time>
</trkpt>
<trkpt lat="30.9369500" lon="35.2193700">
<ele>-109.210007</ele>
<time>2023-03-08T12:16:00.862Z</time>
</trkpt>
<trkpt lat="30.9374800" lon="35.2193400">
<ele>-115.040001</ele>
<time>2023-03-08T12:16:00.862Z</time>
</trkpt>
<trkpt lat="30.9380800" lon="35.2194500">
<ele>-110.600006</ele>
<time>2023-03-08T12:16:00.862Z</time>
</trkpt>
<trkpt lat="30.9382800" lon="35.2193800">
<ele>-108.610001</ele>
<time>2023-03-08T12:16:00.862Z</time>
</trkpt>
<trkpt lat="30.9387000" lon="35.2187700">
<ele>-106.770004</ele>
<time>2023-03-08T12:16:00.862Z</time>
</trkpt>
<trkpt lat="30.9393200" lon="35.2188400">
<ele>-97.220001</ele>
<time>2023-03-08T12:16:00.862Z</time>
</trkpt>
<trkpt lat="30.9397100" lon="35.2185800">
<ele>-96.620003</ele>
<time>2023-03-08T12:16:00.862Z</time>
</trkpt>
<trkpt lat="30.9399100" lon="35.2183000">
<ele>-96.059998</ele>
<time>2023-03-08T12:16:00.862Z</time>
</trkpt>
<trkpt lat="30.9400200" lon="35.2175900">
<ele>-89.169998</ele>
<time>2023-03-08T12:16:00.862Z</time>
</trkpt>
<trkpt lat="30.9401500" lon="35.2174100">
<ele>-84.090004</ele>
<time>2023-03-08T12:16:00.862Z</time>
</trkpt>
<trkpt lat="30.9403500" lon="35.2173500">
<ele>-77.800003</ele>
<time>2023-03-08T12:16:00.862Z</time>
</trkpt>
<trkpt lat="30.9405300" lon="35.2173900">
<ele>-75.139999</ele>
<time>2023-03-08T12:16:00.862Z</time>
</trkpt>
<trkpt lat="30.9407500" lon="35.2172900">
<ele>-72.479996</ele>
<time>2023-03-08T12:16:00.862Z</time>
</trkpt>
<trkpt lat="30.9412100" lon="35.2173900">
<ele>-74.889999</ele>
<time>2023-03-08T12:16:00.862Z</time>
</trkpt>
<trkpt lat="30.9415900" lon="35.2172100">
<ele>-73.610001</ele>
<time>2023-03-08T12:16:00.862Z</time>
</trkpt>
<trkpt lat="30.9419000" lon="35.2172800">
<ele>-64.820000</ele>
<time>2023-03-08T12:16:00.862Z</time>
</trkpt>
<trkpt lat="30.9424400" lon="35.2172500">
<ele>-47.690002</ele>
<time>2023-03-08T12:16:00.862Z</time>
</trkpt>
<trkpt lat="30.9429300" lon="35.2173600">
<ele>-41.200001</ele>
<time>2023-03-08T12:16:00.862Z</time>
</trkpt>
<trkpt lat="30.9434200" lon="35.2174800">
<ele>-35.240002</ele>
<time>2023-03-08T12:16:00.862Z</time>
</trkpt>
<trkpt lat="30.9439100" lon="35.2175900">
<ele>-28.589998</ele>
<time>2023-03-08T12:16:00.862Z</time>
</trkpt>
<trkpt lat="30.9440600" lon="35.2176700">
<ele>-25.360001</ele>
<time>2023-03-08T12:16:00.862Z</time>
</trkpt>
<trkpt lat="30.9443900" lon="35.2181600">
<ele>-17.639999</ele>
<time>2023-03-08T12:16:00.862Z</time>
</trkpt>
<trkpt lat="30.9445300" lon="35.2184900">
<ele>-18.199999</ele>
<time>2023-03-08T12:16:00.862Z</time>
</trkpt>
<trkpt lat="30.9445100" lon="35.2188000">
<ele>-19.450001</ele>
<time>2023-03-08T12:16:00.862Z</time>
</trkpt>
<trkpt lat="30.9443500" lon="35.2191600">
<ele>-21.320002</ele>
<time>2023-03-08T12:16:00.862Z</time>
</trkpt>
<trkpt lat="30.9445700" lon="35.2194700">
<ele>-20.000000</ele>
<time>2023-03-08T12:16:00.862Z</time>
</trkpt>
<trkpt lat="30.9453400" lon="35.2195800">
<ele>-17.710001</ele>
<time>2023-03-08T12:16:00.862Z</time>
</trkpt>
<trkpt lat="30.9457100" lon="35.2197500">
<ele>-17.629999</ele>
<time>2023-03-08T12:16:00.862Z</time>
</trkpt>
<trkpt lat="30.9461500" lon="35.2201800">
<ele>-14.420000</ele>
<time>2023-03-08T12:16:00.862Z</time>
</trkpt>
<trkpt lat="30.9465500" lon="35.2204400">
<ele>-15.960000</ele>
<time>2023-03-08T12:16:00.862Z</time>
</trkpt>
<trkpt lat="30.9471500" lon="35.2206600">
<ele>-15.990000</ele>
<time>2023-03-08T12:16:00.862Z</time>
</trkpt>
<trkpt lat="30.9477500" lon="35.2208700">
<ele>-10.050000</ele>
<time>2023-03-08T12:16:00.862Z</time>
</trkpt>
<trkpt lat="30.9479400" lon="35.2213700">
<ele>-23.709999</ele>
<time>2023-03-08T12:16:00.862Z</time>
</trkpt>
<trkpt lat="30.9481300" lon="35.2218800">
<ele>-30.890001</ele>
<time>2023-03-08T12:16:00.862Z</time>
</trkpt>
<trkpt lat="30.9483200" lon="35.2223900">
<ele>-35.430000</ele>
<time>2023-03-08T12:16:00.862Z</time>
</trkpt>
<trkpt lat="30.9485100" lon="35.2228900">
<ele>-39.510002</ele>
<time>2023-03-08T12:16:00.862Z</time>
</trkpt>
<trkpt lat="30.9486800" lon="35.2235300">
<ele>-43.079998</ele>
<time>2023-03-08T12:16:00.862Z</time>
</trkpt>
<trkpt lat="30.9488600" lon="35.2241700">
<ele>-48.029999</ele>
<time>2023-03-08T12:16:00.862Z</time>
</trkpt>
<trkpt lat="30.9488200" lon="35.2247100">
<ele>-53.119999</ele>
<time>2023-03-08T12:16:00.862Z</time>
</trkpt>
<trkpt lat="30.9484900" lon="35.2252800">
<ele>-58.340000</ele>
<time>2023-03-08T12:16:00.862Z</time>
</trkpt>
<trkpt lat="30.9481600" lon="35.2258400">
<ele>-59.570000</ele>
<time>2023-03-08T12:16:00.862Z</time>
</trkpt>
<trkpt lat="30.9478300" lon="35.2264100">
<ele>-62.240002</ele>
<time>2023-03-08T12:16:00.862Z</time>
</trkpt>
<trkpt lat="30.9474800" lon="35.2268000">
<ele>-66.559998</ele>
<time>2023-03-08T12:16:00.862Z</time>
</trkpt>
<trkpt lat="30.9471200" lon="35.2271900">
<ele>-67.889999</ele>
<time>2023-03-08T12:16:00.862Z</time>
</trkpt>
<trkpt lat="30.9469600" lon="35.2275100">
<ele>-69.260002</ele>
<time>2023-03-08T12:16:00.862Z</time>
</trkpt>
<trkpt lat="30.9467600" lon="35.2282400">
<ele>-77.889999</ele>
<time>2023-03-08T12:16:00.862Z</time>
</trkpt>
<trkpt lat="30.9467600" lon="35.2287900">
<ele>-87.199997</ele>
<time>2023-03-08T12:16:00.862Z</time>
</trkpt>
<trkpt lat="30.9468000" lon="35.2289200">
<ele>-87.910004</ele>
<time>2023-03-08T12:16:00.862Z</time>
</trkpt>
<trkpt lat="30.9469500" lon="35.2294700">
<ele>-84.760002</ele>
<time>2023-03-08T12:16:00.862Z</time>
</trkpt>
<trkpt lat="30.9470700" lon="35.2302800">
<ele>-79.099998</ele>
<time>2023-03-08T12:16:00.862Z</time>
</trkpt>
<trkpt lat="30.9470100" lon="35.2305800">
<ele>-79.660004</ele>
<time>2023-03-08T12:16:00.862Z</time>
</trkpt>
<trkpt lat="30.9466400" lon="35.2311400">
<ele>-88.180000</ele>
<time>2023-03-08T12:16:00.862Z</time>
</trkpt>
<trkpt lat="30.9467000" lon="35.2319100">
<ele>-82.519997</ele>
<time>2023-03-08T12:16:00.862Z</time>
</trkpt>
<trkpt lat="30.9468300" lon="35.2324800">
<ele>-82.369995</ele>
<time>2023-03-08T12:16:00.862Z</time>
</trkpt>
<trkpt lat="30.9469600" lon="35.2330600">
<ele>-83.129997</ele>
<time>2023-03-08T12:16:00.862Z</time>
</trkpt>
<trkpt lat="30.9470900" lon="35.2336300">
<ele>-85.029999</ele>
<time>2023-03-08T12:16:00.862Z</time>
</trkpt>
<trkpt lat="30.9473100" lon="35.2342600">
<ele>-85.259995</ele>
<time>2023-03-08T12:16:00.862Z</time>
</trkpt>
<trkpt lat="30.9475400" lon="35.2348800">
<ele>-87.139999</ele>
<time>2023-03-08T12:16:00.862Z</time>
</trkpt>
<trkpt lat="30.9477600" lon="35.2355100">
<ele>-88.020004</ele>
<time>2023-03-08T12:16:00.862Z</time>
</trkpt>
<trkpt lat="30.9479700" lon="35.2362000">
<ele>-92.070000</ele>
<time>2023-03-08T12:16:00.862Z</time>
</trkpt>
<trkpt lat="30.9481800" lon="35.2368900">
<ele>-99.150002</ele>
<time>2023-03-08T12:16:00.862Z</time>
</trkpt>
<trkpt lat="30.9483800" lon="35.2372500">
<ele>-100.290001</ele>
<time>2023-03-08T12:16:00.862Z</time>
</trkpt>
<trkpt lat="30.9480900" lon="35.2378900">
<ele>-96.979996</ele>
<time>2023-03-08T12:16:00.862Z</time>
</trkpt>
<trkpt lat="30.9479400" lon="35.2386500">
<ele>-103.029999</ele>
<time>2023-03-08T12:16:00.862Z</time>
</trkpt>
<trkpt lat="30.9475700" lon="35.2392400">
<ele>-104.129997</ele>
<time>2023-03-08T12:16:00.862Z</time>
</trkpt>
<trkpt lat="30.9473800" lon="35.2399700">
<ele>-100.760002</ele>
<time>2023-03-08T12:16:00.862Z</time>
</trkpt>
<trkpt lat="30.9471100" lon="35.2404100">
<ele>-98.850006</ele>
<time>2023-03-08T12:16:00.862Z</time>
</trkpt>
<trkpt lat="30.9466700" lon="35.2406700">
<ele>-102.129997</ele>
<time>2023-03-08T12:16:00.862Z</time>
</trkpt>
<trkpt lat="30.9462300" lon="35.2408600">
<ele>-100.129997</ele>
<time>2023-03-08T12:16:00.862Z</time>
</trkpt>
<trkpt lat="30.9457900" lon="35.2410500">
<ele>-100.210007</ele>
<time>2023-03-08T12:16:00.862Z</time>
</trkpt>
<trkpt lat="30.9453400" lon="35.2412300">
<ele>-102.680000</ele>
<time>2023-03-08T12:16:00.862Z</time>
</trkpt>
<trkpt lat="30.9449000" lon="35.2414200">
<ele>-104.459999</ele>
<time>2023-03-08T12:16:00.862Z</time>
</trkpt>
<trkpt lat="30.9443300" lon="35.2415600">
<ele>-107.509995</ele>
<time>2023-03-08T12:16:00.862Z</time>
</trkpt>
<trkpt lat="30.9437600" lon="35.2417000">
<ele>-101.480003</ele>
<time>2023-03-08T12:16:00.862Z</time>
</trkpt>
<trkpt lat="30.9431900" lon="35.2418400">
<ele>-100.680000</ele>
<time>2023-03-08T12:16:00.862Z</time>
</trkpt>
<trkpt lat="30.9429500" lon="35.2418500">
<ele>-103.659996</ele>
<time>2023-03-08T12:16:00.862Z</time>
</trkpt>
<trkpt lat="30.9421600" lon="35.2416400">
<ele>-111.769997</ele>
<time>2023-03-08T12:16:00.862Z</time>
</trkpt>
<trkpt lat="30.9416100" lon="35.2412800">
<ele>-110.180000</ele>
<time>2023-03-08T12:16:00.862Z</time>
</trkpt>
<trkpt lat="30.9410500" lon="35.2409100">
<ele>-111.500000</ele>
<time>2023-03-08T12:16:00.862Z</time>
</trkpt>
<trkpt lat="30.9405900" lon="35.2409200">
<ele>-115.190002</ele>
<time>2023-03-08T12:16:00.862Z</time>
</trkpt>
<trkpt lat="30.9401400" lon="35.2409200">
<ele>-117.630005</ele>
<time>2023-03-08T12:16:00.862Z</time>
</trkpt>
<trkpt lat="30.9396800" lon="35.2409200">
<ele>-117.730003</ele>
<time>2023-03-08T12:16:00.862Z</time>
</trkpt>
<trkpt lat="30.9392200" lon="35.2409300">
<ele>-121.760002</ele>
<time>2023-03-08T12:16:00.862Z</time>
</trkpt>
<trkpt lat="30.9387100" lon="35.2410100">
<ele>-121.949997</ele>
<time>2023-03-08T12:16:00.862Z</time>
</trkpt>
<trkpt lat="30.9382000" lon="35.2410800">
<ele>-121.240005</ele>
<time>2023-03-08T12:16:00.862Z</time>
</trkpt>
<trkpt lat="30.9377300" lon="35.2412900">
<ele>-124.529999</ele>
<time>2023-03-08T12:16:00.862Z</time>
</trkpt>
<trkpt lat="30.9372500" lon="35.2415000">
<ele>-127.940002</ele>
<time>2023-03-08T12:16:00.862Z</time>
</trkpt>
<trkpt lat="30.9365400" lon="35.2419100">
<ele>-131.809998</ele>
<time>2023-03-08T12:16:00.862Z</time>
</trkpt>
<trkpt lat="30.9360800" lon="35.2420800">
<ele>-128.080002</ele>
<time>2023-03-08T12:16:00.862Z</time>
</trkpt>
<trkpt lat="30.9356100" lon="35.2422500">
<ele>-128.860001</ele>
<time>2023-03-08T12:16:00.862Z</time>
</trkpt>
<trkpt lat="30.9349800" lon="35.2423700">
<ele>-128.470001</ele>
<time>2023-03-08T12:16:00.862Z</time>
</trkpt>
<trkpt lat="30.9349800" lon="35.2423700">
<ele>-128.470001</ele>
<time>2023-03-08T12:16:00.862Z</time>
</trkpt>
<trkpt lat="30.9349800" lon="35.2423700">
<ele>-128.470001</ele>
<time>2023-03-08T12:16:00.862Z</time>
</trkpt>
<trkpt lat="30.9349000" lon="35.2423800">
<ele>-128.430008</ele>
<time>2023-03-08T12:16:00.862Z</time>
</trkpt>
<trkpt lat="30.9347200" lon="35.2423200">
<ele>-128.649994</ele>
<time>2023-03-08T12:16:00.862Z</time>
</trkpt>
<trkpt lat="30.9345500" lon="35.2423200">
<ele>-129.080002</ele>
<time>2023-03-08T12:16:00.862Z</time>
</trkpt>
<trkpt lat="30.9341200" lon="35.2423500">
<ele>-130.559998</ele>
<time>2023-03-08T12:16:00.862Z</time>
</trkpt>
<trkpt lat="30.9340600" lon="35.2423600">
<ele>-130.039993</ele>
<time>2023-03-08T12:16:00.862Z</time>
</trkpt>
<trkpt lat="30.9339400" lon="35.2424400">
<ele>-129.660004</ele>
<time>2023-03-08T12:16:00.862Z</time>
</trkpt>
<trkpt lat="30.9338900" lon="35.2424400">
<ele>-129.360001</ele>
<time>2023-03-08T12:16:00.862Z</time>
</trkpt>
<trkpt lat="30.9336600" lon="35.2424400">
<ele>-126.639999</ele>
<time>2023-03-08T12:16:00.862Z</time>
</trkpt>
<trkpt lat="30.9333600" lon="35.2424700">
<ele>-128.250000</ele>
<time>2023-03-08T12:16:00.862Z</time>
</trkpt>
<trkpt lat="30.9331800" lon="35.2425300">
<ele>-131.580002</ele>
<time>2023-03-08T12:16:00.862Z</time>
</trkpt>
<trkpt lat="30.9330500" lon="35.2425600">
<ele>-133.239990</ele>
<time>2023-03-08T12:16:00.862Z</time>
</trkpt>
<trkpt lat="30.9330500" lon="35.2425600">
<ele>-133.239990</ele>
<time>2023-03-08T12:16:00.862Z</time>
</trkpt>
<trkpt lat="30.9331800" lon="35.2425300">
<ele>-131.580002</ele>
<time>2023-03-08T12:16:00.862Z</time>
</trkpt>
<trkpt lat="30.9333600" lon="35.2424700">
<ele>-128.250000</ele>
<time>2023-03-08T12:16:00.862Z</time>
</trkpt>
<trkpt lat="30.9336600" lon="35.2424400">
<ele>-126.639999</ele>
<time>2023-03-08T12:16:00.862Z</time>
</trkpt>
<trkpt lat="30.9338900" lon="35.2424400">
<ele>-129.360001</ele>
<time>2023-03-08T12:16:00.862Z</time>
</trkpt>
<trkpt lat="30.9339400" lon="35.2424400">
<ele>-129.660004</ele>
<time>2023-03-08T12:16:00.862Z</time>
</trkpt>
<trkpt lat="30.9340600" lon="35.2423600">
<ele>-130.039993</ele>
<time>2023-03-08T12:16:00.862Z</time>
</trkpt>
<trkpt lat="30.9341200" lon="35.2423500">
<ele>-130.559998</ele>
<time>2023-03-08T12:16:00.862Z</time>
</trkpt>
<trkpt lat="30.9345500" lon="35.2423200">
<ele>-129.080002</ele>
<time>2023-03-08T12:16:00.862Z</time>
</trkpt>
<trkpt lat="30.9347200" lon="35.2423200">
<ele>-128.649994</ele>
<time>2023-03-08T12:16:00.862Z</time>
</trkpt>
<trkpt lat="30.9349000" lon="35.2423800">
<ele>-128.430008</ele>
<time>2023-03-08T12:16:00.862Z</time>
</trkpt>
<trkpt lat="30.9348900" lon="35.2423000">
<ele>-128.720001</ele>
<time>2023-03-08T12:16:00.862Z</time>
</trkpt>
<trkpt lat="30.9349000" lon="35.2423000">
<ele>-128.720001</ele>
<time>2023-03-08T12:16:00.862Z</time>
</trkpt>
<trkpt lat="30.9349000" lon="35.2423000">
<ele>-128.720001</ele>
<time>2023-03-08T12:16:00.862Z</time>
</trkpt>
<trkpt lat="30.9348600" lon="35.2416200">
<ele>-127.070000</ele>
<time>2023-03-08T12:16:00.862Z</time>
</trkpt>
<trkpt lat="30.9348100" lon="35.2408600">
<ele>-121.130005</ele>
<time>2023-03-08T12:16:00.862Z</time>
</trkpt>
<trkpt lat="30.9347500" lon="35.2407500">
<ele>-119.529999</ele>
<time>2023-03-08T12:16:00.862Z</time>
</trkpt>
<trkpt lat="30.9344400" lon="35.2404700">
<ele>-111.589996</ele>
<time>2023-03-08T12:16:00.862Z</time>
</trkpt>
<trkpt lat="30.9339100" lon="35.2407600">
<ele>-100.000000</ele>
<time>2023-03-08T12:16:00.862Z</time>
</trkpt>
<trkpt lat="30.9333600" lon="35.2405500">
<ele>-104.269997</ele>
<time>2023-03-08T12:16:00.862Z</time>
</trkpt>
<trkpt lat="30.9329500" lon="35.2405800">
<ele>-108.010002</ele>
<time>2023-03-08T12:16:00.862Z</time>
</trkpt>
<trkpt lat="30.9321600" lon="35.2408100">
<ele>-109.220001</ele>
<time>2023-03-08T12:16:00.862Z</time>
</trkpt>
<trkpt lat="30.9315300" lon="35.2412300">
<ele>-107.619995</ele>
<time>2023-03-08T12:16:00.862Z</time>
</trkpt>
<trkpt lat="30.9313300" lon="35.2415600">
<ele>-108.779999</ele>
<time>2023-03-08T12:16:00.862Z</time>
</trkpt>
<trkpt lat="30.9312200" lon="35.2416300">
<ele>-108.059998</ele>
<time>2023-03-08T12:16:00.862Z</time>
</trkpt>
<trkpt lat="30.9309100" lon="35.2416300">
<ele>-105.940002</ele>
<time>2023-03-08T12:16:00.862Z</time>
</trkpt>
<trkpt lat="30.9304500" lon="35.2413300">
<ele>-104.340004</ele>
<time>2023-03-08T12:16:00.862Z</time>
</trkpt>
<trkpt lat="30.9303100" lon="35.2413500">
<ele>-106.250000</ele>
<time>2023-03-08T12:16:00.862Z</time>
</trkpt>
<trkpt lat="30.9302900" lon="35.2419700">
<ele>-113.190002</ele>
<time>2023-03-08T12:16:00.862Z</time>
</trkpt>
<trkpt lat="30.9302600" lon="35.2426000">
<ele>-115.450005</ele>
<time>2023-03-08T12:16:00.862Z</time>
</trkpt>
<trkpt lat="30.9301200" lon="35.2429600">
<ele>-116.260002</ele>
<time>2023-03-08T12:16:00.862Z</time>
</trkpt>
<trkpt lat="30.9299600" lon="35.2431300">
<ele>-116.700005</ele>
<time>2023-03-08T12:16:00.862Z</time>
</trkpt>
<trkpt lat="30.9297300" lon="35.2431700">
<ele>-111.609993</ele>
<time>2023-03-08T12:16:00.862Z</time>
</trkpt>
<trkpt lat="30.9293000" lon="35.2428700">
<ele>-111.879997</ele>
<time>2023-03-08T12:16:00.862Z</time>
</trkpt>
<trkpt lat="30.9287200" lon="35.2428700">
<ele>-120.099998</ele>
<time>2023-03-08T12:16:00.862Z</time>
</trkpt>
<trkpt lat="30.9286100" lon="35.2429700">
<ele>-122.409996</ele>
<time>2023-03-08T12:16:00.862Z</time>
</trkpt>
<trkpt lat="30.9286300" lon="35.2434000">
<ele>-119.820000</ele>
<time>2023-03-08T12:16:00.862Z</time>
</trkpt>
<trkpt lat="30.9280300" lon="35.2434900">
<ele>-142.720001</ele>
<time>2023-03-08T12:16:00.862Z</time>
</trkpt>
<trkpt lat="30.9276100" lon="35.2438500">
<ele>-146.279999</ele>
<time>2023-03-08T12:16:00.862Z</time>
</trkpt>
<trkpt lat="30.9271900" lon="35.2442100">
<ele>-152.300003</ele>
<time>2023-03-08T12:16:00.862Z</time>
</trkpt>
<trkpt lat="30.9267700" lon="35.2445700">
<ele>-163.210007</ele>
<time>2023-03-08T12:16:00.862Z</time>
</trkpt>
<trkpt lat="30.9266300" lon="35.2445700">
<ele>-167.670013</ele>
<time>2023-03-08T12:16:00.862Z</time>
</trkpt>
<trkpt lat="30.9263900" lon="35.2441500">
<ele>-170.989990</ele>
<time>2023-03-08T12:16:00.862Z</time>
</trkpt>
<trkpt lat="30.9263100" lon="35.2441200">
<ele>-171.520004</ele>
<time>2023-03-08T12:16:00.862Z</time>
</trkpt>
<trkpt lat="30.9262200" lon="35.2442200">
<ele>-171.750000</ele>
<time>2023-03-08T12:16:00.862Z</time>
</trkpt>
<trkpt lat="30.9263600" lon="35.2448500">
<ele>-173.270004</ele>
<time>2023-03-08T12:16:00.862Z</time>
</trkpt>
<trkpt lat="30.9264000" lon="35.2454400">
<ele>-174.660004</ele>
<time>2023-03-08T12:16:00.862Z</time>
</trkpt>
<trkpt lat="30.9264400" lon="35.2460200">
<ele>-171.840012</ele>
<time>2023-03-08T12:16:00.862Z</time>
</trkpt>
<trkpt lat="30.9262800" lon="35.2465400">
<ele>-169.660004</ele>
<time>2023-03-08T12:16:00.862Z</time>
</trkpt>
<trkpt lat="30.9261200" lon="35.2470700">
<ele>-173.309998</ele>
<time>2023-03-08T12:16:00.862Z</time>
</trkpt>
<trkpt lat="30.9260600" lon="35.2474800">
<ele>-175.669998</ele>
<time>2023-03-08T12:16:00.862Z</time>
</trkpt>
<trkpt lat="30.9260900" lon="35.2479500">
<ele>-178.849991</ele>
<time>2023-03-08T12:16:00.862Z</time>
</trkpt>
<trkpt lat="30.9263800" lon="35.2486000">
<ele>-176.839996</ele>
<time>2023-03-08T12:16:00.862Z</time>
</trkpt>
<trkpt lat="30.9267700" lon="35.2489700">
<ele>-172.259995</ele>
<time>2023-03-08T12:16:00.862Z</time>
</trkpt>
<trkpt lat="30.9271500" lon="35.2493400">
<ele>-173.220001</ele>
<time>2023-03-08T12:16:00.862Z</time>
</trkpt>
<trkpt lat="30.9275400" lon="35.2497200">
<ele>-178.410004</ele>
<time>2023-03-08T12:16:00.862Z</time>
</trkpt>
<trkpt lat="30.9279200" lon="35.2500900">
<ele>-176.479996</ele>
<time>2023-03-08T12:16:00.862Z</time>
</trkpt>
<trkpt lat="30.9283100" lon="35.2504600">
<ele>-176.860001</ele>
<time>2023-03-08T12:16:00.862Z</time>
</trkpt>
<trkpt lat="30.9287300" lon="35.2507800">
<ele>-172.919998</ele>
<time>2023-03-08T12:16:00.862Z</time>
</trkpt>
<trkpt lat="30.9291500" lon="35.2511000">
<ele>-168.910004</ele>
<time>2023-03-08T12:16:00.862Z</time>
</trkpt>
<trkpt lat="30.9295700" lon="35.2514200">
<ele>-169.989990</ele>
<time>2023-03-08T12:16:00.862Z</time>
</trkpt>
<trkpt lat="30.9299800" lon="35.2517400">
<ele>-174.159988</ele>
<time>2023-03-08T12:16:00.862Z</time>
</trkpt>
<trkpt lat="30.9304000" lon="35.2520600">
<ele>-177.550003</ele>
<time>2023-03-08T12:16:00.862Z</time>
</trkpt>
<trkpt lat="30.9308200" lon="35.2523800">
<ele>-181.190002</ele>
<time>2023-03-08T12:16:00.862Z</time>
</trkpt>
<trkpt lat="30.9310400" lon="35.2526600">
<ele>-180.680008</ele>
<time>2023-03-08T12:16:00.862Z</time>
</trkpt>
<trkpt lat="30.9310700" lon="35.2530200">
<ele>-184.020004</ele>
<time>2023-03-08T12:16:00.862Z</time>
</trkpt>
<trkpt lat="30.9313200" lon="35.2537000">
<ele>-187.740005</ele>
<time>2023-03-08T12:16:00.862Z</time>
</trkpt>
<trkpt lat="30.9315700" lon="35.2543800">
<ele>-188.390015</ele>
<time>2023-03-08T12:16:00.862Z</time>
</trkpt>
<trkpt lat="30.9315700" lon="35.2551500">
<ele>-187.529999</ele>
<time>2023-03-08T12:16:00.862Z</time>
</trkpt>
<trkpt lat="30.9313100" lon="35.2560100">
<ele>-188.520004</ele>
<time>2023-03-08T12:16:00.862Z</time>
</trkpt>
<trkpt lat="30.9307300" lon="35.2566800">
<ele>-182.659988</ele>
<time>2023-03-08T12:16:00.862Z</time>
</trkpt>
<trkpt lat="30.9302700" lon="35.2567800">
<ele>-188.349991</ele>
<time>2023-03-08T12:16:00.862Z</time>
</trkpt>
<trkpt lat="30.9295700" lon="35.2566400">
<ele>-183.889999</ele>
<time>2023-03-08T12:16:00.862Z</time>
</trkpt>
<trkpt lat="30.9288800" lon="35.2571200">
<ele>-192.880005</ele>
<time>2023-03-08T12:16:00.862Z</time>
</trkpt>
<trkpt lat="30.9284900" lon="35.2574600">
<ele>-190.910004</ele>
<time>2023-03-08T12:16:00.862Z</time>
</trkpt>
<trkpt lat="30.9281100" lon="35.2578000">
<ele>-192.830002</ele>
<time>2023-03-08T12:16:00.862Z</time>
</trkpt>
<trkpt lat="30.9277200" lon="35.2581400">
<ele>-194.810013</ele>
<time>2023-03-08T12:16:00.862Z</time>
</trkpt>
<trkpt lat="30.9274300" lon="35.2588000">
<ele>-188.960007</ele>
<time>2023-03-08T12:16:00.862Z</time>
</trkpt>
<trkpt lat="30.9273700" lon="35.2593300">
<ele>-183.660004</ele>
<time>2023-03-08T12:16:00.862Z</time>
</trkpt>
<trkpt lat="30.9271400" lon="35.2599100">
<ele>-187.989990</ele>
<time>2023-03-08T12:16:00.862Z</time>
</trkpt>
<trkpt lat="30.9269100" lon="35.2604900">
<ele>-190.539993</ele>
<time>2023-03-08T12:16:00.862Z</time>
</trkpt>
<trkpt lat="30.9268000" lon="35.2612000">
<ele>-191.250000</ele>
<time>2023-03-08T12:16:00.862Z</time>
</trkpt>
<trkpt lat="30.9268400" lon="35.2619500">
<ele>-192.500015</ele>
<time>2023-03-08T12:16:00.862Z</time>
</trkpt>
<trkpt lat="30.9267200" lon="35.2624800">
<ele>-193.480011</ele>
<time>2023-03-08T12:16:00.862Z</time>
</trkpt>
<trkpt lat="30.9266700" lon="35.2626000">
<ele>-193.259995</ele>
<time>2023-03-08T12:16:00.862Z</time>
</trkpt>
<trkpt lat="30.9263900" lon="35.2628100">
<ele>-187.550003</ele>
<time>2023-03-08T12:16:00.862Z</time>
</trkpt>
<trkpt lat="30.9266800" lon="35.2634000">
<ele>-186.410004</ele>
<time>2023-03-08T12:16:00.862Z</time>
</trkpt>
<trkpt lat="30.9269800" lon="35.2640000">
<ele>-191.639999</ele>
<time>2023-03-08T12:16:00.862Z</time>
</trkpt>
<trkpt lat="30.9272700" lon="35.2645900">
<ele>-201.250000</ele>
<time>2023-03-08T12:16:00.862Z</time>
</trkpt>
<trkpt lat="30.9272900" lon="35.2647700">
<ele>-200.979996</ele>
<time>2023-03-08T12:16:00.862Z</time>
</trkpt>
<trkpt lat="30.9272200" lon="35.2650100">
<ele>-198.819992</ele>
<time>2023-03-08T12:16:00.862Z</time>
</trkpt>
<trkpt lat="30.9274400" lon="35.2656000">
<ele>-199.670013</ele>
<time>2023-03-08T12:16:00.862Z</time>
</trkpt>
<trkpt lat="30.9274400" lon="35.2659000">
<ele>-199.300003</ele>
<time>2023-03-08T12:16:00.862Z</time>
</trkpt>
<trkpt lat="30.9275500" lon="35.2663700">
<ele>-199.779999</ele>
<time>2023-03-08T12:16:00.862Z</time>
</trkpt>
<trkpt lat="30.9277900" lon="35.2668800">
<ele>-198.790009</ele>
<time>2023-03-08T12:16:00.862Z</time>
</trkpt>
<trkpt lat="30.9280200" lon="35.2673800">
<ele>-193.270004</ele>
<time>2023-03-08T12:16:00.862Z</time>
</trkpt>
<trkpt lat="30.9283800" lon="35.2679400">
<ele>-196.529999</ele>
<time>2023-03-08T12:16:00.862Z</time>
</trkpt>
<trkpt lat="30.9286400" lon="35.2682200">
<ele>-199.410004</ele>
<time>2023-03-08T12:16:00.862Z</time>
</trkpt>
<trkpt lat="30.9288700" lon="35.2686500">
<ele>-200.590012</ele>
<time>2023-03-08T12:16:00.862Z</time>
</trkpt>
<trkpt lat="30.9289500" lon="35.2691800">
<ele>-205.850006</ele>
<time>2023-03-08T12:16:00.862Z</time>
</trkpt>
<trkpt lat="30.9288600" lon="35.2698800">
<ele>-201.860001</ele>
<time>2023-03-08T12:16:00.862Z</time>
</trkpt>
<trkpt lat="30.9287400" lon="35.2702200">
<ele>-197.360016</ele>
<time>2023-03-08T12:16:00.862Z</time>
</trkpt>
<trkpt lat="30.9287700" lon="35.2706600">
<ele>-199.360001</ele>
<time>2023-03-08T12:16:00.862Z</time>
</trkpt>
<trkpt lat="30.9287100" lon="35.2709400">
<ele>-193.710007</ele>
<time>2023-03-08T12:16:00.862Z</time>
</trkpt>
<trkpt lat="30.9287900" lon="35.2712500">
<ele>-195.339996</ele>
<time>2023-03-08T12:16:00.862Z</time>
</trkpt>
<trkpt lat="30.9287800" lon="35.2715900">
<ele>-190.039993</ele>
<time>2023-03-08T12:16:00.862Z</time>
</trkpt>
<trkpt lat="30.9284700" lon="35.2718400">
<ele>-172.290009</ele>
<time>2023-03-08T12:16:00.862Z</time>
</trkpt>
<trkpt lat="30.9282500" lon="35.2717500">
<ele>-172.690002</ele>
<time>2023-03-08T12:16:00.862Z</time>
</trkpt>
<trkpt lat="30.9278000" lon="35.2717900">
<ele>-178.719986</ele>
<time>2023-03-08T12:16:00.862Z</time>
</trkpt>
<trkpt lat="30.9273400" lon="35.2718400">
<ele>-180.579987</ele>
<time>2023-03-08T12:16:00.862Z</time>
</trkpt>
<trkpt lat="30.9268900" lon="35.2718800">
<ele>-177.969986</ele>
<time>2023-03-08T12:16:00.862Z</time>
</trkpt>
<trkpt lat="30.9264300" lon="35.2719200">
<ele>-169.270004</ele>
<time>2023-03-08T12:16:00.862Z</time>
</trkpt>
<trkpt lat="30.9259700" lon="35.2719700">
<ele>-167.520004</ele>
<time>2023-03-08T12:16:00.862Z</time>
</trkpt>
<trkpt lat="30.9255200" lon="35.2720100">
<ele>-162.699997</ele>
<time>2023-03-08T12:16:00.862Z</time>
</trkpt>
<trkpt lat="30.9247300" lon="35.2719700">
<ele>-150.570007</ele>
<time>2023-03-08T12:16:00.862Z</time>
</trkpt>
<trkpt lat="30.9240800" lon="35.2721500">
<ele>-152.319992</ele>
<time>2023-03-08T12:16:00.862Z</time>
</trkpt>
<trkpt lat="30.9237500" lon="35.2724700">
<ele>-161.449997</ele>
<time>2023-03-08T12:16:00.862Z</time>
</trkpt>
<trkpt lat="30.9232200" lon="35.2731700">
<ele>-166.960007</ele>
<time>2023-03-08T12:16:00.862Z</time>
</trkpt>
<trkpt lat="30.9227800" lon="35.2735800">
<ele>-170.750000</ele>
<time>2023-03-08T12:16:00.862Z</time>
</trkpt>
<trkpt lat="30.9223400" lon="35.2738600">
<ele>-173.660004</ele>
<time>2023-03-08T12:16:00.862Z</time>
</trkpt>
<trkpt lat="30.9219600" lon="35.2742900">
<ele>-176.879990</ele>
<time>2023-03-08T12:16:00.862Z</time>
</trkpt>
<trkpt lat="30.9215800" lon="35.2747200">
<ele>-179.930008</ele>
<time>2023-03-08T12:16:00.862Z</time>
</trkpt>
<trkpt lat="30.9212000" lon="35.2751500">
<ele>-183.669998</ele>
<time>2023-03-08T12:16:00.862Z</time>
</trkpt>
<trkpt lat="30.9211600" lon="35.2752400">
<ele>-183.759995</ele>
<time>2023-03-08T12:16:00.862Z</time>
</trkpt>
<trkpt lat="30.9210900" lon="35.2762100">
<ele>-185.099991</ele>
<time>2023-03-08T12:16:00.862Z</time>
</trkpt>
<trkpt lat="30.9209800" lon="35.2767600">
<ele>-187.620010</ele>
<time>2023-03-08T12:16:00.862Z</time>
</trkpt>
<trkpt lat="30.9209600" lon="35.2774800">
<ele>-191.510010</ele>
<time>2023-03-08T12:16:00.862Z</time>
</trkpt>
<trkpt lat="30.9207800" lon="35.2784100">
<ele>-193.279999</ele>
<time>2023-03-08T12:16:00.862Z</time>
</trkpt>
<trkpt lat="30.9207700" lon="35.2788500">
<ele>-195.250000</ele>
<time>2023-03-08T12:16:00.862Z</time>
</trkpt>
<trkpt lat="30.9204400" lon="35.2790100">
<ele>-196.509995</ele>
<time>2023-03-08T12:16:00.862Z</time>
</trkpt>
<trkpt lat="30.9207300" lon="35.2799600">
<ele>-191.649994</ele>
<time>2023-03-08T12:16:00.862Z</time>
</trkpt>
<trkpt lat="30.9210000" lon="35.2805200">
<ele>-192.900009</ele>
<time>2023-03-08T12:16:00.862Z</time>
</trkpt>
<trkpt lat="30.9212600" lon="35.2810800">
<ele>-192.410004</ele>
<time>2023-03-08T12:16:00.862Z</time>
</trkpt>
<trkpt lat="30.9215300" lon="35.2816400">
<ele>-189.480011</ele>
<time>2023-03-08T12:16:00.862Z</time>
</trkpt>
<trkpt lat="30.9217600" lon="35.2822700">
<ele>-187.500000</ele>
<time>2023-03-08T12:16:00.862Z</time>
</trkpt>
<trkpt lat="30.9219900" lon="35.2829000">
<ele>-187.910004</ele>
<time>2023-03-08T12:16:00.862Z</time>
</trkpt>
<trkpt lat="30.9222200" lon="35.2835300">
<ele>-188.710007</ele>
<time>2023-03-08T12:16:00.862Z</time>
</trkpt>
<trkpt lat="30.9225700" lon="35.2840800">
<ele>-193.229996</ele>
<time>2023-03-08T12:16:00.862Z</time>
</trkpt>
<trkpt lat="30.9229100" lon="35.2846300">
<ele>-196.020004</ele>
<time>2023-03-08T12:16:00.862Z</time>
</trkpt>
<trkpt lat="30.9229800" lon="35.2851600">
<ele>-200.580002</ele>
<time>2023-03-08T12:16:00.862Z</time>
</trkpt>
<trkpt lat="30.9229400" lon="35.2857600">
<ele>-203.549988</ele>
<time>2023-03-08T12:16:00.862Z</time>
</trkpt>
<trkpt lat="30.9226700" lon="35.2863000">
<ele>-205.850006</ele>
<time>2023-03-08T12:16:00.862Z</time>
</trkpt>
<trkpt lat="30.9224000" lon="35.2868300">
<ele>-204.769989</ele>
<time>2023-03-08T12:16:00.862Z</time>
</trkpt>
<trkpt lat="30.9224400" lon="35.2877400">
<ele>-207.480011</ele>
<time>2023-03-08T12:16:00.862Z</time>
</trkpt>
<trkpt lat="30.9223100" lon="35.2880000">
<ele>-209.850006</ele>
<time>2023-03-08T12:16:00.862Z</time>
</trkpt>
<trkpt lat="30.9223200" lon="35.2887100">
<ele>-210.589996</ele>
<time>2023-03-08T12:16:00.862Z</time>
</trkpt>
<trkpt lat="30.9222000" lon="35.2892500">
<ele>-210.630005</ele>
<time>2023-03-08T12:16:00.862Z</time>
</trkpt>
<trkpt lat="30.9220700" lon="35.2897900">
<ele>-209.949997</ele>
<time>2023-03-08T12:16:00.862Z</time>
</trkpt>
<trkpt lat="30.9216600" lon="35.2904900">
<ele>-213.960007</ele>
<time>2023-03-08T12:16:00.862Z</time>
</trkpt>
<trkpt lat="30.9214900" lon="35.2911200">
<ele>-213.380005</ele>
<time>2023-03-08T12:16:00.862Z</time>
</trkpt>
<trkpt lat="30.9213200" lon="35.2917400">
<ele>-209.490005</ele>
<time>2023-03-08T12:16:00.862Z</time>
</trkpt>
<trkpt lat="30.9214000" lon="35.2922600">
<ele>-209.040009</ele>
<time>2023-03-08T12:16:00.862Z</time>
</trkpt>
<trkpt lat="30.9219100" lon="35.2930500">
<ele>-216.479996</ele>
<time>2023-03-08T12:16:00.862Z</time>
</trkpt>
<trkpt lat="30.9220900" lon="35.2932300">
<ele>-215.619995</ele>
<time>2023-03-08T12:16:00.862Z</time>
</trkpt>
<trkpt lat="30.9220800" lon="35.2934300">
<ele>-214.839996</ele>
<time>2023-03-08T12:16:00.862Z</time>
</trkpt>
<trkpt lat="30.9216400" lon="35.2937800">
<ele>-217.449997</ele>
<time>2023-03-08T12:16:00.862Z</time>
</trkpt>
<trkpt lat="30.9211900" lon="35.2941300">
<ele>-220.020004</ele>
<time>2023-03-08T12:16:00.862Z</time>
</trkpt>
<trkpt lat="30.9207500" lon="35.2944800">
<ele>-219.309998</ele>
<time>2023-03-08T12:16:00.862Z</time>
</trkpt>
<trkpt lat="30.9204600" lon="35.2949300">
<ele>-218.149994</ele>
<time>2023-03-08T12:16:00.862Z</time>
</trkpt>
<trkpt lat="30.9205400" lon="35.2950500">
<ele>-219.409988</ele>
<time>2023-03-08T12:16:00.862Z</time>
</trkpt>
<trkpt lat="30.9209300" lon="35.2952400">
<ele>-219.940002</ele>
<time>2023-03-08T12:16:00.862Z</time>
</trkpt>
<trkpt lat="30.9210500" lon="35.2954000">
<ele>-220.320007</ele>
<time>2023-03-08T12:16:00.862Z</time>
</trkpt>
<trkpt lat="30.9210700" lon="35.2957700">
<ele>-220.869995</ele>
<time>2023-03-08T12:16:00.862Z</time>
</trkpt>
<trkpt lat="30.9208800" lon="35.2967000">
<ele>-221.419998</ele>
<time>2023-03-08T12:16:00.862Z</time>
</trkpt>
<trkpt lat="30.9210200" lon="35.2974200">
<ele>-216.819992</ele>
<time>2023-03-08T12:16:00.862Z</time>
</trkpt>
<trkpt lat="30.9211700" lon="35.2978100">
<ele>-217.750000</ele>
<time>2023-03-08T12:16:00.862Z</time>
</trkpt>
<trkpt lat="30.9213300" lon="35.2980400">
<ele>-220.660004</ele>
<time>2023-03-08T12:16:00.862Z</time>
</trkpt>
<trkpt lat="30.9216200" lon="35.2982200">
<ele>-219.929993</ele>
<time>2023-03-08T12:16:00.862Z</time>
</trkpt>
<trkpt lat="30.9218500" lon="35.2989700">
<ele>-219.940002</ele>
<time>2023-03-08T12:16:00.862Z</time>
</trkpt>
<trkpt lat="30.9219100" lon="35.2998800">
<ele>-229.820007</ele>
<time>2023-03-08T12:16:00.862Z</time>
</trkpt>
<trkpt lat="30.9217700" lon="35.3004600">
<ele>-227.179993</ele>
<time>2023-03-08T12:16:00.862Z</time>
</trkpt>
<trkpt lat="30.9218000" lon="35.3006100">
<ele>-226.830002</ele>
<time>2023-03-08T12:16:00.862Z</time>
</trkpt>
<trkpt lat="30.9219600" lon="35.3008300">
<ele>-228.119995</ele>
<time>2023-03-08T12:16:00.862Z</time>
</trkpt>
<trkpt lat="30.9220400" lon="35.3008300">
<ele>-228.699997</ele>
<time>2023-03-08T12:16:00.862Z</time>
</trkpt>
<trkpt lat="30.9222200" lon="35.3005900">
<ele>-230.859985</ele>
<time>2023-03-08T12:16:00.862Z</time>
</trkpt>
<trkpt lat="30.9229000" lon="35.3005100">
<ele>-225.750000</ele>
<time>2023-03-08T12:16:00.862Z</time>
</trkpt>
<trkpt lat="30.9230000" lon="35.3010900">
<ele>-224.430008</ele>
<time>2023-03-08T12:16:00.862Z</time>
</trkpt>
<trkpt lat="30.9228600" lon="35.3016400">
<ele>-229.089996</ele>
<time>2023-03-08T12:16:00.862Z</time>
</trkpt>
<trkpt lat="30.9232500" lon="35.3020600">
<ele>-226.850006</ele>
<time>2023-03-08T12:16:00.862Z</time>
</trkpt>
<trkpt lat="30.9233500" lon="35.3023700">
<ele>-223.139999</ele>
<time>2023-03-08T12:16:00.862Z</time>
</trkpt>
<trkpt lat="30.9233500" lon="35.3025000">
<ele>-220.940002</ele>
<time>2023-03-08T12:16:00.862Z</time>
</trkpt>
<trkpt lat="30.9231100" lon="35.3028000">
<ele>-224.990005</ele>
<time>2023-03-08T12:16:00.862Z</time>
</trkpt>
<trkpt lat="30.9230200" lon="35.3031100">
<ele>-225.010010</ele>
<time>2023-03-08T12:16:00.862Z</time>
</trkpt>
<trkpt lat="30.9228300" lon="35.3033100">
<ele>-224.220001</ele>
<time>2023-03-08T12:16:00.862Z</time>
</trkpt>
<trkpt lat="30.9227900" lon="35.3035800">
<ele>-223.069992</ele>
<time>2023-03-08T12:16:00.862Z</time>
</trkpt>
<trkpt lat="30.9226100" lon="35.3038500">
<ele>-223.600006</ele>
<time>2023-03-08T12:16:00.862Z</time>
</trkpt>
<trkpt lat="30.9222400" lon="35.3038300">
<ele>-226.810013</ele>
<time>2023-03-08T12:16:00.862Z</time>
</trkpt>
<trkpt lat="30.9219300" lon="35.3037100">
<ele>-228.419998</ele>
<time>2023-03-08T12:16:00.862Z</time>
</trkpt>
<trkpt lat="30.9216900" lon="35.3035200">
<ele>-231.159988</ele>
<time>2023-03-08T12:16:00.862Z</time>
</trkpt>
<trkpt lat="30.9214200" lon="35.3038200">
<ele>-229.330002</ele>
<time>2023-03-08T12:16:00.862Z</time>
</trkpt>
<trkpt lat="30.9213600" lon="35.3042700">
<ele>-230.160004</ele>
<time>2023-03-08T12:16:00.862Z</time>
</trkpt>
<trkpt lat="30.9209500" lon="35.3045800">
<ele>-229.010010</ele>
<time>2023-03-08T12:16:00.862Z</time>
</trkpt>
<trkpt lat="30.9209700" lon="35.3047300">
<ele>-228.520004</ele>
<time>2023-03-08T12:16:00.862Z</time>
</trkpt>
<trkpt lat="30.9213200" lon="35.3050900">
<ele>-235.240005</ele>
<time>2023-03-08T12:16:00.862Z</time>
</trkpt>
<trkpt lat="30.9216600" lon="35.3054400">
<ele>-236.610001</ele>
<time>2023-03-08T12:16:00.862Z</time>
</trkpt>
<trkpt lat="30.9217700" lon="35.3058000">
<ele>-235.509995</ele>
<time>2023-03-08T12:16:00.862Z</time>
</trkpt>
<trkpt lat="30.9217800" lon="35.3061300">
<ele>-236.440002</ele>
<time>2023-03-08T12:16:00.862Z</time>
</trkpt>
<trkpt lat="30.9216400" lon="35.3063800">
<ele>-237.349991</ele>
<time>2023-03-08T12:16:00.862Z</time>
</trkpt>
<trkpt lat="30.9216100" lon="35.3067600">
<ele>-234.059998</ele>
<time>2023-03-08T12:16:00.862Z</time>
</trkpt>
<trkpt lat="30.9215100" lon="35.3069300">
<ele>-232.339996</ele>
<time>2023-03-08T12:16:00.862Z</time>
</trkpt>
<trkpt lat="30.9211800" lon="35.3071900">
<ele>-233.529999</ele>
<time>2023-03-08T12:16:00.862Z</time>
</trkpt>
<trkpt lat="30.9207400" lon="35.3072400">
<ele>-237.649994</ele>
<time>2023-03-08T12:16:00.862Z</time>
</trkpt>
<trkpt lat="30.9206100" lon="35.3075200">
<ele>-237.570007</ele>
<time>2023-03-08T12:16:00.862Z</time>
</trkpt>
<trkpt lat="30.9206700" lon="35.3076900">
<ele>-235.979996</ele>
<time>2023-03-08T12:16:00.862Z</time>
</trkpt>
<trkpt lat="30.9210500" lon="35.3080500">
<ele>-236.580002</ele>
<time>2023-03-08T12:16:00.862Z</time>
</trkpt>
<trkpt lat="30.9212000" lon="35.3081100">
<ele>-237.239990</ele>
<time>2023-03-08T12:16:00.862Z</time>
</trkpt>
<trkpt lat="30.9215400" lon="35.3080500">
<ele>-238.410004</ele>
<time>2023-03-08T12:16:00.862Z</time>
</trkpt>
<trkpt lat="30.9217600" lon="35.3084900">
<ele>-240.559998</ele>
<time>2023-03-08T12:16:00.862Z</time>
</trkpt>
<trkpt lat="30.9216400" lon="35.3094300">
<ele>-235.289993</ele>
<time>2023-03-08T12:16:00.862Z</time>
</trkpt>
<trkpt lat="30.9216600" lon="35.3096700">
<ele>-233.389999</ele>
<time>2023-03-08T12:16:00.862Z</time>
</trkpt>
<trkpt lat="30.9222500" lon="35.3103900">
<ele>-239.890015</ele>
<time>2023-03-08T12:16:00.862Z</time>
</trkpt>
<trkpt lat="30.9225300" lon="35.3104400">
<ele>-236.680008</ele>
<time>2023-03-08T12:16:00.862Z</time>
</trkpt>
<trkpt lat="30.9226800" lon="35.3106300">
<ele>-235.430008</ele>
<time>2023-03-08T12:16:00.862Z</time>
</trkpt>
<trkpt lat="30.9224200" lon="35.3110100">
<ele>-236.559998</ele>
<time>2023-03-08T12:16:00.862Z</time>
</trkpt>
<trkpt lat="30.9220900" lon="35.3112300">
<ele>-237.859985</ele>
<time>2023-03-08T12:16:00.862Z</time>
</trkpt>
<trkpt lat="30.9217000" lon="35.3112200">
<ele>-240.930008</ele>
<time>2023-03-08T12:16:00.862Z</time>
</trkpt>
<trkpt lat="30.9213900" lon="35.3111100">
<ele>-242.990005</ele>
<time>2023-03-08T12:16:00.862Z</time>
</trkpt>
<trkpt lat="30.9211700" lon="35.3113600">
<ele>-243.110001</ele>
<time>2023-03-08T12:16:00.862Z</time>
</trkpt>
<trkpt lat="30.9211200" lon="35.3116100">
<ele>-242.289993</ele>
<time>2023-03-08T12:16:00.862Z</time>
</trkpt>
<trkpt lat="30.9211400" lon="35.3123200">
<ele>-241.839996</ele>
<time>2023-03-08T12:16:00.862Z</time>
</trkpt>
<trkpt lat="30.9211800" lon="35.3124400">
<ele>-242.830002</ele>
<time>2023-03-08T12:16:00.862Z</time>
</trkpt>
<trkpt lat="30.9214400" lon="35.3125800">
<ele>-245.840012</ele>
<time>2023-03-08T12:16:00.862Z</time>
</trkpt>
<trkpt lat="30.9216800" lon="35.3130700">
<ele>-242.950012</ele>
<time>2023-03-08T12:16:00.862Z</time>
</trkpt>
<trkpt lat="30.9219100" lon="35.3135600">
<ele>-241.229996</ele>
<time>2023-03-08T12:16:00.862Z</time>
</trkpt>
<trkpt lat="30.9219000" lon="35.3137700">
<ele>-243.240005</ele>
<time>2023-03-08T12:16:00.862Z</time>
</trkpt>
<trkpt lat="30.9217700" lon="35.3141800">
<ele>-244.729996</ele>
<time>2023-03-08T12:16:00.862Z</time>
</trkpt>
<trkpt lat="30.9215300" lon="35.3142100">
<ele>-243.580002</ele>
<time>2023-03-08T12:16:00.862Z</time>
</trkpt>
<trkpt lat="30.9214100" lon="35.3145600">
<ele>-244.800003</ele>
<time>2023-03-08T12:16:00.862Z</time>
</trkpt>
<trkpt lat="30.9214100" lon="35.3149800">
<ele>-245.849991</ele>
<time>2023-03-08T12:16:00.862Z</time>
</trkpt>
<trkpt lat="30.9215100" lon="35.3152700">
<ele>-243.180008</ele>
<time>2023-03-08T12:16:00.862Z</time>
</trkpt>
<trkpt lat="30.9215100" lon="35.3154900">
<ele>-242.459991</ele>
<time>2023-03-08T12:16:00.862Z</time>
</trkpt>
<trkpt lat="30.9213600" lon="35.3156900">
<ele>-244.470001</ele>
<time>2023-03-08T12:16:00.862Z</time>
</trkpt>
<trkpt lat="30.9207400" lon="35.3158900">
<ele>-249.650009</ele>
<time>2023-03-08T12:16:00.862Z</time>
</trkpt>
<trkpt lat="30.9204000" lon="35.3164600">
<ele>-245.210007</ele>
<time>2023-03-08T12:16:00.862Z</time>
</trkpt>
<trkpt lat="30.9200500" lon="35.3170300">
<ele>-248.380005</ele>
<time>2023-03-08T12:16:00.862Z</time>
</trkpt>
<trkpt lat="30.9195700" lon="35.3173800">
<ele>-250.829987</ele>
<time>2023-03-08T12:16:00.862Z</time>
</trkpt>
<trkpt lat="30.9196300" lon="35.3177300">
<ele>-250.180008</ele>
<time>2023-03-08T12:16:00.862Z</time>
</trkpt>
<trkpt lat="30.9200400" lon="35.3181900">
<ele>-255.589996</ele>
<time>2023-03-08T12:16:00.862Z</time>
</trkpt>
<trkpt lat="30.9204400" lon="35.3186500">
<ele>-254.309998</ele>
<time>2023-03-08T12:16:00.862Z</time>
</trkpt>
<trkpt lat="30.9207400" lon="35.3191800">
<ele>-250.339996</ele>
<time>2023-03-08T12:16:00.862Z</time>
</trkpt>
<trkpt lat="30.9207300" lon="35.3193800">
<ele>-250.489990</ele>
<time>2023-03-08T12:16:00.862Z</time>
</trkpt>
<trkpt lat="30.9206100" lon="35.3197200">
<ele>-252.219986</ele>
<time>2023-03-08T12:16:00.862Z</time>
</trkpt>
<trkpt lat="30.9203100" lon="35.3201200">
<ele>-257.919983</ele>
<time>2023-03-08T12:16:00.862Z</time>
</trkpt>
<trkpt lat="30.9201600" lon="35.3208200">
<ele>-253.910004</ele>
<time>2023-03-08T12:16:00.862Z</time>
</trkpt>
<trkpt lat="30.9201800" lon="35.3213100">
<ele>-255.349991</ele>
<time>2023-03-08T12:16:00.862Z</time>
</trkpt>
<trkpt lat="30.9202900" lon="35.3217500">
<ele>-257.750000</ele>
<time>2023-03-08T12:16:00.862Z</time>
</trkpt>
<trkpt lat="30.9201600" lon="35.3221700">
<ele>-250.199997</ele>
<time>2023-03-08T12:16:00.862Z</time>
</trkpt>
<trkpt lat="30.9201700" lon="35.3224300">
<ele>-247.029999</ele>
<time>2023-03-08T12:16:00.862Z</time>
</trkpt>
<trkpt lat="30.9203500" lon="35.3226000">
<ele>-249.269989</ele>
<time>2023-03-08T12:16:00.862Z</time>
</trkpt>
<trkpt lat="30.9207900" lon="35.3227900">
<ele>-253.710007</ele>
<time>2023-03-08T12:16:00.862Z</time>
</trkpt>
<trkpt lat="30.9211000" lon="35.3228100">
<ele>-253.869995</ele>
<time>2023-03-08T12:16:00.862Z</time>
</trkpt>
<trkpt lat="30.9218500" lon="35.3225700">
<ele>-259.750000</ele>
<time>2023-03-08T12:16:00.862Z</time>
</trkpt>
<trkpt lat="30.9223800" lon="35.3227500">
<ele>-257.619995</ele>
<time>2023-03-08T12:16:00.862Z</time>
</trkpt>
<trkpt lat="30.9227800" lon="35.3226900">
<ele>-256.670013</ele>
<time>2023-03-08T12:16:00.862Z</time>
</trkpt>
<trkpt lat="30.9229100" lon="35.3227500">
<ele>-256.380005</ele>
<time>2023-03-08T12:16:00.862Z</time>
</trkpt>
<trkpt lat="30.9229600" lon="35.3233900">
<ele>-257.800018</ele>
<time>2023-03-08T12:16:00.862Z</time>
</trkpt>
<trkpt lat="30.9231700" lon="35.3242900">
<ele>-253.699997</ele>
<time>2023-03-08T12:16:00.862Z</time>
</trkpt>
<trkpt lat="30.9230200" lon="35.3244400">
<ele>-253.160004</ele>
<time>2023-03-08T12:16:00.862Z</time>
</trkpt>
<trkpt lat="30.9226300" lon="35.3244100">
<ele>-253.119995</ele>
<time>2023-03-08T12:16:00.862Z</time>
</trkpt>
<trkpt lat="30.9222200" lon="35.3245500">
<ele>-250.250015</ele>
<time>2023-03-08T12:16:00.862Z</time>
</trkpt>
<trkpt lat="30.9221400" lon="35.3246800">
<ele>-249.600006</ele>
<time>2023-03-08T12:16:00.862Z</time>
</trkpt>
<trkpt lat="30.9221500" lon="35.3248400">
<ele>-248.730011</ele>
<time>2023-03-08T12:16:00.862Z</time>
</trkpt>
<trkpt lat="30.9224000" lon="35.3252300">
<ele>-252.329987</ele>
<time>2023-03-08T12:16:00.862Z</time>
</trkpt>
<trkpt lat="30.9229000" lon="35.3253700">
<ele>-256.459991</ele>
<time>2023-03-08T12:16:00.862Z</time>
</trkpt>
<trkpt lat="30.9231100" lon="35.3255100">
<ele>-253.839996</ele>
<time>2023-03-08T12:16:00.862Z</time>
</trkpt>
<trkpt lat="30.9231400" lon="35.3257100">
<ele>-252.960007</ele>
<time>2023-03-08T12:16:00.862Z</time>
</trkpt>
<trkpt lat="30.9228000" lon="35.3260600">
<ele>-249.679993</ele>
<time>2023-03-08T12:16:00.862Z</time>
</trkpt>
<trkpt lat="30.9228300" lon="35.3263700">
<ele>-248.970001</ele>
<time>2023-03-08T12:16:00.862Z</time>
</trkpt>
<trkpt lat="30.9233300" lon="35.3269500">
<ele>-256.889984</ele>
<time>2023-03-08T12:16:00.862Z</time>
</trkpt>
<trkpt lat="30.9237900" lon="35.3272700">
<ele>-260.410004</ele>
<time>2023-03-08T12:16:00.862Z</time>
</trkpt>
<trkpt lat="30.9241800" lon="35.3277000">
<ele>-258.369995</ele>
<time>2023-03-08T12:16:00.862Z</time>
</trkpt>
<trkpt lat="30.9243000" lon="35.3280200">
<ele>-258.100006</ele>
<time>2023-03-08T12:16:00.862Z</time>
</trkpt>
<trkpt lat="30.9241900" lon="35.3283900">
<ele>-256.410004</ele>
<time>2023-03-08T12:16:00.862Z</time>
</trkpt>
<trkpt lat="30.9242400" lon="35.3287600">
<ele>-256.619995</ele>
<time>2023-03-08T12:16:00.862Z</time>
</trkpt>
<trkpt lat="30.9243800" lon="35.3288800">
<ele>-259.190002</ele>
<time>2023-03-08T12:16:00.862Z</time>
</trkpt>
<trkpt lat="30.9249000" lon="35.3290400">
<ele>-267.869995</ele>
<time>2023-03-08T12:16:00.862Z</time>
</trkpt>
<trkpt lat="30.9250800" lon="35.3292100">
<ele>-269.989990</ele>
<time>2023-03-08T12:16:00.862Z</time>
</trkpt>
<trkpt lat="30.9251400" lon="35.3294700">
<ele>-272.850006</ele>
<time>2023-03-08T12:16:00.862Z</time>
</trkpt>
<trkpt lat="30.9251100" lon="35.3296600">
<ele>-272.169983</ele>
<time>2023-03-08T12:16:00.862Z</time>
</trkpt>
<trkpt lat="30.9250100" lon="35.3297900">
<ele>-271.679993</ele>
<time>2023-03-08T12:16:00.862Z</time>
</trkpt>
<trkpt lat="30.9245900" lon="35.3298800">
<ele>-267.730011</ele>
<time>2023-03-08T12:16:00.862Z</time>
</trkpt>
<trkpt lat="30.9244300" lon="35.3299900">
<ele>-265.790009</ele>
<time>2023-03-08T12:16:00.862Z</time>
</trkpt>
<trkpt lat="30.9243700" lon="35.3302000">
<ele>-264.399994</ele>
<time>2023-03-08T12:16:00.862Z</time>
</trkpt>
<trkpt lat="30.9244600" lon="35.3303500">
<ele>-264.220001</ele>
<time>2023-03-08T12:16:00.862Z</time>
</trkpt>
<trkpt lat="30.9250600" lon="35.3304300">
<ele>-262.360016</ele>
<time>2023-03-08T12:16:00.862Z</time>
</trkpt>
<trkpt lat="30.9256600" lon="35.3305100">
<ele>-260.989990</ele>
<time>2023-03-08T12:16:00.862Z</time>
</trkpt>
<trkpt lat="30.9262000" lon="35.3307300">
<ele>-266.690002</ele>
<time>2023-03-08T12:16:00.862Z</time>
</trkpt>
<trkpt lat="30.9267400" lon="35.3309600">
<ele>-267.339996</ele>
<time>2023-03-08T12:16:00.862Z</time>
</trkpt>
<trkpt lat="30.9271300" lon="35.3313100">
<ele>-273.669983</ele>
<time>2023-03-08T12:16:00.862Z</time>
</trkpt>
<trkpt lat="30.9274900" lon="35.3320600">
<ele>-277.779999</ele>
<time>2023-03-08T12:16:00.862Z</time>
</trkpt>
<trkpt lat="30.9276800" lon="35.3323100">
<ele>-276.399994</ele>
<time>2023-03-08T12:16:00.862Z</time>
</trkpt>
<trkpt lat="30.9278800" lon="35.3322800">
<ele>-275.850006</ele>
<time>2023-03-08T12:16:00.862Z</time>
</trkpt>
<trkpt lat="30.9281200" lon="35.3320200">
<ele>-272.919983</ele>
<time>2023-03-08T12:16:00.862Z</time>
</trkpt>
<trkpt lat="30.9282900" lon="35.3319900">
<ele>-268.420013</ele>
<time>2023-03-08T12:16:00.862Z</time>
</trkpt>
<trkpt lat="30.9284700" lon="35.3321500">
<ele>-265.399994</ele>
<time>2023-03-08T12:16:00.862Z</time>
</trkpt>
<trkpt lat="30.9286900" lon="35.3325100">
<ele>-264.559998</ele>
<time>2023-03-08T12:16:00.862Z</time>
</trkpt>
<trkpt lat="30.9288400" lon="35.3332100">
<ele>-266.489990</ele>
<time>2023-03-08T12:16:00.862Z</time>
</trkpt>
<trkpt lat="30.9292200" lon="35.3338800">
<ele>-275.779999</ele>
<time>2023-03-08T12:16:00.862Z</time>
</trkpt>
<trkpt lat="30.9294200" lon="35.3339700">
<ele>-277.769989</ele>
<time>2023-03-08T12:16:00.862Z</time>
</trkpt>
<trkpt lat="30.9299000" lon="35.3339300">
<ele>-278.359985</ele>
<time>2023-03-08T12:16:00.862Z</time>
</trkpt>
<trkpt lat="30.9303100" lon="35.3340400">
<ele>-278.740021</ele>
<time>2023-03-08T12:16:00.862Z</time>
</trkpt>
<trkpt lat="30.9307200" lon="35.3340100">
<ele>-271.440002</ele>
<time>2023-03-08T12:16:00.862Z</time>
</trkpt>
<trkpt lat="30.9308600" lon="35.3341100">
<ele>-269.540009</ele>
<time>2023-03-08T12:16:00.862Z</time>
</trkpt>
<trkpt lat="30.9309200" lon="35.3343300">
<ele>-272.119995</ele>
<time>2023-03-08T12:16:00.862Z</time>
</trkpt>
<trkpt lat="30.9307800" lon="35.3348500">
<ele>-274.019989</ele>
<time>2023-03-08T12:16:00.862Z</time>
</trkpt>
<trkpt lat="30.9308300" lon="35.3350900">
<ele>-274.250000</ele>
<time>2023-03-08T12:16:00.862Z</time>
</trkpt>
<trkpt lat="30.9310100" lon="35.3352100">
<ele>-275.550018</ele>
<time>2023-03-08T12:16:00.862Z</time>
</trkpt>
<trkpt lat="30.9313300" lon="35.3348600">
<ele>-279.880005</ele>
<time>2023-03-08T12:16:00.862Z</time>
</trkpt>
<trkpt lat="30.9314800" lon="35.3347600">
<ele>-276.250000</ele>
<time>2023-03-08T12:16:00.862Z</time>
</trkpt>
<trkpt lat="30.9316600" lon="35.3347400">
<ele>-271.419983</ele>
<time>2023-03-08T12:16:00.862Z</time>
</trkpt>
<trkpt lat="30.9317400" lon="35.3348700">
<ele>-271.649994</ele>
<time>2023-03-08T12:16:00.862Z</time>
</trkpt>
<trkpt lat="30.9317800" lon="35.3354300">
<ele>-274.899994</ele>
<time>2023-03-08T12:16:00.862Z</time>
</trkpt>
<trkpt lat="30.9319900" lon="35.3357300">
<ele>-270.809998</ele>
<time>2023-03-08T12:16:00.862Z</time>
</trkpt>
<trkpt lat="30.9321200" lon="35.3357000">
<ele>-271.260010</ele>
<time>2023-03-08T12:16:00.862Z</time>
</trkpt>
<trkpt lat="30.9322700" lon="35.3353600">
<ele>-274.580017</ele>
<time>2023-03-08T12:16:00.862Z</time>
</trkpt>
<trkpt lat="30.9324200" lon="35.3352300">
<ele>-278.070007</ele>
<time>2023-03-08T12:16:00.862Z</time>
</trkpt>
<trkpt lat="30.9331400" lon="35.3351400">
<ele>-277.450012</ele>
<time>2023-03-08T12:16:00.862Z</time>
</trkpt>
<trkpt lat="30.9334100" lon="35.3351400">
<ele>-278.220001</ele>
<time>2023-03-08T12:16:00.862Z</time>
</trkpt>
<trkpt lat="30.9337100" lon="35.3352700">
<ele>-276.700012</ele>
<time>2023-03-08T12:16:00.862Z</time>
</trkpt>
<trkpt lat="30.9340000" lon="35.3351900">
<ele>-274.839996</ele>
<time>2023-03-08T12:16:00.862Z</time>
</trkpt>
<trkpt lat="30.9340600" lon="35.3351200">
<ele>-275.010010</ele>
<time>2023-03-08T12:16:00.862Z</time>
</trkpt>
<trkpt lat="30.9340900" lon="35.3344900">
<ele>-286.440002</ele>
<time>2023-03-08T12:16:00.862Z</time>
</trkpt>
<trkpt lat="30.9342300" lon="35.3343000">
<ele>-288.160004</ele>
<time>2023-03-08T12:16:00.862Z</time>
</trkpt>
<trkpt lat="30.9344700" lon="35.3342400">
<ele>-286.049988</ele>
<time>2023-03-08T12:16:00.862Z</time>
</trkpt>
<trkpt lat="30.9348900" lon="35.3345800">
<ele>-282.359985</ele>
<time>2023-03-08T12:16:00.862Z</time>
</trkpt>
<trkpt lat="30.9354300" lon="35.3352500">
<ele>-282.559998</ele>
<time>2023-03-08T12:16:00.862Z</time>
</trkpt>
<trkpt lat="30.9356600" lon="35.3354400">
<ele>-284.049988</ele>
<time>2023-03-08T12:16:00.862Z</time>
</trkpt>
<trkpt lat="30.9361600" lon="35.3355400">
<ele>-285.910004</ele>
<time>2023-03-08T12:16:00.862Z</time>
</trkpt>
<trkpt lat="30.9366600" lon="35.3356500">
<ele>-284.010010</ele>
<time>2023-03-08T12:16:00.862Z</time>
</trkpt>
<trkpt lat="30.9368200" lon="35.3360700">
<ele>-287.539978</ele>
<time>2023-03-08T12:16:00.862Z</time>
</trkpt>
<trkpt lat="30.9372900" lon="35.3362900">
<ele>-296.850006</ele>
<time>2023-03-08T12:16:00.862Z</time>
</trkpt>
<trkpt lat="30.9373300" lon="35.3364400">
<ele>-297.589996</ele>
<time>2023-03-08T12:16:00.862Z</time>
</trkpt>
<trkpt lat="30.9371700" lon="35.3368400">
<ele>-290.799988</ele>
<time>2023-03-08T12:16:00.862Z</time>
</trkpt>
<trkpt lat="30.9372400" lon="35.3370400">
<ele>-288.880005</ele>
<time>2023-03-08T12:16:00.862Z</time>
</trkpt>
<trkpt lat="30.9373900" lon="35.3371200">
<ele>-289.350006</ele>
<time>2023-03-08T12:16:00.862Z</time>
</trkpt>
<trkpt lat="30.9377000" lon="35.3371300">
<ele>-295.850006</ele>
<time>2023-03-08T12:16:00.862Z</time>
</trkpt>
<trkpt lat="30.9380600" lon="35.3376500">
<ele>-289.070007</ele>
<time>2023-03-08T12:16:00.862Z</time>
</trkpt>
<trkpt lat="30.9386400" lon="35.3374000">
<ele>-297.559998</ele>
<time>2023-03-08T12:16:00.862Z</time>
</trkpt>
<trkpt lat="30.9388700" lon="35.3373600">
<ele>-296.079987</ele>
<time>2023-03-08T12:16:00.862Z</time>
</trkpt>
<trkpt lat="30.9392100" lon="35.3374500">
<ele>-293.440002</ele>
<time>2023-03-08T12:16:00.862Z</time>
</trkpt>
<trkpt lat="30.9395800" lon="35.3380100">
<ele>-295.309998</ele>
<time>2023-03-08T12:16:00.862Z</time>
</trkpt>
<trkpt lat="30.9398400" lon="35.3389900">
<ele>-288.500000</ele>
<time>2023-03-08T12:16:00.862Z</time>
</trkpt>
<trkpt lat="30.9400300" lon="35.3394000">
<ele>-287.619995</ele>
<time>2023-03-08T12:16:00.862Z</time>
</trkpt>
<trkpt lat="30.9404300" lon="35.3397300">
<ele>-297.269989</ele>
<time>2023-03-08T12:16:00.862Z</time>
</trkpt>
<trkpt lat="30.9410100" lon="35.3397700">
<ele>-293.929993</ele>
<time>2023-03-08T12:16:00.862Z</time>
</trkpt>
<trkpt lat="30.9409700" lon="35.3403100">
<ele>-290.210022</ele>
<time>2023-03-08T12:16:00.862Z</time>
</trkpt>
<trkpt lat="30.9410200" lon="35.3404800">
<ele>-289.130005</ele>
<time>2023-03-08T12:16:00.862Z</time>
</trkpt>
<trkpt lat="30.9410900" lon="35.3405600">
<ele>-289.709991</ele>
<time>2023-03-08T12:16:00.862Z</time>
</trkpt>
<trkpt lat="30.9415800" lon="35.3406700">
<ele>-289.950012</ele>
<time>2023-03-08T12:16:00.862Z</time>
</trkpt>
<trkpt lat="30.9417500" lon="35.3407800">
<ele>-287.920013</ele>
<time>2023-03-08T12:16:00.862Z</time>
</trkpt>
<trkpt lat="30.9417300" lon="35.3410400">
<ele>-288.029999</ele>
<time>2023-03-08T12:16:00.862Z</time>
</trkpt>
<trkpt lat="30.9413400" lon="35.3413400">
<ele>-292.940002</ele>
<time>2023-03-08T12:16:00.862Z</time>
</trkpt>
<trkpt lat="30.9413700" lon="35.3416200">
<ele>-293.109985</ele>
<time>2023-03-08T12:16:00.862Z</time>
</trkpt>
<trkpt lat="30.9417200" lon="35.3421500">
<ele>-281.660004</ele>
<time>2023-03-08T12:16:00.862Z</time>
</trkpt>
<trkpt lat="30.9416400" lon="35.3423400">
<ele>-284.440002</ele>
<time>2023-03-08T12:16:00.862Z</time>
</trkpt>
<trkpt lat="30.9413000" lon="35.3424200">
<ele>-293.769989</ele>
<time>2023-03-08T12:16:00.862Z</time>
</trkpt>
<trkpt lat="30.9411200" lon="35.3425800">
<ele>-292.160004</ele>
<time>2023-03-08T12:16:00.862Z</time>
</trkpt>
<trkpt lat="30.9413800" lon="35.3428600">
<ele>-289.089996</ele>
<time>2023-03-08T12:16:00.862Z</time>
</trkpt>
<trkpt lat="30.9418700" lon="35.3431800">
<ele>-288.920013</ele>
<time>2023-03-08T12:16:00.862Z</time>
</trkpt>
<trkpt lat="30.9424500" lon="35.3434300">
<ele>-300.509979</ele>
<time>2023-03-08T12:16:00.862Z</time>
</trkpt>
<trkpt lat="30.9430200" lon="35.3436800">
<ele>-303.970001</ele>
<time>2023-03-08T12:16:00.862Z</time>
</trkpt>
<trkpt lat="30.9432100" lon="35.3439000">
<ele>-304.100006</ele>
<time>2023-03-08T12:16:00.862Z</time>
</trkpt>
<trkpt lat="30.9432400" lon="35.3441200">
<ele>-306.759979</ele>
<time>2023-03-08T12:16:00.862Z</time>
</trkpt>
<trkpt lat="30.9437800" lon="35.3443500">
<ele>-310.290009</ele>
<time>2023-03-08T12:16:00.862Z</time>
</trkpt>
<trkpt lat="30.9440200" lon="35.3446700">
<ele>-311.510010</ele>
<time>2023-03-08T12:16:00.862Z</time>
</trkpt>
<trkpt lat="30.9442600" lon="35.3448500">
<ele>-301.760010</ele>
<time>2023-03-08T12:16:00.862Z</time>
</trkpt>
<trkpt lat="30.9443800" lon="35.3452100">
<ele>-294.660004</ele>
<time>2023-03-08T12:16:00.862Z</time>
</trkpt>
<trkpt lat="30.9447100" lon="35.3448700">
<ele>-289.959991</ele>
<time>2023-03-08T12:16:00.862Z</time>
</trkpt>
<trkpt lat="30.9449200" lon="35.3448200">
<ele>-286.369995</ele>
<time>2023-03-08T12:16:00.862Z</time>
</trkpt>
<trkpt lat="30.9455300" lon="35.3453300">
<ele>-296.019989</ele>
<time>2023-03-08T12:16:00.862Z</time>
</trkpt>
<trkpt lat="30.9458300" lon="35.3454800">
<ele>-299.920013</ele>
<time>2023-03-08T12:16:00.862Z</time>
</trkpt>
<trkpt lat="30.9460400" lon="35.3454800">
<ele>-304.670013</ele>
<time>2023-03-08T12:16:00.862Z</time>
</trkpt>
<trkpt lat="30.9463200" lon="35.3453100">
<ele>-307.979980</ele>
<time>2023-03-08T12:16:00.862Z</time>
</trkpt>
<trkpt lat="30.9464700" lon="35.3453200">
<ele>-308.299988</ele>
<time>2023-03-08T12:16:00.862Z</time>
</trkpt>
<trkpt lat="30.9467400" lon="35.3458300">
<ele>-308.500000</ele>
<time>2023-03-08T12:16:00.862Z</time>
</trkpt>
<trkpt lat="30.9472400" lon="35.3456800">
<ele>-308.360016</ele>
<time>2023-03-08T12:16:00.862Z</time>
</trkpt>
<trkpt lat="30.9475600" lon="35.3462300">
<ele>-311.630005</ele>
<time>2023-03-08T12:16:00.862Z</time>
</trkpt>
<trkpt lat="30.9480800" lon="35.3461700">
<ele>-305.139984</ele>
<time>2023-03-08T12:16:00.862Z</time>
</trkpt>
<trkpt lat="30.9481100" lon="35.3462300">
<ele>-304.080017</ele>
<time>2023-03-08T12:16:00.862Z</time>
</trkpt>
<trkpt lat="30.9479200" lon="35.3467500">
<ele>-305.389984</ele>
<time>2023-03-08T12:16:00.862Z</time>
</trkpt>
<trkpt lat="30.9479300" lon="35.3470000">
<ele>-305.570007</ele>
<time>2023-03-08T12:16:00.862Z</time>
</trkpt>
<trkpt lat="30.9480300" lon="35.3471100">
<ele>-307.339996</ele>
<time>2023-03-08T12:16:00.862Z</time>
</trkpt>
<trkpt lat="30.9483900" lon="35.3471100">
<ele>-305.389984</ele>
<time>2023-03-08T12:16:00.862Z</time>
</trkpt>
<trkpt lat="30.9485600" lon="35.3472500">
<ele>-303.979980</ele>
<time>2023-03-08T12:16:00.862Z</time>
</trkpt>
<trkpt lat="30.9486400" lon="35.3477600">
<ele>-316.019989</ele>
<time>2023-03-08T12:16:00.862Z</time>
</trkpt>
<trkpt lat="30.9487700" lon="35.3480000">
<ele>-315.630005</ele>
<time>2023-03-08T12:16:00.862Z</time>
</trkpt>
<trkpt lat="30.9493900" lon="35.3487000">
<ele>-317.230011</ele>
<time>2023-03-08T12:16:00.862Z</time>
</trkpt>
<trkpt lat="30.9497100" lon="35.3487000">
<ele>-316.440002</ele>
<time>2023-03-08T12:16:00.862Z</time>
</trkpt>
<trkpt lat="30.9498500" lon="35.3487900">
<ele>-316.110016</ele>
<time>2023-03-08T12:16:00.862Z</time>
</trkpt>
<trkpt lat="30.9500100" lon="35.3492500">
<ele>-317.579987</ele>
<time>2023-03-08T12:16:00.862Z</time>
</trkpt>
<trkpt lat="30.9502300" lon="35.3494500">
<ele>-321.699982</ele>
<time>2023-03-08T12:16:00.862Z</time>
</trkpt>
<trkpt lat="30.9501800" lon="35.3496300">
<ele>-317.429993</ele>
<time>2023-03-08T12:16:00.862Z</time>
</trkpt>
<trkpt lat="30.9502400" lon="35.3497700">
<ele>-316.450012</ele>
<time>2023-03-08T12:16:00.862Z</time>
</trkpt>
<trkpt lat="30.9503900" lon="35.3497700">
<ele>-317.850006</ele>
<time>2023-03-08T12:16:00.862Z</time>
</trkpt>
<trkpt lat="30.9506800" lon="35.3494900">
<ele>-309.399994</ele>
<time>2023-03-08T12:16:00.862Z</time>
</trkpt>
<trkpt lat="30.9507800" lon="35.3495300">
<ele>-304.239990</ele>
<time>2023-03-08T12:16:00.862Z</time>
</trkpt>
<trkpt lat="30.9507900" lon="35.3498300">
<ele>-307.200012</ele>
<time>2023-03-08T12:16:00.862Z</time>
</trkpt>
<trkpt lat="30.9504800" lon="35.3505500">
<ele>-324.450012</ele>
<time>2023-03-08T12:16:00.862Z</time>
</trkpt>
<trkpt lat="30.9507600" lon="35.3508100">
<ele>-324.850006</ele>
<time>2023-03-08T12:16:00.862Z</time>
</trkpt>
<trkpt lat="30.9507600" lon="35.3512900">
<ele>-323.199982</ele>
<time>2023-03-08T12:16:00.862Z</time>
</trkpt>
<trkpt lat="30.9508400" lon="35.3514900">
<ele>-323.510010</ele>
<time>2023-03-08T12:16:00.862Z</time>
</trkpt>
<trkpt lat="30.9510600" lon="35.3517000">
<ele>-322.379974</ele>
<time>2023-03-08T12:16:00.862Z</time>
</trkpt>
<trkpt lat="30.9514000" lon="35.3523900">
<ele>-325.750000</ele>
<time>2023-03-08T12:16:00.862Z</time>
</trkpt>
<trkpt lat="30.9521700" lon="35.3526300">
<ele>-319.360016</ele>
<time>2023-03-08T12:16:00.862Z</time>
</trkpt>
<trkpt lat="30.9522500" lon="35.3531500">
<ele>-320.690002</ele>
<time>2023-03-08T12:16:00.862Z</time>
</trkpt>
<trkpt lat="30.9527600" lon="35.3534300">
<ele>-314.769989</ele>
<time>2023-03-08T12:16:00.862Z</time>
</trkpt>
<trkpt lat="30.9527900" lon="35.3539400">
<ele>-313.920013</ele>
<time>2023-03-08T12:16:00.862Z</time>
</trkpt>
<trkpt lat="30.9528600" lon="35.3540700">
<ele>-312.470001</ele>
<time>2023-03-08T12:16:00.862Z</time>
</trkpt>
<trkpt lat="30.9535100" lon="35.3542200">
<ele>-313.139984</ele>
<time>2023-03-08T12:16:00.862Z</time>
</trkpt>
<trkpt lat="30.9536500" lon="35.3547400">
<ele>-313.920013</ele>
<time>2023-03-08T12:16:00.862Z</time>
</trkpt>
<trkpt lat="30.9537900" lon="35.3552700">
<ele>-313.320007</ele>
<time>2023-03-08T12:16:00.862Z</time>
</trkpt>
<trkpt lat="30.9541700" lon="35.3556200">
<ele>-319.869995</ele>
<time>2023-03-08T12:16:00.862Z</time>
</trkpt>
<trkpt lat="30.9545400" lon="35.3559600">
<ele>-318.770020</ele>
<time>2023-03-08T12:16:00.862Z</time>
</trkpt>
<trkpt lat="30.9547900" lon="35.3564000">
<ele>-319.609985</ele>
<time>2023-03-08T12:16:00.862Z</time>
</trkpt>
<trkpt lat="30.9550300" lon="35.3568500">
<ele>-321.100006</ele>
<time>2023-03-08T12:16:00.862Z</time>
</trkpt>
<trkpt lat="30.9552800" lon="35.3572900">
<ele>-324.220001</ele>
<time>2023-03-08T12:16:00.862Z</time>
</trkpt>
<trkpt lat="30.9556300" lon="35.3576400">
<ele>-326.109985</ele>
<time>2023-03-08T12:16:00.862Z</time>
</trkpt>
<trkpt lat="30.9559700" lon="35.3579800">
<ele>-326.260010</ele>
<time>2023-03-08T12:16:00.862Z</time>
</trkpt>
<trkpt lat="30.9561300" lon="35.3585000">
<ele>-329.730011</ele>
<time>2023-03-08T12:16:00.862Z</time>
</trkpt>
<trkpt lat="30.9562800" lon="35.3590200">
<ele>-334.970001</ele>
<time>2023-03-08T12:16:00.862Z</time>
</trkpt>
<trkpt lat="30.9564400" lon="35.3595400">
<ele>-339.889984</ele>
<time>2023-03-08T12:16:00.862Z</time>
</trkpt>
<trkpt lat="30.9565200" lon="35.3602400">
<ele>-343.479980</ele>
<time>2023-03-08T12:16:00.862Z</time>
</trkpt>
<trkpt lat="30.9566100" lon="35.3605000">
<ele>-341.869995</ele>
<time>2023-03-08T12:16:00.862Z</time>
</trkpt>
<trkpt lat="30.9565400" lon="35.3607600">
<ele>-339.830017</ele>
<time>2023-03-08T12:16:00.862Z</time>
</trkpt>
<trkpt lat="30.9565000" lon="35.3617600">
<ele>-353.669983</ele>
<time>2023-03-08T12:16:00.862Z</time>
</trkpt>
<trkpt lat="30.9567100" lon="35.3621700">
<ele>-360.369995</ele>
<time>2023-03-08T12:16:00.862Z</time>
</trkpt>
<trkpt lat="30.9566800" lon="35.3625800">
<ele>-363.059998</ele>
<time>2023-03-08T12:16:00.862Z</time>
</trkpt>
<trkpt lat="30.9568700" lon="35.3633600">
<ele>-366.019989</ele>
<time>2023-03-08T12:16:00.862Z</time>
</trkpt>
<trkpt lat="30.9570400" lon="35.3634500">
<ele>-367.400024</ele>
<time>2023-03-08T12:16:00.862Z</time>
</trkpt>
<trkpt lat="30.9571200" lon="35.3636500">
<ele>-370.140015</ele>
<time>2023-03-08T12:16:00.862Z</time>
</trkpt>
<trkpt lat="30.9571900" lon="35.3636500">
<ele>-370.429993</ele>
<time>2023-03-08T12:16:00.862Z</time>
</trkpt>
<trkpt lat="30.9567300" lon="35.3636500">
<ele>-368.649994</ele>
<time>2023-03-08T12:16:00.862Z</time>
</trkpt>
<trkpt lat="30.9562700" lon="35.3636500">
<ele>-368.560028</ele>
<time>2023-03-08T12:16:00.862Z</time>
</trkpt>
<trkpt lat="30.9558100" lon="35.3636500">
<ele>-366.859985</ele>
<time>2023-03-08T12:16:00.862Z</time>
</trkpt>
<trkpt lat="30.9553500" lon="35.3636600">
<ele>-368.439972</ele>
<time>2023-03-08T12:16:00.862Z</time>
</trkpt>
<trkpt lat="30.9548900" lon="35.3636600">
<ele>-364.769989</ele>
<time>2023-03-08T12:16:00.862Z</time>
</trkpt>
<trkpt lat="30.9544300" lon="35.3636600">
<ele>-365.010010</ele>
<time>2023-03-08T12:16:00.862Z</time>
</trkpt>
<trkpt lat="30.9539700" lon="35.3636600">
<ele>-364.820007</ele>
<time>2023-03-08T12:16:00.862Z</time>
</trkpt>
<trkpt lat="30.9536100" lon="35.3635600">
<ele>-362.889984</ele>
<time>2023-03-08T12:16:00.862Z</time>
</trkpt>
<trkpt lat="30.9530900" lon="35.3633200">
<ele>-356.790009</ele>
<time>2023-03-08T12:16:00.862Z</time>
</trkpt>
<trkpt lat="30.9525700" lon="35.3630700">
<ele>-349.380005</ele>
<time>2023-03-08T12:16:00.862Z</time>
</trkpt>
<trkpt lat="30.9520500" lon="35.3628300">
<ele>-351.080017</ele>
<time>2023-03-08T12:16:00.862Z</time>
</trkpt>
<trkpt lat="30.9516500" lon="35.3627400">
<ele>-352.980011</ele>
<time>2023-03-08T12:16:00.862Z</time>
</trkpt>
<trkpt lat="30.9514800" lon="35.3627100">
<ele>-353.940002</ele>
<time>2023-03-08T12:16:00.862Z</time>
</trkpt>
<trkpt lat="30.9510000" lon="35.3627700">
<ele>-350.329987</ele>
<time>2023-03-08T12:16:00.862Z</time>
</trkpt>
<trkpt lat="30.9505200" lon="35.3628200">
<ele>-348.089996</ele>
<time>2023-03-08T12:16:00.862Z</time>
</trkpt>
<trkpt lat="30.9500400" lon="35.3628800">
<ele>-345.079987</ele>
<time>2023-03-08T12:16:00.862Z</time>
</trkpt>
<trkpt lat="30.9492600" lon="35.3631800">
<ele>-350.669983</ele>
<time>2023-03-08T12:16:00.862Z</time>
</trkpt>
<trkpt lat="30.9488500" lon="35.3634300">
<ele>-353.889984</ele>
<time>2023-03-08T12:16:00.862Z</time>
</trkpt>
<trkpt lat="30.9484500" lon="35.3636800">
<ele>-351.610016</ele>
<time>2023-03-08T12:16:00.862Z</time>
</trkpt>
<trkpt lat="30.9480400" lon="35.3639300">
<ele>-355.010010</ele>
<time>2023-03-08T12:16:00.862Z</time>
</trkpt>
<trkpt lat="30.9476400" lon="35.3641800">
<ele>-348.740021</ele>
<time>2023-03-08T12:16:00.862Z</time>
</trkpt>
<trkpt lat="30.9472300" lon="35.3644400">
<ele>-351.880005</ele>
<time>2023-03-08T12:16:00.862Z</time>
</trkpt>
<trkpt lat="30.9468300" lon="35.3646900">
<ele>-355.139984</ele>
<time>2023-03-08T12:16:00.862Z</time>
</trkpt>
<trkpt lat="30.9464200" lon="35.3649400">
<ele>-356.549988</ele>
<time>2023-03-08T12:16:00.862Z</time>
</trkpt>
<trkpt lat="30.9460200" lon="35.3651900">
<ele>-353.220001</ele>
<time>2023-03-08T12:16:00.862Z</time>
</trkpt>
<trkpt lat="30.9456100" lon="35.3654400">
<ele>-351.950012</ele>
<time>2023-03-08T12:16:00.862Z</time>
</trkpt>
<trkpt lat="30.9452100" lon="35.3658200">
<ele>-353.869995</ele>
<time>2023-03-08T12:16:00.862Z</time>
</trkpt>
<trkpt lat="30.9448100" lon="35.3661900">
<ele>-350.559998</ele>
<time>2023-03-08T12:16:00.862Z</time>
</trkpt>
<trkpt lat="30.9444000" lon="35.3665700">
<ele>-352.989990</ele>
<time>2023-03-08T12:16:00.862Z</time>
</trkpt>
<trkpt lat="30.9440000" lon="35.3669400">
<ele>-353.369995</ele>
<time>2023-03-08T12:16:00.862Z</time>
</trkpt>
<trkpt lat="30.9435700" lon="35.3672700">
<ele>-351.489990</ele>
<time>2023-03-08T12:16:00.862Z</time>
</trkpt>
<trkpt lat="30.9431400" lon="35.3676000">
<ele>-352.110016</ele>
<time>2023-03-08T12:16:00.862Z</time>
</trkpt>
<trkpt lat="30.9428500" lon="35.3678300">
<ele>-352.210022</ele>
<time>2023-03-08T12:16:00.862Z</time>
</trkpt>
<trkpt lat="30.9428500" lon="35.3678300">
<ele>-352.210022</ele>
<time>2023-03-08T12:16:00.862Z</time>
</trkpt>
<trkpt lat="30.9427100" lon="35.3679300">
<ele>-352.489990</ele>
<time>2023-03-08T12:16:00.862Z</time>
</trkpt>
<trkpt lat="30.9420600" lon="35.3685900">
<ele>-355.000000</ele>
<time>2023-03-08T12:16:00.862Z</time>
</trkpt>
<trkpt lat="30.9420700" lon="35.3684700">
<ele>-355.000000</ele>
<time>2023-03-08T12:16:00.862Z</time>
</trkpt>
<trkpt lat="30.9420700" lon="35.3684700">
<ele>-355.000000</ele>
<time>2023-03-08T12:16:00.862Z</time>
</trkpt>
<trkpt lat="30.9420700" lon="35.3684200">
<ele>-355.000000</ele>
<time>2023-03-08T12:16:00.862Z</time>
</trkpt>
<trkpt lat="30.9419700" lon="35.3682300">
<ele>-355.370026</ele>
<time>2023-03-08T12:16:00.862Z</time>
</trkpt>
</trkseg>
</trk>
</gpx>
